[[{"header":{"parameterUnit":"m.s-1","parameterCategory":1,"la1":30.6,"la2":29.2853,"lo1":-89.7004,"lo2":-87.6739,"dy":0.0162,"dx":0.0183,"nx":112,"ny":82,"refTime":"2023-06-05T00:00:00:Z","depth":0,"parameterNumber":2,"parameterNumberName":"U-component_of_WINDS"},"data":[0.0,0.0,0.0,0.0,0.0,0.0,0.0,0.0,0.0,0.0,0.0,0.0,0.0,0.0,0.0,0.0,0.0,0.0,0.0,0.0,0.0,0.0,0.0,0.0,0.0,0.0,0.0,0.0,0.0,0.0,0.0,0.0,0.0,0.0,0.0,0.0,0.0,0.0,0.0,0.0,0.0,0.0,0.0,0.0,0.0,0.0,0.0,0.0,0.0,0.0,0.0,0.0,0.0,0.0,0.0,0.0,0.0,0.0,0.0,0.0,0.0,0.0,0.0,0.0,0.0,0.0,0.0,0.0,0.0,0.0,0.0,0.0,0.0,0.0,0.0,0.0,0.0,0.0,0.0,0.0,0.0,0.0,0.0,0.0,0.0,0.0,0.0,0.0,0.0,0.0,-3.7918,-3.8784,-3.9286,-3.9551,-3.9539,-3.7946,-3.6944,-3.6944,0.0,0.0,0.0,0.0,0.0,0.0,0.0,0.0,0.0,0.0,0.0,0.0,0.0,0.0,0.0,0.0,0.0,0.0,0.0,0.0,0.0,0.0,0.0,0.0,0.0,0.0,0.0,0.0,0.0,0.0,0.0,0.0,0.0,0.0,0.0,0.0,0.0,0.0,0.0,0.0,0.0,0.0,0.0,0.0,0.0,0.0,0.0,0.0,0.0,0.0,0.0,0.0,0.0,0.0,0.0,0.0,0.0,0.0,0.0,0.0,0.0,0.0,0.0,0.0,0.0,0.0,0.0,0.0,0.0,0.0,0.0,0.0,0.0,0.0,0.0,0.0,0.0,0.0,0.0,0.0,0.0,0.0,0.0,0.0,0.0,0.0,0.0,0.0,0.0,0.0,0.0,0.0,0.0,0.0,0.0,0.0,0.0,0.0,0.0,0.0,0.0,0.0,0.0,0.0,-3.8117,-3.9496,-3.9705,-3.9735,-3.9677,-3.8131,-3.7156,-3.7156,0.0,0.0,0.0,0.0,0.0,0.0,0.0,0.0,0.0,0.0,0.0,0.0,0.0,0.0,0.0,0.0,0.0,0.0,0.0,0.0,0.0,0.0,0.0,0.0,0.0,0.0,0.0,0.0,0.0,0.0,0.0,0.0,0.0,0.0,0.0,0.0,0.0,0.0,0.0,0.0,0.0,0.0,0.0,0.0,0.0,0.0,0.0,0.0,0.0,0.0,0.0,0.0,0.0,0.0,0.0,0.0,0.0,0.0,0.0,0.0,0.0,0.0,0.0,0.0,0.0,0.0,0.0,0.0,0.0,0.0,0.0,0.0,0.0,0.0,0.0,0.0,0.0,0.0,0.0,0.0,0.0,0.0,0.0,0.0,0.0,0.0,0.0,0.0,0.0,0.0,0.0,0.0,0.0,0.0,0.0,0.0,0.0,0.0,0.0,0.0,0.0,0.0,0.0,-3.8232,-3.9231,-3.9838,-3.9889,-3.9826,-3.9758,-3.8211,-3.7257,-3.7241,-3.4461,0.0,0.0,0.0,0.0,0.0,0.0,0.0,0.0,0.0,0.0,0.0,0.0,0.0,0.0,0.0,0.0,0.0,0.0,0.0,0.0,0.0,0.0,0.0,0.0,0.0,0.0,0.0,0.0,0.0,0.0,0.0,0.0,0.0,0.0,0.0,0.0,0.0,0.0,0.0,0.0,0.0,0.0,0.0,0.0,0.0,0.0,0.0,0.0,0.0,0.0,0.0,0.0,0.0,0.0,0.0,0.0,0.0,0.0,0.0,0.0,0.0,0.0,0.0,0.0,0.0,0.0,0.0,0.0,0.0,0.0,0.0,0.0,0.0,0.0,0.0,0.0,0.0,0.0,0.0,0.0,0.0,0.0,0.0,0.0,0.0,0.0,0.0,0.0,0.0,0.0,0.0,0.0,0.0,0.0,0.0,0.0,0.0,0.0,0.0,0.0,0.0,0.0,-3.9166,-4.0138,-4.0046,-3.9994,-3.9922,-3.9889,-3.8331,-3.7375,-3.7368,-3.5031,0.0,0.0,0.0,0.0,0.0,0.0,0.0,0.0,0.0,0.0,0.0,0.0,0.0,0.0,0.0,0.0,0.0,0.0,0.0,0.0,0.0,0.0,0.0,0.0,0.0,0.0,0.0,0.0,0.0,0.0,0.0,0.0,0.0,0.0,0.0,0.0,0.0,0.0,0.0,0.0,0.0,0.0,0.0,0.0,0.0,0.0,0.0,0.0,0.0,0.0,0.0,0.0,0.0,0.0,0.0,0.0,0.0,0.0,0.0,0.0,0.0,0.0,0.0,0.0,0.0,0.0,0.0,0.0,0.0,0.0,0.0,0.0,0.0,0.0,0.0,0.0,0.0,0.0,0.0,0.0,0.0,0.0,0.0,0.0,0.0,0.0,0.0,0.0,0.0,0.0,0.0,0.0,0.0,0.0,0.0,0.0,0.0,0.0,0.0,0.0,0.0,0.0,-3.9166,-4.0176,-4.0106,-4.0096,-4.0077,-4.0067,-3.8546,-3.7576,-3.7585,-3.5189,0.0,0.0,0.0,0.0,0.0,0.0,0.0,0.0,0.0,0.0,0.0,0.0,0.0,0.0,0.0,0.0,0.0,0.0,0.0,0.0,0.0,0.0,0.0,0.0,0.0,0.0,0.0,0.0,0.0,0.0,0.0,0.0,0.0,0.0,0.0,0.0,0.0,0.0,0.0,0.0,0.0,0.0,0.0,0.0,0.0,0.0,0.0,0.0,0.0,0.0,0.0,0.0,0.0,0.0,0.0,0.0,0.0,0.0,0.0,0.0,0.0,0.0,0.0,0.0,0.0,0.0,0.0,0.0,0.0,0.0,0.0,0.0,0.0,0.0,0.0,0.0,0.0,0.0,0.0,0.0,0.0,0.0,0.0,0.0,0.0,0.0,0.0,0.0,0.0,0.0,0.0,0.0,0.0,0.0,0.0,0.0,0.0,0.0,0.0,0.0,0.0,0.0,-3.9294,-4.029,0.0,-4.0225,-4.0206,-4.0167,-3.8632,-3.7668,-3.7714,0.0,0.0,0.0,0.0,0.0,0.0,0.0,0.0,0.0,0.0,0.0,0.0,0.0,0.0,0.0,0.0,0.0,0.0,0.0,0.0,0.0,0.0,0.0,0.0,0.0,0.0,0.0,0.0,0.0,0.0,0.0,0.0,0.0,0.0,0.0,0.0,0.0,0.0,0.0,0.0,0.0,0.0,0.0,0.0,0.0,0.0,0.0,0.0,0.0,0.0,0.0,0.0,0.0,0.0,0.0,0.0,0.0,0.0,0.0,0.0,0.0,0.0,0.0,0.0,0.0,0.0,0.0,0.0,0.0,0.0,0.0,0.0,0.0,0.0,0.0,0.0,0.0,0.0,0.0,0.0,0.0,0.0,0.0,0.0,0.0,0.0,0.0,0.0,0.0,0.0,0.0,0.0,0.0,0.0,0.0,0.0,0.0,0.0,0.0,0.0,0.0,0.0,-3.7896,-3.9352,-4.0379,0.0,-4.0323,-4.0314,-4.026,-3.8976,-3.8082,-3.7877,0.0,0.0,0.0,0.0,0.0,0.0,0.0,0.0,0.0,0.0,0.0,0.0,0.0,0.0,0.0,0.0,0.0,0.0,0.0,0.0,0.0,0.0,0.0,0.0,0.0,0.0,0.0,0.0,0.0,0.0,0.0,0.0,0.0,0.0,0.0,0.0,0.0,0.0,0.0,0.0,0.0,0.0,0.0,0.0,0.0,0.0,0.0,0.0,0.0,0.0,0.0,0.0,0.0,0.0,0.0,0.0,0.0,0.0,0.0,0.0,0.0,0.0,0.0,0.0,0.0,0.0,0.0,0.0,0.0,0.0,0.0,0.0,0.0,0.0,0.0,0.0,0.0,0.0,0.0,0.0,0.0,0.0,0.0,0.0,0.0,0.0,0.0,0.0,0.0,0.0,0.0,0.0,0.0,0.0,0.0,0.0,0.0,0.0,0.0,0.0,0.0,0.0,-3.7904,-3.9372,-4.0388,-4.0388,-4.04,-4.0406,-4.0406,-3.9677,-3.8854,0.0,0.0,0.0,0.0,0.0,0.0,0.0,0.0,0.0,0.0,0.0,0.0,0.0,0.0,0.0,0.0,0.0,0.0,0.0,0.0,0.0,0.0,0.0,0.0,0.0,0.0,0.0,0.0,0.0,0.0,0.0,0.0,0.0,0.0,0.0,0.0,0.0,0.0,0.0,0.0,0.0,0.0,0.0,0.0,0.0,0.0,0.0,0.0,0.0,0.0,0.0,0.0,0.0,0.0,0.0,0.0,0.0,0.0,0.0,0.0,0.0,0.0,0.0,0.0,0.0,0.0,0.0,0.0,0.0,0.0,0.0,0.0,0.0,0.0,0.0,0.0,0.0,0.0,0.0,0.0,0.0,0.0,0.0,0.0,0.0,0.0,0.0,0.0,0.0,0.0,0.0,0.0,0.0,0.0,0.0,0.0,0.0,0.0,0.0,0.0,0.0,0.0,0.0,-3.8038,-3.9502,-4.0542,-4.0542,-4.053,-4.0571,-4.0612,-3.9835,-3.9,-3.8196,0.0,0.0,0.0,0.0,0.0,0.0,0.0,0.0,0.0,0.0,0.0,0.0,0.0,0.0,0.0,0.0,0.0,0.0,0.0,0.0,0.0,0.0,0.0,0.0,0.0,0.0,0.0,0.0,0.0,0.0,0.0,0.0,0.0,0.0,0.0,0.0,0.0,0.0,0.0,0.0,0.0,0.0,0.0,0.0,0.0,0.0,0.0,0.0,0.0,0.0,0.0,0.0,0.0,0.0,0.0,0.0,0.0,0.0,0.0,0.0,0.0,0.0,0.0,0.0,0.0,0.0,0.0,0.0,0.0,0.0,0.0,0.0,0.0,0.0,0.0,0.0,0.0,0.0,0.0,0.0,0.0,0.0,0.0,0.0,0.0,0.0,0.0,0.0,0.0,0.0,0.0,0.0,0.0,0.0,0.0,0.0,0.0,0.0,0.0,0.0,0.0,0.0,-3.8099,-3.9592,-4.0635,-4.0636,-4.0668,-4.0707,-4.0739,-4.0287,-3.9497,-3.8304,0.0,0.0,0.0,0.0,0.0,0.0,0.0,0.0,0.0,0.0,0.0,0.0,0.0,0.0,0.0,0.0,0.0,0.0,0.0,0.0,0.0,0.0,0.0,0.0,0.0,0.0,0.0,0.0,0.0,0.0,0.0,0.0,0.0,0.0,0.0,0.0,0.0,0.0,0.0,0.0,0.0,0.0,0.0,0.0,0.0,0.0,0.0,0.0,0.0,0.0,0.0,0.0,0.0,0.0,0.0,0.0,0.0,0.0,0.0,0.0,0.0,0.0,0.0,0.0,0.0,0.0,0.0,0.0,0.0,0.0,0.0,0.0,0.0,0.0,0.0,0.0,0.0,0.0,0.0,0.0,0.0,0.0,0.0,0.0,0.0,0.0,0.0,0.0,0.0,0.0,0.0,0.0,0.0,0.0,0.0,0.0,0.0,0.0,0.0,0.0,0.0,0.0,-3.8124,-3.9631,-4.0707,-4.0725,-4.0769,-4.0798,-4.0818,-4.0863,-4.017,-3.841,0.0,0.0,0.0,0.0,0.0,0.0,0.0,0.0,0.0,0.0,0.0,0.0,0.0,0.0,0.0,0.0,0.0,0.0,0.0,0.0,0.0,0.0,0.0,0.0,0.0,0.0,0.0,0.0,0.0,0.0,0.0,0.0,0.0,0.0,0.0,0.0,0.0,0.0,0.0,0.0,0.0,0.0,0.0,0.0,0.0,0.0,0.0,0.0,0.0,0.0,0.0,0.0,0.0,0.0,0.0,0.0,0.0,0.0,0.0,0.0,-3.1526,0.0,0.0,0.0,0.0,0.0,0.0,0.0,0.0,0.0,0.0,0.0,0.0,0.0,0.0,0.0,0.0,0.0,0.0,0.0,0.0,0.0,0.0,0.0,0.0,0.0,0.0,0.0,0.0,0.0,0.0,0.0,0.0,0.0,0.0,0.0,0.0,0.0,0.0,0.0,0.0,0.0,-3.826,-3.9733,-4.0809,-4.0856,-4.0862,-4.0888,-4.0882,-4.0943,-4.0225,-3.8497,-3.8432,0.0,0.0,0.0,0.0,0.0,0.0,0.0,0.0,0.0,0.0,0.0,0.0,0.0,0.0,0.0,0.0,0.0,0.0,0.0,0.0,0.0,0.0,0.0,0.0,0.0,0.0,0.0,0.0,0.0,0.0,0.0,0.0,0.0,0.0,0.0,0.0,0.0,0.0,0.0,0.0,0.0,0.0,0.0,0.0,0.0,0.0,0.0,0.0,0.0,0.0,0.0,0.0,0.0,0.0,0.0,0.0,0.0,0.0,0.0,0.0,-3.2166,0.0,0.0,0.0,0.0,0.0,0.0,0.0,0.0,0.0,0.0,0.0,0.0,0.0,0.0,0.0,0.0,0.0,0.0,0.0,0.0,0.0,0.0,0.0,0.0,0.0,0.0,0.0,0.0,0.0,0.0,0.0,0.0,0.0,0.0,0.0,0.0,0.0,0.0,0.0,0.0,-3.8903,-4.0073,-4.0864,-4.0935,-4.0958,-4.096,-4.0983,-4.1039,-4.0295,-3.8558,-3.8475,0.0,0.0,0.0,0.0,0.0,0.0,0.0,0.0,0.0,0.0,0.0,0.0,0.0,0.0,0.0,0.0,0.0,0.0,0.0,0.0,0.0,0.0,0.0,0.0,0.0,0.0,0.0,0.0,0.0,0.0,0.0,0.0,0.0,0.0,0.0,0.0,0.0,0.0,0.0,0.0,0.0,0.0,0.0,0.0,0.0,0.0,0.0,0.0,0.0,0.0,0.0,0.0,0.0,-3.6806,-3.7495,-3.8169,-3.7517,-3.6851,-3.6139,-3.4769,-3.3845,-3.3243,0.0,0.0,0.0,0.0,0.0,0.0,0.0,0.0,0.0,0.0,0.0,0.0,0.0,0.0,0.0,0.0,0.0,0.0,0.0,0.0,0.0,0.0,0.0,0.0,0.0,-3.3649,-3.3741,0.0,0.0,0.0,0.0,0.0,0.0,0.0,0.0,0.0,0.0,0.0,0.0,-3.9571,-4.0412,-4.0937,-4.1013,-4.102,-4.1033,-4.11,-4.1096,-4.0426,-3.8837,-3.8591,-3.7835,0.0,0.0,0.0,0.0,0.0,0.0,0.0,0.0,0.0,0.0,0.0,0.0,0.0,0.0,0.0,0.0,0.0,0.0,0.0,0.0,0.0,0.0,0.0,0.0,0.0,0.0,0.0,0.0,0.0,0.0,0.0,0.0,-2.8761,-2.9828,0.0,0.0,0.0,0.0,0.0,0.0,0.0,0.0,0.0,0.0,0.0,0.0,0.0,0.0,-3.7513,-3.7635,-3.7763,-3.7864,-3.798,-3.8083,-3.8199,-3.8092,-3.7987,-3.7862,-3.7705,0.0,-3.3294,-3.3187,0.0,0.0,0.0,0.0,0.0,0.0,0.0,0.0,0.0,0.0,0.0,0.0,0.0,0.0,0.0,0.0,0.0,0.0,0.0,0.0,0.0,0.0,-3.453,-3.4521,-3.5054,-3.5546,0.0,-3.4958,-3.4429,-3.4429,0.0,0.0,0.0,0.0,0.0,0.0,0.0,0.0,-3.9597,-4.0454,-4.1016,-4.1087,-4.11,-4.1093,-4.1107,-4.1106,-4.0688,-3.9697,-3.8979,-3.8142,-3.7168,-3.5566,0.0,0.0,0.0,0.0,0.0,0.0,0.0,0.0,0.0,0.0,0.0,0.0,0.0,0.0,0.0,0.0,0.0,0.0,0.0,0.0,0.0,0.0,0.0,0.0,0.0,0.0,0.0,0.0,0.0,-2.8566,-2.9715,-3.0657,-3.078,-3.1135,0.0,0.0,0.0,0.0,0.0,0.0,0.0,0.0,0.0,-3.6881,-3.728,-3.768,-3.8144,-3.8183,-3.8459,-3.8934,-3.8934,-3.9185,-3.963,-3.9139,-3.8924,-3.8897,-3.844,-3.7424,-3.605,-3.508,-3.4435,-3.3971,0.0,0.0,0.0,0.0,0.0,-3.3407,-3.3397,0.0,0.0,0.0,0.0,0.0,0.0,0.0,0.0,0.0,0.0,0.0,0.0,0.0,0.0,-3.6045,-3.6405,-3.6766,-3.7262,-3.7055,-3.6493,0.0,-3.5648,-3.5905,-3.5895,0.0,0.0,0.0,0.0,-3.9493,-4.0365,-4.0822,-4.1069,-4.1107,-4.1097,-4.1108,-4.11,-4.1108,-4.0721,-3.9863,-3.9042,-3.8219,-3.7336,-3.6105,-3.5012,0.0,0.0,0.0,0.0,0.0,0.0,0.0,0.0,0.0,0.0,0.0,0.0,0.0,0.0,0.0,0.0,0.0,0.0,0.0,0.0,0.0,0.0,0.0,0.0,0.0,0.0,0.0,0.0,-2.9794,-3.0564,-3.1499,-3.1624,-3.1968,0.0,0.0,0.0,0.0,0.0,0.0,-3.6005,-3.6671,-3.743,-3.8315,-3.8325,-3.8565,-3.9069,-3.9116,-3.9573,-4.0456,-4.0449,-4.0797,-4.1397,-4.0539,-4.0151,-4.0091,-3.924,-3.8772,-3.8495,-3.7048,-3.5978,-3.5184,-3.4522,-3.4144,-3.3968,-3.396,-3.3991,-3.404,-3.4031,-3.4038,-3.404,-3.404,0.0,-3.4041,-3.4062,0.0,0.0,0.0,0.0,-3.5371,-3.5371,0.0,-3.6828,-3.7485,-3.7597,-3.7747,-3.8381,-3.8536,-3.8133,0.0,-3.657,-3.6576,-3.6565,0.0,0.0,0.0,0.0,-4.0118,-4.0986,-4.1094,-4.1106,-4.1097,-4.1102,-4.1108,-4.1093,-4.1093,-4.0817,-4.0162,-3.9142,-3.8276,-3.764,-3.6565,-3.557,-3.469,0.0,0.0,0.0,0.0,0.0,0.0,0.0,0.0,0.0,0.0,0.0,0.0,0.0,0.0,0.0,0.0,0.0,0.0,0.0,0.0,0.0,0.0,0.0,0.0,0.0,0.0,0.0,0.0,0.0,-3.2326,-3.2499,0.0,0.0,0.0,0.0,-3.6252,-3.7176,-3.7723,-3.777,-3.7886,-3.8334,-3.9207,-3.9227,-4.0038,-4.1693,-4.1713,-4.2152,-4.3018,-4.3016,-4.3038,-4.3057,-4.2241,-4.1874,-4.1841,-4.1015,-4.02,-3.9373,-3.8515,-3.77,-3.6968,-3.6931,-3.6444,-3.5765,-3.5768,-3.5768,-3.5768,-3.5768,-3.5762,-3.5774,-3.5774,-3.5772,-3.5797,-3.5845,-3.5862,0.0,0.0,-3.6491,-3.7164,-3.7168,-3.7812,-3.8476,-3.8512,-3.853,-3.8548,-3.8583,-3.8582,-3.8556,0.0,-3.8363,-3.8363,-3.8363,0.0,-3.8734,-3.9592,-3.9778,-4.0102,-4.0989,-4.1094,-4.1102,-4.1091,-4.1093,-4.1093,-4.1109,-4.1103,-4.1072,-4.1042,-3.944,-3.8495,-3.8447,-3.681,-3.5502,-3.462,-3.4561,0.0,0.0,0.0,0.0,0.0,0.0,0.0,0.0,0.0,0.0,0.0,0.0,0.0,0.0,0.0,0.0,0.0,0.0,0.0,0.0,0.0,0.0,0.0,0.0,0.0,0.0,0.0,0.0,-3.3154,-3.3831,0.0,-3.5358,-3.6275,-3.6948,-3.7254,-3.7655,-3.8126,-3.8651,-3.9277,-4.0008,-4.0873,-4.145,-4.2032,-4.2668,-4.2668,-4.2838,-4.3204,-4.3199,-4.3207,-4.3188,-4.2893,-4.2476,-4.1916,-4.1686,-4.1081,-4.0256,-4.0006,-3.9101,-3.787,-3.7875,-3.769,-3.7452,-3.7497,-3.751,-3.7514,-3.7502,-3.7516,-3.75,-3.75,-3.7511,-3.7524,-3.759,-3.7605,-3.7615,-3.7609,-3.7822,-3.8069,-3.8074,-3.8334,-3.8748,-3.9297,-3.9433,-3.9589,-4.0091,-4.0207,-4.0206,-4.018,-3.9273,-3.8505,-3.8552,-3.8982,-3.945,-3.9806,-4.0317,-4.075,-4.1067,-4.111,-4.1093,-4.1094,-4.1091,-4.1105,-4.1098,-4.1103,-4.1081,-4.105,-3.9938,-3.902,-3.847,-3.7307,-3.6269,-3.539,-3.4827,-3.424,0.0,0.0,0.0,0.0,0.0,0.0,0.0,0.0,0.0,0.0,0.0,0.0,0.0,0.0,0.0,0.0,0.0,0.0,0.0,0.0,0.0,0.0,0.0,0.0,0.0,0.0,-3.3488,-3.4462,-3.539,-3.6167,-3.6719,-3.7591,-3.8132,-3.8132,-3.8793,-3.9418,-3.9955,-4.0872,-4.1643,-4.222,-4.2797,-4.3236,-4.3492,-4.3492,-4.3662,-4.4013,-4.4029,-4.4037,-4.4037,-4.3736,-4.33,-4.2702,-4.2191,-4.1645,-4.1086,-4.0849,-4.0087,-3.9046,-3.8833,-3.8558,-3.8311,-3.8341,-3.8374,-3.8379,-3.838,-3.8373,-3.8377,-3.8389,-3.8397,-3.84,-3.8452,-3.8471,-3.8503,-3.85,-3.8718,-3.8931,-3.8938,-3.9182,-3.9581,-4.0174,-4.0292,-4.0449,-4.0976,-4.1093,-4.1093,-4.1093,-4.017,-3.9381,-3.9444,-3.9893,-4.0245,-4.0308,-4.0758,-4.1092,-4.1093,-4.1093,-4.1091,-4.1107,-4.1097,-4.1083,-4.107,-4.1069,-4.1039,-4.0976,-4.0151,-3.9263,-3.8373,-3.752,-3.6653,-3.5751,-3.4893,-3.4462,-3.4462,0.0,0.0,0.0,0.0,0.0,0.0,0.0,0.0,0.0,0.0,0.0,0.0,0.0,0.0,0.0,0.0,0.0,0.0,0.0,0.0,0.0,0.0,0.0,-3.3514,-3.4298,-3.5218,-3.6226,-3.712,-3.7661,-3.7726,-3.8545,-3.9088,-3.9088,-4.0727,-4.1738,-4.1738,-4.2631,-4.3143,-4.3143,-4.3162,-4.3547,-4.4335,-4.4335,-4.4759,-4.5594,-4.5676,-4.5701,-4.5662,-4.482,-4.4411,-4.4315,-4.2676,-4.1943,-4.1834,-4.0993,-4.0614,-4.0551,-3.9879,-3.9115,-3.8359,-3.8359,-3.8384,-3.8389,-3.837,-3.838,-3.8389,-3.8458,-3.847,-3.8474,-3.8474,-3.8526,-3.8575,-3.8575,-3.9182,-3.9833,-3.9832,-4.0464,-4.1093,-4.1104,-4.1107,-4.1107,-4.1107,-4.1107,-4.1107,-4.1107,-4.1094,-4.1108,-4.1108,-4.1108,-4.1109,-4.1092,-4.1093,0.0,-4.1092,-4.1105,-4.1095,-4.1109,-4.1107,-4.1061,-4.1013,-4.0997,-4.0961,-4.0893,-4.0106,-3.9219,-3.8288,-3.7464,-3.6577,-3.5626,-3.4823,-3.4417,-3.4397,0.0,0.0,0.0,0.0,0.0,0.0,0.0,0.0,0.0,0.0,0.0,0.0,0.0,0.0,0.0,0.0,0.0,0.0,0.0,0.0,0.0,-3.3432,-3.4205,-3.441,-3.5157,-3.6049,-3.7052,-3.7937,-3.8509,-3.8556,-3.9919,-4.0807,-4.0807,-4.1867,-4.2526,-4.2563,-4.3469,-4.3974,-4.397,-4.4586,-4.5017,-4.5248,-4.5248,-4.5364,-4.5594,-4.5622,-4.5631,-4.5612,-4.537,-4.4927,-4.4292,-4.3893,-4.3023,-4.1874,-4.1634,-4.1166,-4.0575,-4.0404,-4.0217,-4.0049,-4.0035,-4.007,-4.0109,-4.0119,-4.01,-4.0125,-4.0194,-4.0209,-4.0213,-4.0263,-4.0303,-4.0318,-4.0305,-4.0484,-4.0677,-4.0738,-4.0923,-4.1092,-4.1091,-4.1095,-4.1098,-4.1106,-4.1107,-4.1107,-4.1107,-4.1091,-4.1092,-4.1092,-4.1092,-4.1092,-4.1092,-4.1091,0.0,-4.1099,-4.1094,-4.1104,-4.1096,-4.1056,-4.101,-4.0995,-4.096,-4.0921,-4.0898,-4.0588,-4.002,-3.9184,-3.8285,-3.7095,-3.5622,-3.539,-3.4959,0.0,0.0,0.0,0.0,0.0,0.0,0.0,0.0,0.0,0.0,0.0,0.0,0.0,0.0,0.0,0.0,0.0,0.0,0.0,0.0,0.0,0.0,-3.4454,-3.5353,-3.623,-3.6782,-3.7339,-3.7965,-3.9136,-3.9928,-3.9977,-4.1237,-4.203,-4.203,-4.2843,-4.336,-4.3398,-4.4287,-4.4802,-4.4809,-4.5308,-4.5594,-4.5594,-4.5577,-4.5559,-4.5559,-4.5522,-4.5513,-4.5513,-4.5513,-4.5244,0.0,-4.4455,-4.3752,-4.2838,-4.247,-4.2016,0.0,0.0,0.0,0.0,0.0,-4.1777,-4.1814,-4.1844,-4.1856,-4.1798,-4.1496,-4.1421,-4.1378,-4.1063,-4.0989,-4.0991,-4.0996,-4.0995,-4.1016,-4.1058,-4.105,-4.1064,-4.1092,-4.1095,-4.1099,-4.1109,-4.1091,-4.1091,-4.1091,0.0,0.0,-4.1091,-4.1101,-4.1106,-4.1102,-4.1101,-4.1233,0.0,-4.1614,-4.1601,-4.1593,-4.1535,-4.1346,-4.0991,-4.0903,0.0,0.0,0.0,-4.0307,-3.9457,-3.8148,0.0,0.0,0.0,-3.5232,0.0,0.0,0.0,0.0,-3.3432,-3.3131,0.0,0.0,0.0,0.0,0.0,0.0,0.0,0.0,0.0,0.0,0.0,0.0,0.0,0.0,0.0,0.0,-3.5408,-3.6648,-3.8275,-3.8723,-3.8925,-3.9079,-4.045,-4.1462,-4.1619,-4.2431,-4.2947,-4.2947,-4.3732,-4.424,-4.425,0.0,0.0,0.0,0.0,-4.5577,-4.5577,-4.5513,-4.5495,-4.5495,-4.5429,-4.54,-4.54,-4.54,-4.54,-4.5362,-4.4652,-4.4288,-4.4135,-4.3378,-4.2994,-4.2763,-4.1401,-4.1345,-4.2124,-4.2913,-4.3204,0.0,0.0,0.0,0.0,-4.2476,-4.2214,-4.2042,-4.1271,-4.1019,-4.0997,-4.1006,-4.0999,-4.1,-4.0997,-4.1007,-4.1013,-4.1064,-4.1089,-4.1091,-4.1093,-4.1093,-4.1093,-4.1093,-4.1093,-4.1093,-4.1093,-4.1106,-4.11,-4.1108,-4.1106,0.0,-4.2286,-4.2334,-4.2331,-4.2425,0.0,0.0,-4.1092,-4.0892,-4.0754,-4.0694,-4.07,-4.0268,-3.9315,-3.774,-3.6792,-3.66,-3.5852,-3.5404,-3.5308,-3.5364,-3.5398,-3.5348,-3.3941,-3.3313,0.0,0.0,0.0,0.0,0.0,0.0,0.0,0.0,0.0,0.0,0.0,0.0,0.0,0.0,0.0,-3.5266,-3.6744,-3.7901,-3.8426,-3.9713,-4.0696,-4.0867,-4.1193,-4.1691,-4.2478,-4.3291,-4.3758,-4.3758,-4.4581,-4.509,-4.5149,-4.5332,0.0,-4.5419,-4.5429,-4.5438,-4.5438,-4.5429,-4.5419,-4.5419,0.0,0.0,-4.54,-4.54,-4.54,-4.5381,-4.5228,-4.4806,-4.4192,-4.402,-4.3531,-4.2889,-4.2618,-4.2672,-4.2896,-4.3127,-4.3195,-4.3204,-4.3206,-4.3246,-4.326,-4.3124,-4.2633,-4.2102,-4.1978,-4.1475,0.0,-4.0974,-4.101,-4.0999,-4.1,-4.1007,-4.0995,-4.1013,-4.1019,-4.1028,-4.1089,-4.1093,-4.1093,-4.1093,-4.1093,-4.1093,-4.1093,-4.1103,-4.1107,-4.1103,-4.11,-4.1403,-4.2214,-4.2299,-4.2551,-4.3201,-4.2621,-4.2116,-4.1881,-4.116,-4.0719,-4.0694,-4.0593,-4.0112,-3.9183,-3.8794,-3.798,-3.6619,-3.6427,-3.6006,-3.5308,-3.5315,-3.5323,-3.5304,-3.5104,-3.5007,0.0,0.0,0.0,0.0,0.0,0.0,0.0,0.0,0.0,0.0,0.0,-3.2218,-3.3555,0.0,-3.5173,-3.6646,-3.7623,-3.8558,-3.9595,-4.0525,-4.1158,-4.132,-4.2123,-4.2843,-4.3297,-4.4149,-4.4647,-4.4647,-4.5048,-4.5317,-4.5348,-4.5369,-4.5399,-4.5409,-4.539,-4.54,-4.54,-4.54,-4.5409,-4.5409,-4.538,-4.5351,-4.5341,-4.532,-4.53,-4.53,-4.526,-4.501,-4.4647,-4.4697,-4.4489,-4.4154,-4.4192,-4.4006,-4.3767,-4.4275,-4.4442,-4.4454,-4.4491,-4.452,-4.4483,-4.4072,-4.3686,-4.3279,-4.2869,-4.2169,-4.1507,-4.1538,-4.1267,-4.0951,-4.0954,-4.0971,-4.1007,-4.0999,-4.1002,-4.1009,-4.1046,-4.1049,-4.1049,-4.1049,-4.1049,-4.1049,-4.1049,-4.1049,-4.1055,-4.105,-4.1424,-4.1997,-4.284,-4.3292,-4.3715,-4.4118,-4.334,-4.2593,-4.209,-4.119,-4.064,-4.0605,-4.05,-4.0219,-3.971,-3.9282,-3.8633,-3.7766,-3.7364,-3.6697,-3.5793,-3.5793,-3.5583,-3.5209,-3.53,-3.54,0.0,0.0,0.0,0.0,0.0,0.0,0.0,-3.0222,-3.1211,-3.1869,-3.2458,-3.3296,-3.4734,-3.5399,-3.6266,-3.7828,-3.8284,-3.9033,-4.074,-4.1163,-4.1415,-4.1718,-4.3011,-4.3953,-4.4111,-4.4824,-4.5286,-4.5286,-4.5297,-4.5307,-4.5307,-4.5348,-4.5388,-4.5388,-4.537,-4.5371,-4.5371,-4.537,-4.5388,-4.5388,-4.5317,-4.5286,-4.5286,-4.5203,-4.5181,-4.5181,-4.5125,-4.5103,-4.5114,-4.517,-4.5256,-4.5359,-4.5398,-4.5036,-4.4611,-4.5372,-4.5684,-4.5709,-4.577,-4.5781,-4.5699,-4.5032,-4.473,-4.4466,-4.3776,-4.2987,-4.2346,-4.2352,-4.1768,-4.1135,-4.1136,-4.1043,-4.0954,-4.0975,-4.0984,-4.0984,-4.0992,-4.0996,-4.0996,-4.0996,-4.0996,-4.0992,-4.0972,-4.1124,-4.1233,-4.125,-4.1857,-4.2661,-4.3672,-4.437,-4.4832,-4.4995,-4.4054,-4.2942,-4.1822,-4.1031,-4.0565,-4.0492,-4.043,-4.0362,-4.0298,-3.9613,-3.9127,-3.8909,-3.8261,-3.7471,-3.6558,-3.6387,-3.5968,-3.5321,-3.5228,-3.5242,-2.7423,-2.8018,-2.8695,-2.8813,-2.9518,-3.0176,0.0,-3.11,-3.1887,-3.1977,-3.3346,-3.4615,-3.4865,-3.6278,-3.7558,-3.7955,-3.873,-3.9651,-4.076,-4.1581,-4.239,-4.3238,-4.3623,-4.4114,-4.4893,-4.5113,-4.5203,-4.5203,-4.5275,-4.5307,-4.5307,-4.5307,-4.5307,-4.5307,-4.5317,-4.5298,-4.5298,-4.5317,-4.5307,-4.5307,-4.5235,-4.5203,-4.5203,-4.5148,-4.5114,-4.5114,-4.5103,-4.5103,-4.5114,-4.517,-4.5203,-4.5224,-4.5348,-4.5342,-4.5304,-4.5456,-4.5594,-4.5709,-4.5719,-4.5758,-4.5795,-4.5696,-4.5181,-4.4588,-4.4486,-4.384,-4.3175,-4.3238,-4.2623,-4.197,-4.1975,-4.1399,-4.0833,-4.0903,-4.0917,-4.0926,-4.0988,-4.0996,-4.0996,-4.0996,-4.0996,-4.0988,-4.0913,-4.155,-4.208,-4.2148,-4.2249,-4.2855,-4.438,-4.4661,-4.4971,-4.5691,-4.4356,-4.2686,-4.0905,-4.0656,-4.0554,-4.0413,-4.0396,-4.0372,-4.0301,-4.0158,-3.971,-3.8928,-3.8756,-3.8271,-3.7452,-3.6691,-3.6253,-3.6158,-3.5444,-3.5162,-2.8852,-2.9239,-2.9626,-2.9671,-3.0378,-3.1069,-3.1146,-3.1921,-3.279,-3.3337,-3.4174,-3.5108,-3.6113,-3.7069,-3.7914,-3.8539,-3.9456,-4.0448,-4.1405,-4.2309,-4.3246,-4.4197,-4.4354,-4.4559,-4.5007,-4.5103,-4.5148,-4.5148,-4.517,-4.5181,-4.5181,-4.5181,-4.5181,-4.5181,-4.5181,-4.5181,-4.5181,-4.5181,-4.5181,-4.5181,-4.5159,-4.5148,-4.5148,-4.5061,-4.5014,-4.4979,-4.4979,-4.501,-4.5038,-4.5061,-4.5136,-4.5203,-4.5265,-4.5319,-4.5409,-4.5476,-4.5568,-4.5648,-4.569,-4.5719,-4.5758,-4.5795,-4.5573,-4.5304,-4.5298,-4.4718,-4.406,-4.4092,-4.3472,-4.2794,-4.2794,-4.2553,-4.2183,-4.1706,-4.1595,-4.1465,-4.0985,-4.0874,-4.0874,-4.0874,-4.1281,-4.1626,-4.1597,-4.231,-4.3091,-4.3626,-4.3704,-4.3933,-4.4608,-4.5113,-4.5148,-4.4466,-4.373,-4.2567,-4.0752,-4.0558,-4.0499,-4.0415,-4.0362,-4.0317,-4.031,-4.0244,-4.0015,-3.9613,-3.9526,-3.9086,-3.8239,-3.7878,-3.7442,-3.6929,-3.6141,-3.5817,-2.9955,-3.0259,-3.0563,-3.0578,-3.1288,-3.1983,-3.2043,-3.2791,-3.3684,-3.4359,-3.5009,-3.5823,-3.7052,-3.7684,-3.827,-3.8952,-3.9718,-4.0632,-4.1809,-4.2564,-4.3446,-4.4606,-4.4789,-4.4833,-4.495,-4.5014,-4.5061,-4.5061,-4.5091,-4.5103,-4.5103,-4.5103,-4.5103,-4.5103,-4.5103,-4.5103,-4.5103,-4.5103,-4.5103,-4.5103,-4.5091,-4.5061,-4.508,-4.4991,-4.4962,-4.4895,-4.4895,-4.4919,-4.4967,-4.4979,-4.508,-4.517,-4.5192,-4.5286,-4.5418,-4.5448,-4.5513,-4.5586,-4.5665,-4.5698,-4.5711,-4.5758,-4.5769,-4.5771,-4.5771,-4.5365,-4.4921,-4.4928,-4.4291,-4.3641,-4.3647,-4.3511,-4.322,-4.2573,-4.2431,-4.2251,-4.1623,-4.1482,-4.1496,-4.1496,-4.1999,-4.2439,-4.2413,-4.3124,-4.3918,-4.4531,-4.4821,-4.4995,-4.504,-4.5531,-4.5209,-4.3465,-4.3202,-4.2475,-4.0742,-4.0531,-4.0466,-4.0388,-4.0353,-4.0299,-4.0272,-4.0215,-4.0147,-4.0067,-4.0015,-3.9669,-3.902,-3.8782,-3.8365,-3.7742,-3.6947,-3.6463,-3.0182,-3.0826,-3.1489,-3.1533,-3.2214,-3.288,-3.2961,-3.3746,-3.4467,-3.4501,-3.5898,-3.7143,-3.7197,-3.8113,-3.8888,-3.8979,-3.9138,-3.9879,-4.1654,-4.1991,-4.2677,-4.4404,-4.4725,-4.4796,0.0,-4.4938,-4.4991,-4.4991,-4.5049,-4.5103,-4.5103,-4.5103,-4.5103,-4.5103,-4.5103,-4.5103,-4.5103,-4.5103,-4.5103,-4.5103,-4.5026,-4.4991,-4.4991,-4.4931,-4.4895,-4.4895,-4.4895,-4.4895,-4.4907,-4.4967,-4.5045,-4.5114,-4.517,-4.5286,-4.5389,-4.541,-4.5457,-4.5513,-4.5648,-4.5701,-4.5709,-4.5692,-4.5708,-4.5708,-4.5708,-4.5688,-4.5677,-4.5761,-4.5143,-4.4474,-4.4548,-4.3924,-4.3299,-4.3273,-4.3254,-4.3253,-4.3221,-4.3221,-4.3214,-4.3214,-4.3253,-4.3246,-4.318,-4.3887,-4.4452,-4.4407,-4.5129,-4.5723,-4.5848,-4.5838,-4.5143,-4.338,-4.3142,-4.2418,-4.0742,-4.0531,-4.0466,-4.0388,-4.0353,-4.0262,-4.0206,-4.0147,-4.0067,-3.9996,-3.9933,-3.9881,-3.9862,-3.9012,-3.8626,-3.8633,-3.7688,-3.6885,-3.1895,-3.2168,-3.2428,-3.2507,-3.2782,-3.3073,-3.3168,-3.3463,-3.4029,-3.5123,-3.5911,-3.6723,-3.7799,-3.8453,-3.8866,-3.8921,-3.9527,-4.0412,-4.1591,-4.237,-4.3235,-4.4411,-4.4605,-4.4667,-4.4738,0.0,0.0,-4.4931,-4.4943,-4.4955,-4.4955,-4.4955,-4.4955,-4.4955,-4.4955,-4.4955,-4.4955,-4.4955,-4.4955,-4.4955,-4.4943,-4.4931,-4.4931,-4.4907,-4.4895,-4.4895,-4.4895,-4.4895,-4.4895,-4.4919,-4.4991,-4.5103,-4.5125,-4.5233,-4.5338,-4.5371,-4.5419,-4.5448,-4.5586,-4.5657,-4.5701,-4.5698,-4.5703,-4.5708,-4.5708,-4.5708,-4.5708,-4.5723,-4.5511,-4.5299,-4.5314,-4.5109,-4.4742,-4.417,-4.4028,-4.3885,-4.3352,-4.3229,-4.3241,-4.3241,-4.3665,-4.4025,-4.3998,-4.4712,-4.5291,-4.5275,-4.5507,-4.5723,-4.5761,-4.5283,-4.448,-4.3258,-4.2638,-4.1817,-4.0627,-4.0466,-4.0415,-4.0334,-4.0299,-4.0263,-4.0206,-4.0137,-4.0067,-3.9996,-3.9881,-3.9826,-3.9826,-3.9494,-3.935,-3.9335,-3.8482,-3.7964,-3.2854,-3.2916,-3.2995,-3.3026,-3.3104,-3.3198,-3.3277,-3.3542,-3.4075,-3.5152,-3.5693,-3.6383,-3.7726,-3.8169,-3.846,-3.8811,-3.9441,-4.0313,-4.1496,-4.2244,-4.3105,-4.4308,-4.451,-4.4592,-4.4659,-4.4757,0.0,-4.4858,-4.4858,-4.487,-4.4895,-4.487,-4.4858,-4.4858,-4.4833,-4.4821,-4.4821,-4.4821,-4.4821,-4.4821,-4.4821,-4.4821,-4.4821,-4.4821,-4.4833,-4.4858,-4.4858,-4.487,-4.4895,-4.4895,-4.4955,-4.508,-4.5091,-4.517,-4.5286,-4.538,-4.541,-4.5419,-4.5559,-4.5631,-4.5657,-4.5657,-4.5654,-4.566,-4.566,-4.566,-4.566,-4.5695,-4.5703,-4.5703,-4.57,-4.5708,-4.5573,-4.5005,-4.4839,-4.4688,-4.4168,-4.402,-4.3984,-4.3984,-4.4408,-4.4754,-4.4754,-4.5225,-4.559,-4.559,-4.559,-4.5627,-4.5695,-4.499,-4.4106,-4.3192,-4.2356,-4.1485,-4.0587,-4.0441,-4.037,-4.0307,-4.0281,-4.0234,-4.0166,-4.0098,-4.0036,-3.9965,-3.9848,-3.9804,-3.9804,-3.9731,-3.9696,-3.9701,-3.918,-3.8765,-3.3028,-3.3073,-3.3117,-3.3117,-3.3214,-3.3307,-3.331,-3.393,-3.4552,-3.4591,-3.5263,-3.6103,-3.6981,-3.7336,-3.7779,-3.8608,-3.8888,-3.9596,-4.1297,-4.1626,-4.2356,-4.4106,-4.4421,-4.4528,-4.4578,-4.4646,0.0,-4.477,0.0,-4.4821,-4.4883,-4.4821,-4.4783,-4.4783,-4.4719,-4.4712,-4.4712,-4.4712,-4.4712,-4.4712,-4.4712,-4.4712,-4.4712,-4.4712,-4.4719,-4.4802,-4.4815,-4.4852,-4.4914,-4.4895,-4.4931,-4.5022,-4.5061,-4.5148,-4.5213,-4.5348,-4.54,-4.5419,-4.5559,-4.5594,-4.5594,-4.5594,-4.5594,-4.5594,-4.5594,-4.5594,-4.5603,-4.5684,-4.5701,-4.569,-4.5692,-4.57,-4.57,-4.57,-4.5635,-4.5586,-4.5586,-4.5495,-4.54,-4.54,-4.54,-4.54,-4.54,-4.54,-4.54,-4.54,-4.54,-4.5476,-4.5657,-4.4903,-4.4012,-4.3181,-4.2269,-4.1388,-4.0559,-4.0432,-4.037,-4.0307,-4.0234,-4.0176,-4.0087,-4.0046,-3.9965,-3.99,-3.9826,-3.9792,-3.9792,-3.9734,-3.9698,-3.9689,-3.9698,-3.9296,-3.3259,-3.3319,-3.3334,-3.3375,-3.3419,-3.3437,-3.3396,-3.3559,-3.3882,-3.448,-3.4827,-3.5281,-3.6143,-3.6921,-3.7521,-3.7857,-3.8493,-3.932,-4.0411,-4.121,-4.2089,-4.3158,-4.3965,-4.4426,-4.444,-4.451,-4.4578,0.0,-4.4699,-4.4719,-4.4764,-4.4719,-4.4738,-4.4738,-4.4712,-4.4712,-4.4712,-4.4712,-4.4712,-4.4712,-4.4712,-4.4712,-4.4712,-4.4712,-4.4712,-4.4738,-4.4789,-4.4808,-4.4821,-4.487,-4.4931,-4.5022,-4.5061,-4.5148,-4.5213,-4.5348,-4.5399,-4.54,-4.5505,-4.5559,-4.5594,-4.5594,-4.5594,-4.5594,-4.5594,-4.5594,-4.5594,-4.5622,-4.5631,-4.5631,-4.5629,-4.5584,-4.5558,-4.5558,-4.5513,-4.5448,-4.5448,-4.5419,-4.54,-4.54,-4.54,-4.54,-4.54,-4.54,-4.54,-4.54,-4.54,-4.5419,-4.5476,-4.4199,-4.3192,-4.2972,-4.1639,-4.0654,-4.037,-4.0334,-4.0317,-4.031,-4.0234,-4.0176,-4.0087,-4.0046,-3.9943,-3.9826,-3.9751,-3.9743,-3.9722,-3.965,-3.9645,-3.9638,-3.9645,-3.9532,-3.3884,-3.3749,-3.3582,-3.3971,-3.3775,-3.3495,-3.3452,-3.3408,-3.3538,-3.3991,-3.4108,-3.4403,-3.5275,-3.5878,-3.653,-3.7382,-3.7963,-3.8752,-3.9971,-4.1011,-4.1932,-4.2805,-4.3733,-4.4329,-4.434,-4.443,-4.4468,0.0,-4.4605,-4.4672,-4.4699,-4.4672,-4.4659,-4.4659,-4.4632,-4.4605,-4.4605,-4.4605,-4.4605,-4.4605,-4.4605,-4.4605,-4.4605,-4.4605,-4.4632,-4.4659,0.0,-4.4751,-4.4796,-4.4833,-4.4914,-4.4955,-4.5026,-4.5103,-4.517,-4.5256,-4.5348,-4.5418,-4.5438,-4.5486,-4.5513,-4.5577,-4.5594,-4.5594,-4.5594,-4.5594,-4.5594,-4.5594,-4.5577,-4.5559,-4.5559,-4.5504,-4.5467,-4.5467,-4.5429,-4.539,-4.539,-4.537,-4.5351,-4.532,-4.5281,-4.527,-4.532,-4.532,-4.533,-4.5351,-4.5361,-4.5217,-4.4834,-4.3685,-4.2763,-4.2418,-4.1201,-4.037,-4.0307,-4.0307,-4.0299,-4.0263,-4.0186,-4.0137,-4.0057,-3.9965,-3.987,-3.9804,-3.9724,-3.9691,-3.9693,-3.9645,-3.9589,-3.9589,-3.9589,-3.9589,-3.4458,-3.4144,-3.3783,-3.4473,-3.4087,-3.3506,-3.3491,-3.3452,-3.3393,-3.3393,-3.3393,-3.364,-3.44,-3.4688,-3.5327,-3.697,-3.7434,-3.814,-3.9708,-4.0744,-4.1664,-4.2594,-4.3495,-4.4099,-4.427,-4.4358,-4.4383,-4.4383,-4.4496,-4.4592,-4.4672,-4.4619,-4.4578,-4.4578,-4.4542,-4.4501,-4.4501,-4.4501,-4.4501,-4.4501,-4.4501,-4.4501,-4.4501,-4.4501,-4.4524,-4.4578,0.0,0.0,-4.477,-4.4783,-4.4833,-4.4883,-4.4967,-4.5045,-4.5114,-4.517,-4.5286,-4.5398,-4.5398,-4.54,-4.541,-4.5541,-4.5577,-4.5577,-4.5577,-4.5577,-4.5577,-4.5577,-4.5522,-4.5495,-4.5495,-4.5438,-4.539,-4.539,-4.539,-4.5369,-4.5388,-4.5317,-4.5265,-4.5192,-4.5148,-4.5125,-4.5181,-4.5181,-4.5203,-4.5256,-4.5256,-4.4913,-4.3928,-4.3264,-4.2583,-4.1759,-4.0888,-4.0353,-4.0289,-4.0289,-4.0272,-4.0196,-4.0108,-4.0057,-3.9986,-3.9859,-3.9792,-3.98,-3.9734,-3.9693,-3.9681,-3.9633,-3.9589,-3.9589,-3.9589,-3.9589,-3.3821,-3.3794,-3.3721,-3.3867,-3.3738,-3.3563,-3.3506,-3.3452,-3.3393,-3.3393,-3.3393,-3.3459,-3.3677,-3.4309,-3.5126,-3.6168,-3.7033,-3.7941,-3.8895,-3.9826,-4.0748,-4.163,-4.2564,-4.3416,-4.414,-4.4289,-4.4314,0.0,0.0,-4.4416,-4.4542,-4.451,-4.4528,-4.4528,-4.4515,-4.4501,-4.4501,-4.4501,-4.4501,-4.4501,-4.4501,-4.4501,-4.4501,-4.4501,-4.4515,-4.4528,0.0,0.0,-4.4646,-4.4745,-4.4815,-4.4821,-4.4943,-4.5045,-4.5114,-4.517,-4.5254,-4.5328,-4.5388,-4.5389,-4.5409,-4.5429,-4.5429,-4.5429,-4.5429,-4.5429,-4.5429,-4.5429,-4.5429,-4.5419,-4.5419,-4.5419,-4.5399,-4.5399,-4.5359,-4.5307,-4.5254,-4.5181,-4.5136,-4.5125,-4.5114,-4.5103,-4.5114,-4.5125,-4.5125,-4.5136,-4.5136,-4.4584,-4.3041,-4.283,-4.2498,-4.1619,-4.0788,-4.0291,-4.0225,-4.0225,-4.0196,-4.0127,-4.0057,-3.9986,-3.9922,-3.9837,-3.9777,-3.971,-3.9705,-3.9669,-3.962,-3.962,-3.9589,-3.9589,-3.9589,-3.9589,-3.4238,-3.4064,-3.3844,-3.4284,-3.4,-3.3591,-3.3563,-3.3481,-3.3393,-3.3393,-3.3393,-3.3408,-3.3437,-3.3833,-3.4397,-3.5287,-3.6212,-3.714,-3.8055,-3.929,-4.0455,-4.1381,-4.2269,-4.3144,-4.4011,-4.418,-4.4259,-4.4259,0.0,-4.4329,-4.4387,-4.4401,-4.4401,-4.4401,-4.4401,-4.4401,-4.4401,-4.4401,-4.4401,-4.4401,-4.4401,-4.4401,-4.4401,-4.4401,-4.4416,-4.444,-4.4482,0.0,-4.4605,-4.4672,-4.4751,-4.4815,-4.4858,-4.4955,-4.5038,-4.5072,-4.5159,-4.5246,-4.5286,-4.5317,-4.5348,-4.535,-4.5361,-4.54,-4.54,-4.54,-4.54,-4.54,-4.541,-4.54,-4.54,-4.536,-4.5338,-4.5307,-4.5235,-4.5181,-4.5159,-4.5103,-4.5057,-4.5057,-4.5014,-4.5022,-4.5038,-4.5057,-4.5068,-4.5084,-4.5103,-4.4494,-4.283,-4.2663,-4.2198,-4.092,-4.0434,-4.0176,-4.0157,-4.0157,-4.0127,-4.0057,-3.9994,-3.9922,-3.9837,-3.9777,-3.9734,-3.9693,-3.9633,-3.9583,-3.9546,-3.9502,-3.9508,-3.9508,-3.9508,-3.9508,-3.455,-3.427,-3.3954,-3.4568,-3.416,-3.355,-3.3372,-3.3241,-3.3085,-3.2922,-3.2886,-3.294,-3.3103,-3.3198,-3.3575,-3.4626,-3.552,-3.645,-3.7441,-3.8829,-4.0105,-4.1058,-4.1884,-4.2746,-4.3624,-4.3962,-4.4138,-4.4138,0.0,0.0,-4.43,-4.43,-4.43,-4.43,-4.43,-4.43,-4.43,-4.43,-4.43,-4.43,-4.43,-4.43,-4.43,-4.43,-4.4329,-4.4368,-4.4397,0.0,0.0,-4.4592,-4.4659,-4.4745,-4.4783,-4.487,-4.4967,-4.4991,-4.508,-4.5181,-4.5181,-4.5203,-4.5265,-4.5265,-4.53,-4.5371,-4.5371,-4.5371,-4.539,-4.5361,-4.536,-4.5348,-4.5338,-4.5297,-4.5235,-4.5192,-4.5125,-4.508,-4.508,-4.5033,-4.4986,-4.4986,-4.495,-4.4907,-4.4967,-4.4986,-4.501,-4.5057,-4.4916,-4.427,-4.2748,-4.2406,-4.1721,-4.0228,-4.0077,-4.0087,-4.0077,-4.0057,-4.0036,-3.9965,-3.99,-3.9834,-3.9789,-3.9691,-3.965,-3.9657,-3.9533,-3.9482,-3.9482,-3.9431,-3.9405,-3.9405,-3.9405,-3.9405,-3.3899,-3.3862,-3.3793,-3.3817,-3.3698,-3.3391,-3.2592,-3.2345,-3.2089,-3.1379,-3.1234,-3.1451,-3.218,-3.2377,-3.292,-3.4535,-3.552,-3.6435,-3.7382,-3.832,-3.9212,-4.0053,-4.0908,-4.1767,-4.2651,-4.3474,-4.3931,-4.3931,0.0,0.0,-4.4285,-4.43,-4.43,-4.43,-4.43,-4.43,-4.43,-4.43,-4.43,-4.43,-4.43,-4.43,-4.43,-4.43,-4.43,-4.4314,0.0,0.0,0.0,-4.4551,-4.4605,-4.4632,-4.4745,-4.4833,-4.4907,-4.4986,-4.5057,-4.5114,-4.5114,-4.5114,-4.5125,-4.5125,-4.5203,-4.5317,-4.5317,-4.5317,-4.5307,-4.5235,-4.5213,-4.5203,-4.5148,-4.5125,-4.5125,-4.5114,-4.5068,-4.5003,-4.5003,-4.4955,-4.4907,-4.4907,-4.4895,-4.4895,-4.4907,-4.4907,-4.4907,-4.4907,-4.4301,-4.3485,-4.2538,-4.1779,-4.0964,-4.0025,-4.0026,-4.0067,-4.0007,-3.9954,-3.9889,-3.9826,-3.9758,-3.9727,-3.9717,-3.9588,-3.9527,-3.952,-3.9444,-3.9418,-3.9418,-3.9405,-3.9405,-3.9405,-3.9405,-3.9405,-3.3671,-3.3671,-3.3671,-3.3661,-3.3227,-3.2734,-3.2379,-3.1873,-3.1397,-3.1071,-3.0998,-3.1107,-3.1433,-3.19,-3.2482,-3.317,-3.444,-3.5626,-3.6523,-3.7437,-3.8523,-3.9838,-4.0311,-4.1077,-4.2453,-4.291,-4.3333,-4.3798,0.0,0.0,-4.3995,-4.407,-4.4131,-4.4131,-4.4131,-4.4131,-4.4131,-4.4131,-4.4131,-4.4131,-4.4131,-4.4131,-4.4131,-4.4131,-4.4162,-4.4244,0.0,0.0,0.0,-4.444,-4.4496,-4.4537,-4.4646,-4.4725,-4.4802,-4.4846,-4.4919,-4.4998,-4.5033,-4.5068,-4.5103,-4.5103,-4.5136,-4.5181,-4.5181,-4.5181,-4.517,-4.5148,-4.5148,-4.5136,-4.5114,-4.508,-4.5045,-4.5045,-4.4998,-4.4931,-4.4931,-4.4919,-4.4895,-4.4895,-4.4895,-4.4895,-4.4895,-4.4895,-4.4883,-4.4852,-4.4164,-4.3319,-4.2401,-4.1576,-4.0745,-3.9864,-3.9848,-3.9911,-3.9881,-3.9834,-3.9758,-3.9735,-3.9635,-3.9582,-3.9588,-3.9489,-3.9432,-3.9444,-3.9328,-3.9288,-3.9288,-3.9229,-3.9215,-3.9215,-3.9215,-3.9215,-3.324,-3.3423,-3.355,-3.3285,-3.2738,-3.2137,-3.1637,-3.1039,-3.0514,-3.0279,-3.0243,-3.0315,-3.0577,-3.1265,-3.1926,-3.2242,-3.3694,-3.4987,-3.563,-3.6725,-3.79,-3.9096,-3.9663,-4.0449,-4.1673,-4.2258,-4.2883,0.0,0.0,0.0,0.0,-4.3899,-4.3945,-4.3945,-4.3945,-4.3945,-4.3945,-4.3945,-4.3945,-4.3945,-4.3945,-4.3945,-4.3945,-4.3958,-4.4023,-4.4104,0.0,0.0,0.0,-4.4344,-4.4416,-4.4487,-4.4537,-4.4605,-4.4685,-4.4751,-4.4796,-4.4846,-4.4883,-4.4931,-4.4979,-4.4979,-4.4979,-4.4979,-4.4979,-4.5045,-4.5103,-4.508,-4.5068,-4.5045,-4.5045,-4.501,-4.4967,-4.4967,-4.4931,-4.4895,-4.4895,-4.4895,-4.4895,-4.4895,-4.4883,-4.4858,-4.4858,-4.4846,-4.4821,-4.4789,-4.3863,-4.2944,-4.229,-4.1278,-4.038,-3.9776,-3.9743,-3.9777,-3.977,-3.9731,-3.9684,-3.9635,-3.9557,-3.9496,-3.9471,-3.9393,-3.9346,-3.9346,-3.9229,-3.917,-3.917,-3.9129,-3.9101,-3.9101,-3.9101,-3.9101,-3.2415,-3.2985,-3.3391,-3.2538,-3.2268,-3.1767,-3.0107,-2.9679,-2.9391,-2.8591,-2.8429,-2.8689,-2.9543,-3.0369,-3.1219,-3.2151,-3.3651,-3.4717,-3.4805,-3.6303,-3.7406,-3.7424,-3.8896,-3.9916,-3.9934,-4.1432,-4.2799,0.0,0.0,0.0,0.0,-4.3804,-4.3804,-4.3804,-4.3804,-4.3804,-4.3804,-4.3804,-4.3804,-4.3804,-4.3804,-4.3804,-4.3804,-4.3867,-4.3897,0.0,0.0,0.0,0.0,-4.427,-4.4344,-4.4397,-4.4468,-4.4537,-4.4605,-4.4685,-4.4712,-4.4712,-4.4712,-4.4712,-4.4693,-4.4693,-4.4693,-4.4693,-4.4693,-4.4883,-4.5091,-4.5014,-4.4943,-4.4895,-4.4895,-4.4895,-4.4895,-4.4895,-4.4895,-4.4895,-4.4895,-4.4895,-4.4895,-4.4895,-4.4846,-4.4796,-4.4796,-4.4751,-4.4712,-4.4712,-4.3278,-4.2203,-4.2203,-4.0738,-3.972,-3.9701,-3.971,-3.9698,-3.9689,-3.971,-3.9631,-3.9514,-3.9496,-3.9469,-3.9386,-3.9269,-3.9197,-3.9197,-3.9142,-3.9101,-3.9101,-3.9101,-3.9101,-3.9101,-3.9101,-3.9101,-3.1309,-3.149,-3.162,-3.1353,-3.0856,-3.0287,-2.9755,-2.9188,-2.8712,-2.8447,-2.8411,-2.8483,-2.8761,-2.9499,-3.0365,-3.1215,-3.2309,-3.3447,-3.4568,-3.572,-3.6672,-3.7317,-3.8878,-4.012,0.0,0.0,0.0,0.0,0.0,0.0,0.0,-4.3583,-4.3669,-4.3788,-4.3804,-4.3804,-4.3804,-4.3804,-4.3804,-4.3804,-4.3804,-4.3804,-4.3804,-4.382,0.0,0.0,0.0,0.0,0.0,-4.407,-4.4162,-4.4255,-4.4344,-4.4373,-4.4416,-4.451,-4.4551,-4.4578,-4.4672,-4.4712,-4.4712,-4.4712,-4.4712,-4.4712,-4.4712,-4.4745,-4.4821,-4.4796,-4.4808,-4.4821,-4.4821,-4.4877,-4.4895,-4.4895,-4.4895,-4.4895,-4.4895,-4.4858,-4.4821,-4.4821,-4.4789,-4.4719,-4.4719,-4.4706,-4.451,-4.3892,-4.2843,-4.1927,-4.1324,-4.0296,-3.9607,-3.9577,-3.9552,-3.9564,-3.9563,-3.9558,-3.9533,-3.9432,-3.9354,-3.9301,-3.9256,-3.917,-3.9129,-3.9129,-3.9078,-3.9036,-3.9036,-3.8993,-3.8964,-3.8964,-3.8964,-3.8964,-3.024,-3.0574,-3.0722,-3.0388,-2.9911,-2.9434,-2.9102,-2.8631,-2.8264,-2.8273,-2.8291,-2.8304,-2.834,-2.904,-2.9886,-3.0752,-3.1645,-3.2694,-3.4025,-3.5226,-3.6413,-3.7637,-3.8708,0.0,0.0,0.0,0.0,0.0,0.0,0.0,0.0,0.0,-4.3445,-4.3567,-4.3652,-4.3686,-4.3686,-4.3686,-4.3686,-4.3686,-4.3686,-4.3686,-4.3686,-4.3719,0.0,0.0,0.0,0.0,0.0,-4.3897,-4.3992,-4.4135,-4.4162,-4.4222,-4.4314,-4.4401,-4.443,-4.4444,-4.4524,-4.4551,-4.4551,-4.4551,-4.4551,-4.4551,-4.4578,-4.4646,-4.4712,-4.4712,-4.4738,-4.4757,-4.4757,-4.4783,-4.4821,-4.4846,-4.4858,-4.4858,-4.4858,-4.4821,-4.4783,-4.4776,-4.4712,-4.4659,-4.4659,-4.4646,-4.4355,-4.3487,-4.2602,-4.173,-4.0865,-4.0033,-3.952,-3.9469,-3.9457,-3.9451,-3.9389,-3.9432,-3.9412,-3.9328,-3.9242,-3.9183,-3.917,-3.9087,-3.9059,-3.9059,-3.8993,-3.895,-3.895,-3.8925,-3.891,-3.891,-3.891,-3.8892,0.0,-3.0028,-3.0409,-2.9603,-2.9354,-2.9101,-2.8273,-2.8042,0.0,-2.8085,-2.8099,-2.814,-2.8259,-2.8909,-2.9721,-3.0724,-3.1509,-3.2332,-3.327,-3.4845,-3.6518,-3.82,-3.8399,0.0,-3.9513,0.0,0.0,0.0,0.0,0.0,0.0,0.0,-4.3214,-4.3214,-4.3375,-4.348,-4.348,-4.348,-4.348,-4.348,-4.348,-4.348,-4.3479,-4.3548,0.0,0.0,0.0,0.0,0.0,-4.3788,-4.3849,-4.3989,-4.3989,-4.4101,-4.427,-4.4285,-4.4285,-4.4285,-4.43,-4.43,-4.43,-4.43,-4.43,-4.4314,-4.4368,-4.4524,-4.4685,-4.4667,-4.4699,-4.4699,-4.4699,-4.4699,-4.4725,-4.4789,-4.4783,-4.4783,-4.4783,-4.4783,-4.4776,-4.4693,-4.4632,-4.4592,-4.4592,-4.4542,-4.42,-4.3332,-4.2457,-4.1574,-4.0712,-3.9892,-3.9405,-3.9391,-3.9391,-3.9328,-3.9197,-3.9315,-3.9328,-3.9197,-3.9197,-3.917,-3.9101,-3.9036,-3.9011,-3.8979,-3.8939,-3.8896,-3.8896,-3.8896,-3.8896,-3.8896,-3.8896,-3.8844,-2.7929,0.0,-2.861,-2.8401,-2.8337,-2.8269,0.0,-2.8014,-2.7996,-2.8028,-2.8011,-2.8056,-2.814,-2.8338,-2.8997,-3.0507,-3.0945,-3.1614,-3.3109,-3.4815,-3.6505,-3.814,-3.8368,-3.8727,-3.9513,0.0,0.0,0.0,0.0,0.0,0.0,0.0,-4.3214,-4.3214,-4.3251,-4.3268,-4.3268,-4.3268,-4.3268,-4.3268,-4.3268,-4.3268,-4.3268,-4.3375,0.0,0.0,0.0,0.0,-4.3651,-4.3651,-4.3736,-4.3851,-4.3851,-4.3915,-4.3992,-4.4036,-4.415,-4.4229,-4.427,-4.43,-4.43,-4.43,-4.43,-4.43,-4.4314,-4.4383,-4.4482,-4.4524,-4.4578,-4.4619,-4.4619,-4.4659,-4.4693,-4.4725,-4.4706,-4.4706,-4.4706,-4.4685,-4.4646,-4.4632,-4.4565,-4.451,-4.451,-4.4473,-4.3924,-4.2444,-4.2001,-4.1305,-3.9898,-3.953,-3.936,-3.9256,-3.9242,-3.9197,-3.9129,-3.9215,-3.9215,-3.9129,-3.9129,-3.9087,-3.9021,-3.9007,-3.8983,-3.8921,-3.8866,-3.8792,-3.8735,-3.8735,-3.8735,-3.8735,-3.8735,-3.8735,-2.7,-2.7484,-2.785,-2.7824,-2.781,-2.781,-2.778,-2.7766,-2.7795,-2.785,-2.7864,-2.7893,-2.8025,-2.8415,-2.9126,-3.0427,-3.0983,-3.1972,-3.4009,-3.5112,-3.6313,-3.7973,-3.8186,-3.8401,0.0,0.0,0.0,0.0,0.0,0.0,0.0,0.0,-4.2919,-4.2919,-4.2919,-4.3013,-4.3214,-4.3214,-4.3214,-4.3214,-4.3214,-4.3214,-4.3214,-4.3287,0.0,0.0,0.0,0.0,-4.3497,-4.3497,-4.3601,-4.3719,-4.3719,-4.3769,-4.3851,-4.3881,-4.3947,-4.4029,-4.4058,-4.4089,-4.4116,-4.4147,-4.4162,-4.4177,-4.4244,-4.427,-4.4329,-4.443,-4.4496,-4.4551,-4.4551,-4.4578,-4.4619,-4.4646,-4.4659,-4.4546,-4.4169,-4.4086,-4.4027,-4.4019,-4.3951,-4.4027,-4.4383,-4.4064,-4.3311,-4.2043,-4.1483,-4.0751,-3.9482,-3.9288,-3.9215,-3.912,-3.912,-3.9073,-3.9003,-3.9031,-3.9064,-3.9045,-3.9036,-3.8993,-3.8968,-3.8921,-3.8881,-3.881,-3.878,-3.8735,-3.8707,-3.8707,-3.8707,-3.8707,-3.8707,-3.8707,-2.6303,-2.6949,-2.7582,-2.7602,-2.7587,-2.7572,-2.7511,-2.7496,-2.7524,-2.7642,-2.7672,-2.7716,-2.7925,-2.8652,-2.9523,-3.0413,-3.1356,-3.2793,-3.5151,-3.5491,-3.6134,-3.7786,-3.7966,0.0,0.0,0.0,0.0,0.0,0.0,0.0,0.0,0.0,0.0,-4.2609,-4.2609,-4.2747,-4.3123,-4.3142,-4.3123,-4.3142,-4.3142,-4.3142,-4.3142,-4.3178,0.0,0.0,0.0,0.0,-4.3358,-4.3358,-4.3464,-4.3583,-4.3583,-4.3651,-4.3771,-4.3771,-4.3788,-4.3804,-4.3804,-4.3853,-4.3899,-4.3958,-4.3989,-4.4005,-4.4135,-4.4184,-4.4229,-4.4344,-4.443,-4.4487,-4.4501,-4.4501,-4.4496,-4.4565,-4.4484,-4.4202,-4.3519,-4.3275,-4.3154,-4.3106,-4.3038,-4.3189,-4.3896,-4.3319,-4.2515,-4.1731,-4.0952,-4.0133,-3.9281,-3.9115,-3.9045,-3.8979,-3.8979,-3.895,-3.8892,-3.8896,-3.8925,-3.8983,-3.8939,-3.891,-3.8896,-3.8822,-3.8765,-3.8707,-3.8707,-3.8707,-3.8707,-3.8707,-3.8707,-3.8707,-3.8707,-3.8707,-2.58,-2.6538,-2.7168,-2.745,-2.7511,-2.7511,-2.7496,-2.7496,-2.7511,-2.7542,-2.7524,-2.7569,-2.7716,-2.8413,-2.9266,-3.0211,-3.1698,-3.3359,-3.516,-3.5476,-3.6101,-3.7718,0.0,0.0,0.0,0.0,0.0,0.0,0.0,0.0,0.0,0.0,0.0,-4.2609,-4.2609,-4.2629,-4.2689,-4.2804,-4.288,-4.2957,-4.2957,-4.2957,-4.2957,-4.3068,-4.3123,0.0,0.0,-4.3214,-4.3233,-4.3233,-4.3304,-4.3429,-4.3429,-4.3497,-4.3634,-4.3634,-4.3684,-4.3804,-4.3804,-4.3804,-4.3837,-4.3881,-4.3913,-4.3929,-4.4023,-4.4119,-4.4199,-4.4229,-4.4314,-4.4426,-4.4487,-4.4501,-4.4501,-4.4515,-4.4003,-4.3458,-4.334,-4.2685,-4.2139,-4.2125,-4.2071,-4.2048,-4.2179,-4.2034,-4.1623,-4.0822,-4.0434,-3.9944,-3.9133,-3.8964,-3.8921,-3.8925,-3.8925,-3.8925,-3.891,-3.8851,-3.8822,-3.8837,-3.8862,-3.8862,-3.8822,-3.875,-3.8723,-3.8707,-3.8707,-3.8707,-3.8707,-3.8707,-3.8707,-3.8707,-3.8707,-3.8707,-2.5053,-2.5975,-2.6875,-2.7038,-2.7152,-2.7215,-2.7215,-2.7215,-2.7247,-2.7324,-2.734,-2.7508,-2.8078,-2.8872,-2.9879,-3.127,-3.2194,-3.3322,-3.4957,-3.5239,-3.5897,0.0,0.0,0.0,0.0,0.0,0.0,0.0,0.0,0.0,0.0,0.0,0.0,0.0,-4.2331,-4.2409,-4.2528,-4.2606,-4.2667,-4.2747,-4.2747,-4.2747,-4.2747,-4.2804,-4.286,-4.2955,0.0,-4.3049,-4.3142,-4.3142,-4.3215,-4.3305,-4.3305,-4.334,-4.3392,-4.3463,-4.3549,-4.3634,-4.3667,-4.3684,-4.3719,-4.3818,-4.3853,-4.3851,-4.3929,-4.3976,-4.4058,-4.4169,-4.4255,-4.434,-4.4387,-4.4097,-4.3788,-4.3788,-4.3165,-4.2415,-4.1983,-4.1536,-4.1202,-4.1202,-4.1147,-4.1241,-4.1666,-4.1272,-4.0758,-4.0387,-3.9874,-3.9361,-3.8991,-3.8925,-3.8896,-3.8851,-3.8851,-3.8803,-3.868,-3.8667,-3.8667,-3.875,-3.878,-3.8747,-3.8634,-3.8606,-3.8559,-3.8546,-3.8546,-3.8546,-3.8546,-3.8546,-3.8562,-3.859,-3.859,-3.8331,-2.4394,-2.5391,-2.6438,-2.6607,-2.6792,-2.6942,-2.6958,-2.6992,-2.7058,-2.7342,-2.7408,-2.7697,-2.8636,-2.9531,-3.0657,-3.221,-3.2664,-3.3316,-3.4783,-3.519,-3.5883,0.0,0.0,0.0,0.0,0.0,0.0,0.0,0.0,0.0,0.0,0.0,0.0,0.0,-4.1973,-4.2181,-4.2382,-4.2382,-4.2465,-4.2609,-4.2609,-4.2609,-4.2609,-4.2609,-4.2649,-4.2745,-4.2783,-4.2898,-4.303,-4.3049,-4.3105,-4.3178,-4.3178,-4.3196,-4.3214,-4.3323,-4.3394,-4.3427,-4.3513,-4.3566,-4.3583,-4.3703,-4.3753,-4.3769,-4.3851,-4.3735,-4.3619,-4.3794,-4.3755,-4.3703,-4.393,-4.3596,-4.31,-4.2913,-4.2234,-4.1429,-4.0811,-4.0464,-4.0261,-4.0261,-4.0211,-4.0347,-4.0956,-4.0418,-3.9889,-3.9889,-3.9313,-3.8881,-3.8851,-3.8837,-3.8773,-3.8713,-3.8716,-3.8652,-3.8476,-3.846,-3.8528,-3.8627,-3.8627,-3.8578,-3.8478,-3.8478,-3.8462,-3.8399,-3.8399,-3.8399,-3.8399,-3.8399,-3.843,-3.8478,-3.8478,-3.7997,-2.4041,-2.4844,-2.5665,-2.6352,-2.6623,-2.6758,-2.6876,-2.6909,-2.7113,-2.7878,-2.8049,-2.8322,-2.9265,-3.0196,-3.1167,-3.2248,-3.2985,-3.3794,-3.4854,0.0,0.0,0.0,0.0,0.0,0.0,0.0,0.0,0.0,0.0,0.0,0.0,0.0,0.0,0.0,0.0,-4.2026,-4.2026,-4.2026,-4.224,-4.2609,-4.2609,-4.2609,-4.2609,-4.2609,-4.2609,-4.2629,-4.2745,-4.2803,-4.2822,-4.2881,-4.2994,-4.3104,-4.3104,-4.3142,-4.3214,-4.3214,-4.3233,-4.3251,-4.3376,-4.3394,-4.3429,-4.3566,-4.3599,-4.3651,-4.3769,-4.3285,-4.2707,-4.2786,-4.2264,-4.1917,-4.286,-4.3048,-4.2824,-4.209,-4.1273,-4.0675,-4.0619,-3.9917,-3.9303,-3.9303,-3.9198,-3.9118,-3.9174,-3.9079,-3.8984,-3.8984,-3.8888,-3.8777,-3.8719,-3.8606,-3.851,-3.843,-3.8485,-3.8467,-3.8344,-3.8362,-3.8415,-3.8415,-3.8415,-3.8415,-3.8399,-3.8399,-3.8399,-3.8399,-3.8399,-3.8399,-3.8399,-3.8399,-3.8399,-3.8399,-3.8399,-3.8008,-2.3852,-2.4777,-2.5786,-2.6067,-2.617,-2.6294,-2.6572,-2.6977,-2.7382,-2.7774,-2.825,-2.8915,-2.988,-3.0833,-3.1582,-3.1984,-3.2752,-3.3629,-3.4508,0.0,0.0,0.0,0.0,0.0,0.0,0.0,0.0,0.0,0.0,0.0,0.0,0.0,0.0,0.0,0.0,-4.116,-4.1244,-4.1757,-4.209,-4.224,-4.224,-4.2243,-4.229,-4.229,-4.2389,-4.2546,-4.2586,-4.2645,-4.2668,-4.2785,-4.2879,-4.2936,-4.2956,-4.3031,-4.3142,-4.3142,-4.316,-4.3214,-4.3251,-4.3287,-4.3286,-4.3429,-4.3151,-4.2746,-4.2879,-4.2357,-4.1762,-4.1859,-4.1669,-4.1548,-4.2006,-4.1795,-4.1376,-4.1059,-4.0351,-3.9735,-3.9735,-3.9398,-3.9078,-3.9078,-3.8993,-3.8939,-3.8939,-3.8877,-3.8822,-3.878,-3.8667,-3.859,-3.8512,-3.8481,-3.843,-3.8399,-3.8387,-3.8322,-3.8183,-3.8152,-3.8119,-3.8088,-3.8269,-3.8385,-3.8338,-3.8338,-3.8322,-3.8272,-3.829,-3.829,-3.829,-3.829,-3.8289,-3.8338,-3.8338,-3.7676,-2.367,-2.4603,-2.562,-2.585,-2.5897,-2.602,-2.6522,-2.7045,-2.7601,-2.8178,-2.9014,-2.9839,-3.0532,-3.1215,-3.1707,0.0,-3.2722,-3.3684,0.0,0.0,0.0,0.0,0.0,0.0,0.0,0.0,0.0,0.0,0.0,0.0,0.0,0.0,0.0,0.0,0.0,-4.0243,-4.0574,-4.112,-4.1547,-4.1815,-4.1815,-4.1905,-4.2058,-4.2058,-4.2181,-4.2384,-4.2425,-4.2486,-4.2588,-4.2686,-4.2764,-4.2803,-4.2861,-4.2937,-4.303,-4.303,-4.3068,-4.3105,-4.316,-4.2996,-4.2796,-4.2921,-4.2408,-4.1785,-4.1866,-4.133,-4.0722,-4.0835,-4.0717,-4.0579,-4.0696,-4.0562,-4.0308,-4.0067,-3.9547,-3.912,-3.912,-3.9036,-3.8964,-3.8964,-3.8906,-3.8866,-3.8837,-3.8758,-3.8683,-3.8627,-3.8528,-3.8446,-3.8385,-3.8334,-3.8303,-3.8272,-3.8224,-3.8139,-3.8017,-3.7984,-3.7951,-3.7899,-3.8122,-3.8221,-3.8174,-3.8174,-3.8157,-3.8107,-3.8107,-3.8107,-3.8107,-3.8123,-3.8156,-3.8206,-3.7985,-3.7198,-2.3489,-2.4243,-2.498,-2.5701,-2.5897,-2.6077,-2.6746,-2.7116,-2.7732,-2.9287,-3.0448,-3.119,-3.119,-3.1346,-3.1519,-3.1596,-3.2999,0.0,0.0,0.0,0.0,0.0,0.0,0.0,0.0,0.0,0.0,0.0,0.0,0.0,0.0,0.0,0.0,0.0,0.0,0.0,-4.0083,-4.0117,-4.0545,-4.1403,-4.1403,-4.1622,-4.2005,-4.2005,-4.2051,-4.2103,-4.2246,-4.2366,-4.2503,-4.2568,-4.2686,-4.2803,-4.2803,-4.2842,-4.29,-4.29,-4.2882,-4.2901,-4.3049,-4.2559,-4.1905,-4.1958,-4.1445,-4.0788,-4.0788,-4.0241,-3.9602,-3.9664,-3.9213,-3.8704,-3.8777,-3.9441,-3.9889,-3.9095,-3.891,-3.891,-3.891,-3.891,-3.891,-3.891,-3.8833,-3.8777,-3.8723,-3.8593,-3.8478,-3.8415,-3.8399,-3.8385,-3.8289,-3.8188,-3.807,-3.8006,-3.7935,-3.7863,-3.7809,-3.7845,-3.7917,-3.7917,-3.7881,-3.7917,-3.7899,-3.7899,-3.7899,-3.7899,-3.7899,-3.7899,-3.7899,-3.7967,-3.8001,-3.7983,-3.7308,-3.6592,-2.3365,-2.4265,-2.5193,-2.5422,-2.5838,-2.6385,-2.7215,-2.76,-2.8247,-2.9914,-3.0562,-3.0892,-3.0972,-3.1151,-3.1288,-3.1327,-3.2727,0.0,0.0,0.0,0.0,0.0,0.0,0.0,0.0,0.0,0.0,0.0,0.0,0.0,0.0,0.0,0.0,0.0,0.0,0.0,-3.9317,-3.9839,-4.0483,-4.1255,-4.1255,-4.1475,-4.1862,-4.1862,-4.1905,-4.203,-4.2121,-4.2184,-4.2225,-4.2427,-4.2568,-4.2649,-4.2649,-4.2668,-4.2689,-4.2689,-4.2329,-4.186,-4.1992,-4.1523,-4.0872,-4.1033,-4.054,-3.9885,-3.9934,-3.9385,-3.8763,-3.8777,-3.8629,-3.8496,-3.851,-3.8708,-3.8896,-3.8903,-3.891,-3.891,-3.891,-3.884,-3.8765,-3.8765,-3.864,-3.8512,-3.8496,-3.8465,-3.8417,-3.8338,-3.8236,-3.8153,-3.8038,-3.7968,-3.7951,-3.7935,-3.7917,-3.7846,-3.7739,-3.7703,-3.7649,-3.7558,-3.7503,-3.7594,-3.7881,-3.7899,-3.7899,-3.7899,-3.7899,-3.7899,-3.7899,-3.7934,-3.7916,-3.7898,-3.7191,-3.6429,-2.3244,-2.4056,-2.4929,-2.5214,-2.5803,-2.657,-2.7666,-2.8357,-2.9103,-3.0157,-3.0506,-3.0651,-3.0733,-3.0932,0.0,-3.1072,0.0,0.0,0.0,0.0,0.0,0.0,0.0,0.0,0.0,0.0,0.0,0.0,0.0,0.0,0.0,0.0,0.0,0.0,0.0,0.0,-3.8404,-3.8855,-3.9601,-4.0688,-4.0688,-4.0999,-4.1565,-4.1626,-4.1714,-4.1858,-4.1991,-4.2079,-4.2086,-4.1963,-4.198,-4.2047,-4.1724,-4.1636,-4.1694,-4.1694,-4.1369,-4.0974,-4.1067,-4.0563,-3.9896,-4.0022,-3.9533,-3.8881,-3.8914,-3.8604,-3.8204,-3.8204,-3.8221,-3.8236,-3.8236,-3.8269,-3.835,-3.8618,-3.8698,-3.8698,-3.8698,-3.864,-3.8578,-3.8578,-3.8481,-3.8382,-3.8368,-3.832,-3.8252,-3.8188,-3.8087,-3.7967,-3.7846,-3.7828,-3.7793,-3.7703,-3.7703,-3.7667,-3.7558,-3.7539,-3.7483,-3.7354,-3.7298,-3.7373,-3.7649,-3.7667,-3.7667,-3.7667,-3.7667,-3.7667,-3.7703,-3.7739,-3.7649,-3.7379,-3.6638,-3.5878,-2.3097,-2.3717,-2.4348,-2.5083,-2.5831,-2.6741,-2.8089,-2.9216,-2.9995,-3.0124,-3.0338,-3.0485,-3.0485,-3.0692,-3.0871,0.0,0.0,0.0,0.0,0.0,0.0,0.0,0.0,0.0,0.0,0.0,0.0,0.0,0.0,0.0,0.0,0.0,0.0,0.0,0.0,0.0,-3.7452,-3.7452,-3.8242,0.0,-3.9749,-4.0181,-4.0977,-4.1248,-4.1418,-4.1499,-4.1774,-4.1871,-4.1816,-4.1141,-4.0978,-4.1069,-4.0353,-4.016,-4.0272,-4.0254,-4.0218,-4.0165,-4.0165,-3.9643,-3.8959,-3.8996,-3.851,-3.7899,-3.7899,-3.7899,-3.7899,-3.7899,-3.7951,-3.7984,-3.7984,-3.8035,-3.8136,-3.8302,-3.8366,-3.8366,-3.8366,-3.8366,-3.8366,-3.8366,-3.835,-3.8336,-3.8256,-3.8171,-3.8069,-3.7984,-3.7933,-3.7828,-3.7685,-3.7667,-3.7595,-3.7411,-3.7392,-3.7373,-3.7297,-3.735,-3.735,-3.7295,-3.7223,-3.7186,-3.7259,-3.7278,-3.7297,-3.7297,-3.7297,-3.7334,-3.7392,-3.7432,-3.7167,-3.6557,-3.5747,-3.5056,-2.2959,-2.3551,-2.4138,-2.489,-2.6041,-2.7227,-2.8102,-2.8984,-2.9659,-2.9848,-3.0087,-3.0253,-3.0253,-3.0443,-3.0589,0.0,0.0,0.0,0.0,0.0,0.0,0.0,0.0,0.0,0.0,0.0,0.0,0.0,0.0,0.0,0.0,0.0,0.0,0.0,0.0,-3.6417,-3.7187,-3.7187,-3.77,0.0,-3.8711,-3.8882,-3.9202,-4.0601,-4.1036,-4.0656,-4.082,-4.0615,-4.0137,-3.9977,-3.9926,-3.9969,-3.9905,-3.9873,-3.9912,-3.9971,-3.9615,-3.9133,-3.9191,-3.8671,-3.8008,-3.8115,-3.8043,-3.7899,-3.7899,-3.7899,-3.7899,-3.7899,-3.7916,-3.7916,-3.7916,-3.7916,-3.7951,-3.7985,-3.8087,-3.8152,-3.8152,-3.8118,-3.8086,-3.8086,-3.8036,-3.7985,-3.7986,-3.7969,-3.7898,-3.7774,-3.7739,-3.7685,-3.7503,-3.7449,-3.7429,-3.7334,-3.7316,-3.7316,-3.7297,-3.722,-3.7164,-3.7147,-3.6972,-3.6891,-3.6908,-3.7163,-3.7297,-3.7297,-3.7297,-3.7297,-3.7316,-3.6715,-3.6398,-3.6328,-3.5006,-3.4357,-2.2826,-2.3258,-2.3749,-2.5124,-2.6319,-2.7343,-2.804,-2.8828,-2.9418,-2.9538,-2.9804,-3.0022,-3.0081,-3.0253,0.0,0.0,0.0,0.0,0.0,0.0,0.0,0.0,0.0,0.0,0.0,0.0,0.0,0.0,0.0,0.0,0.0,0.0,0.0,0.0,-3.5888,-3.6137,-3.6573,-3.6573,-3.6994,-3.7797,-3.7797,-3.8014,-3.8527,-3.9586,-3.9926,-3.9734,-3.9841,-3.9722,-3.9441,-3.9111,-3.9009,-3.9033,-3.8738,-3.8598,-3.8615,-3.8636,-3.8407,-3.8106,-3.8127,-3.786,-3.7522,-3.7594,-3.7613,-3.7613,-3.7613,-3.7613,-3.7613,-3.7613,-3.7613,-3.7613,-3.7613,-3.7613,-3.7613,-3.7613,-3.781,-3.8002,-3.8002,-3.7985,-3.7986,-3.7968,-3.7898,-3.7845,-3.7899,-3.7828,-3.7703,-3.754,-3.7503,-3.7466,-3.7354,-3.7354,-3.7317,-3.7222,-3.7203,-3.7164,-3.7066,-3.7009,-3.695,-3.6911,-3.6791,-3.671,-3.6748,-3.6926,-3.7025,-3.7025,-3.7046,-3.6892,-3.6579,-3.623,-3.5721,-3.5101,-3.4336,-3.3849,-2.2587,-2.299,-2.3512,-2.5341,-2.6367,-2.7077,-2.774,-2.8487,-2.91,-2.9273,-2.9538,-2.9804,-2.993,-3.0038,0.0,0.0,0.0,0.0,0.0,0.0,0.0,0.0,0.0,0.0,0.0,0.0,0.0,0.0,0.0,0.0,0.0,0.0,-3.5644,-3.5773,-3.5773,-3.5817,-3.5932,-3.5932,-3.6256,-3.6887,-3.6893,-3.7285,-3.7985,-3.8237,-3.8499,-3.8755,-3.8845,-3.8881,-3.881,-3.8257,-3.8093,-3.8141,-3.7505,-3.7259,-3.7278,-3.7297,-3.7297,-3.7297,-3.7297,-3.7297,-3.7297,-3.7297,-3.7297,-3.7297,-3.7297,-3.7297,-3.7297,-3.7297,-3.7297,-3.7297,-3.7297,-3.7297,-3.7297,-3.7297,-3.7539,-3.7793,-3.7793,-3.7846,-3.7864,-3.7811,-3.7757,-3.7739,-3.7793,-3.7649,-3.7503,-3.7316,-3.7297,-3.7297,-3.7278,-3.7259,-3.7201,-3.7069,-3.7031,-3.697,-3.6809,-3.6788,-3.6748,-3.6702,-3.6629,-3.6609,-3.6664,-3.6643,-3.6623,-3.6623,-3.6728,-3.6444,-3.5754,-3.5744,-3.5046,-3.3757,-3.3701,-3.3377,-2.203,-2.2974,-2.3964,-2.4748,-2.5502,-2.623,-2.6901,-2.7583,-2.8334,-2.9116,-2.9434,-2.957,-2.972,0.0,0.0,0.0,0.0,0.0,0.0,0.0,0.0,0.0,0.0,0.0,0.0,0.0,0.0,0.0,0.0,0.0,0.0,-3.5571,-3.56,-3.5622,-3.5622,-3.5644,-3.5644,-3.5644,-3.5762,-3.597,-3.6085,-3.6202,-3.6327,-3.6496,-3.6991,-3.7789,-3.7916,-3.7614,-3.7039,-3.6954,-3.6963,-3.7029,-3.7042,-3.7087,-3.7147,-3.7259,-3.7297,-3.7297,-3.7297,-3.7297,-3.7297,-3.7297,-3.7297,-3.7297,-3.7297,-3.7297,-3.7297,-3.7297,-3.7297,-3.7297,-3.7297,-3.7297,-3.7297,-3.7297,-3.7334,-3.7372,-3.7372,-3.739,-3.739,-3.7372,-3.7372,-3.7372,-3.7372,-3.7353,-3.7334,-3.7297,-3.7297,-3.7259,-3.7147,-3.7087,-3.6987,-3.6851,-3.6788,-3.6745,-3.6722,-3.6705,-3.6722,-3.6702,-3.6585,-3.6523,-3.6523,-3.6423,-3.6343,-3.6343,-3.6585,-3.6322,-3.554,-3.4957,-3.4299,-3.353,-3.2948,-3.273,-2.1833,-2.2918,-2.3948,-2.4182,-2.5094,-2.5974,-2.6172,-2.7108,-2.8023,-2.8435,-2.8921,-2.9344,0.0,0.0,0.0,0.0,0.0,0.0,0.0,0.0,0.0,0.0,0.0,0.0,0.0,0.0,0.0,0.0,0.0,0.0,-3.54,-3.5429,-3.5435,-3.5435,-3.5435,-3.5458,-3.5543,-3.5543,-3.5594,-3.5706,-3.5822,-3.5905,-3.5905,-3.6036,-3.6358,-3.6835,-3.6988,-3.6898,-3.6602,-3.6681,-3.6722,-3.6745,-3.6806,-3.6849,-3.6888,-3.6946,-3.6965,-3.6965,-3.6965,-3.6965,-3.6965,-3.6965,-3.6965,-3.6965,-3.6965,-3.6965,-3.6965,-3.6965,-3.6965,-3.6965,-3.6965,-3.6965,-3.6965,-3.6965,-3.6965,-3.6965,-3.6965,-3.7106,-3.7242,-3.7242,-3.7279,-3.7259,-3.7143,-3.7124,-3.7085,-3.6985,-3.6965,-3.6946,-3.6888,-3.6849,-3.6806,-3.6745,-3.6722,-3.6681,-3.6602,-3.6602,-3.6558,-3.6471,-3.6391,-3.631,-3.6285,-3.6187,-3.5963,-3.5597,-3.5821,-3.5578,-3.4779,-3.4093,-3.3419,-3.2774,-3.2546,-3.2507,-2.1798,-2.2645,-2.3459,-2.3727,-2.4571,-2.5378,-2.5639,-2.6504,-2.7368,-2.7601,-2.825,-2.8869,0.0,0.0,0.0,0.0,0.0,0.0,0.0,0.0,0.0,0.0,0.0,0.0,0.0,0.0,0.0,0.0,0.0,0.0,-3.5245,-3.5268,-3.5291,-3.5291,-3.5291,-3.5354,-3.5446,-3.5469,-3.552,-3.5594,-3.5706,-3.5751,-3.5751,-3.5905,-3.6014,-3.6101,-3.6335,-3.6419,-3.644,-3.6561,-3.6623,-3.6643,-3.6643,-3.6681,-3.6702,-3.6702,-3.6702,-3.6702,-3.6702,-3.6702,-3.6702,-3.6702,-3.6702,-3.6702,-3.6702,-3.6702,-3.6702,-3.6702,-3.6702,-3.6702,-3.6702,-3.6702,-3.6702,-3.6702,-3.6702,-3.6719,-3.6702,-3.6891,-3.7071,-3.7071,-3.7106,-3.7085,-3.6948,-3.6928,-3.6869,-3.6722,-3.6702,-3.6702,-3.6702,-3.6643,-3.6602,-3.6602,-3.6561,-3.6478,-3.6377,-3.636,-3.6331,-3.6217,-3.6178,-3.614,-3.607,-3.5843,-3.5493,-3.4974,-3.4835,-3.4451,-3.3865,-3.3408,-3.2839,-3.2179,-3.2284,-3.2388,-2.1833,-2.2001,-2.2293,-2.3491,-2.3756,-2.4068,-2.5399,-2.5664,-2.5876,-2.6757,-2.7498,0.0,0.0,0.0,0.0,0.0,0.0,0.0,0.0,0.0,0.0,0.0,0.0,0.0,0.0,0.0,0.0,0.0,0.0,0.0,-3.5111,-3.5222,-3.5291,-3.5291,-3.5291,-3.5291,-3.5314,-3.5446,-3.5492,-3.5514,-3.5571,-3.5622,-3.5622,-3.5751,-3.5817,-3.5839,-3.6101,-3.6225,-3.6208,-3.6297,-3.6402,-3.6523,-3.6523,-3.6602,-3.6702,-3.6702,-3.6702,-3.6702,-3.6702,-3.6702,-3.6702,-3.6702,-3.6702,-3.6702,-3.6702,-3.6702,-3.6702,-3.6702,-3.6702,-3.6702,-3.6702,-3.6702,-3.6702,-3.6702,-3.6737,-3.6792,-3.6702,-3.6705,-3.6742,-3.6742,-3.6742,-3.6722,-3.6722,-3.6722,-3.6722,-3.6702,-3.6702,-3.6702,-3.6702,-3.6482,-3.6322,-3.6322,-3.6148,-3.6041,-3.6019,-3.6019,-3.6019,-3.6019,-3.6019,-3.5997,-3.6014,-3.5331,-3.4937,-3.4903,-3.3602,-3.2945,-3.2972,-3.3052,-3.2765,-3.2108,-3.2179,-3.2301,-2.1133,-2.1624,-2.2047,-2.2378,-2.3089,-2.3834,-2.426,-2.5061,-2.5806,-2.6172,-2.6849,0.0,0.0,0.0,0.0,0.0,0.0,0.0,0.0,0.0,0.0,0.0,0.0,0.0,0.0,0.0,0.0,0.0,0.0,0.0,-3.4257,-3.4303,-3.4343,-3.4343,-3.4792,-3.5088,-3.5175,-3.5291,-3.536,-3.536,-3.5475,-3.5543,-3.5543,-3.5639,-3.5667,-3.5667,-3.5861,-3.5993,-3.6062,-3.6105,-3.6148,-3.617,-3.617,-3.6212,-3.6251,-3.6251,-3.6251,-3.6251,-3.6251,-3.6251,-3.6251,-3.6251,-3.6251,-3.6251,-3.6251,-3.6251,-3.6272,-3.6335,-3.6374,-3.6395,-3.644,-3.6444,-3.6444,-3.6444,-3.6461,-3.6478,-3.6461,-3.6547,-3.6647,-3.6684,-3.6702,-3.6643,-3.6464,-3.6444,-3.6402,-3.6272,-3.6251,-3.6251,-3.6251,-3.617,-3.6105,-3.6105,-3.6041,-3.5997,-3.5997,-3.5997,-3.5971,-3.5956,-3.59,-3.5567,-3.4864,-3.472,-3.4236,-3.338,-3.2858,-3.2684,-3.2825,-3.2457,-3.2152,-3.1966,-3.209,-3.2197,-2.0543,-2.1117,-2.1655,-2.1771,-2.2456,-2.3202,-2.358,-2.4397,-2.5158,-2.5466,-2.6141,0.0,0.0,0.0,0.0,0.0,0.0,0.0,0.0,0.0,0.0,0.0,0.0,0.0,0.0,0.0,0.0,0.0,0.0,0.0,-3.3425,-3.3425,-3.3425,-3.3425,-3.4137,-3.4565,-3.4652,-3.5041,-3.5222,-3.5222,-3.5377,-3.5446,-3.5446,-3.5543,-3.5571,-3.5571,-3.5684,-3.5817,-3.5949,-3.5975,-3.5997,-3.5997,-3.5997,-3.5997,-3.5997,-3.5997,-3.5997,-3.5997,-3.5997,-3.5997,-3.5997,-3.5997,-3.5997,-3.5997,-3.5997,-3.5997,-3.6019,-3.6101,-3.6122,-3.6144,-3.6191,-3.6195,-3.6195,-3.6229,-3.6212,-3.6195,-3.6178,-3.6305,-3.6485,-3.652,-3.6499,-3.6398,-3.6233,-3.6195,-3.6152,-3.6019,-3.5954,-3.5932,-3.5932,-3.5866,-3.58,-3.58,-3.5778,-3.5773,-3.5773,-3.5773,-3.5627,-3.5357,-3.5284,-3.4834,-3.3864,-3.3717,-3.3242,-3.2364,-3.2167,-3.2151,-3.231,-3.1929,-3.1784,-3.1894,-3.1984,-3.209,0.0,0.0,0.0,-2.1784,-2.1853,-2.2075,-2.3444,-2.3662,-2.3826,-2.461,-2.5325,0.0,0.0,0.0,0.0,0.0,0.0,0.0,0.0,0.0,0.0,0.0,0.0,0.0,0.0,0.0,0.0,0.0,0.0,-3.2535,-3.2663,-3.2669,-3.2685,-3.2702,-3.3375,-3.3756,-3.3756,-3.4602,-3.5038,-3.5038,-3.5178,-3.5224,-3.5224,-3.5379,-3.5441,-3.5458,-3.5538,-3.565,-3.5795,-3.5932,-3.5997,-3.5997,-3.5975,-3.5975,-3.5975,-3.5975,-3.5975,-3.5975,-3.5975,-3.5975,-3.5975,-3.5975,-3.5975,-3.5975,-3.5997,-3.5997,-3.5997,-3.5997,-3.5997,-3.5997,-3.5997,-3.5997,-3.6014,-3.6087,-3.6053,-3.598,-3.5907,-3.6045,-3.6182,-3.6187,-3.6101,-3.5997,-3.5997,-3.5997,-3.5997,-3.5975,-3.5883,-3.5773,-3.5773,-3.5554,-3.5402,-3.5402,-3.5344,-3.5291,-3.5291,-3.5274,-3.4979,-3.4259,-3.4175,-3.384,-3.3108,-3.2383,-3.2022,-3.2059,-3.1486,-3.1232,-3.1295,-3.1504,-3.171,-3.1894,-3.1894,-3.2002,-1.9905,0.0,0.0,0.0,0.0,0.0,0.0,-2.2817,-2.328,-2.4008,0.0,0.0,0.0,0.0,0.0,0.0,0.0,0.0,0.0,0.0,0.0,0.0,0.0,0.0,0.0,0.0,0.0,0.0,-3.1966,-3.1803,-3.1825,-3.1874,-3.215,-3.2685,-3.2917,-3.3017,-3.3017,-3.3238,-3.336,-3.3377,-3.3512,-3.3556,-3.3556,-3.3706,-3.4052,-3.4555,-3.4578,-3.4925,-3.5452,-3.5639,-3.5711,-3.5711,-3.5656,-3.5633,-3.5633,-3.5543,-3.5481,-3.5481,-3.5481,-3.5481,-3.552,-3.5611,-3.5633,-3.5656,-3.5689,-3.5711,-3.5734,-3.5839,-3.5861,-3.5883,-3.5975,-3.5997,-3.5997,-3.6014,-3.6014,-3.5997,-3.598,-3.5849,-3.5822,-3.6019,-3.6019,-3.5932,-3.5734,-3.5711,-3.5667,-3.5503,-3.5458,-3.5452,-3.5452,-3.5367,-3.5321,-3.5321,-3.5314,-3.5291,-3.5291,-3.4828,-3.4426,-3.4209,-3.3689,-3.318,-3.2685,-3.2236,-3.1729,-3.1163,-3.1079,-3.1114,-3.123,-3.1466,-3.1635,-3.1691,-3.1787,-3.1949,-1.9246,-1.9758,-2.0232,-2.0589,0.0,0.0,-2.1978,-2.231,-2.2768,0.0,0.0,0.0,0.0,0.0,0.0,0.0,0.0,0.0,0.0,0.0,0.0,0.0,0.0,0.0,0.0,0.0,0.0,0.0,-3.1073,-3.098,-3.1087,-3.113,-3.1333,-3.1769,-3.2083,-3.2249,-3.2249,-3.2547,-3.2702,-3.2702,-3.2785,-3.2829,-3.2829,-3.2961,-3.3238,-3.3656,-3.3717,-3.3974,-3.441,-3.4847,-3.5194,-3.5481,-3.5429,-3.5423,-3.5423,-3.5331,-3.5291,-3.5291,-3.5291,-3.5291,-3.5314,-3.54,-3.5423,-3.5429,-3.5543,-3.5549,-3.5571,-3.5684,-3.5728,-3.5734,-3.5822,-3.5844,-3.5844,-3.5844,-3.5817,-3.5795,-3.5795,-3.5616,-3.5549,-3.5778,-3.5773,-3.5661,-3.5503,-3.5481,-3.5412,-3.5245,-3.5175,-3.5111,-3.5065,-3.4994,-3.497,-3.497,-3.4688,-3.4506,-3.4506,-3.3842,-3.3333,-3.3018,-3.2586,-3.2131,-3.1654,-3.1408,-3.1108,-3.0777,-3.0784,-3.0922,-3.119,-3.137,-3.1523,-3.1598,-3.1731,-3.1859,-1.8542,-1.9163,-1.9999,-2.0019,-2.0524,0.0,-2.1759,-2.1951,-2.2191,0.0,0.0,0.0,0.0,0.0,0.0,0.0,0.0,0.0,0.0,0.0,0.0,0.0,0.0,0.0,0.0,-2.9808,-2.9924,-2.9973,-3.0124,-3.0274,-3.0485,-3.0506,-3.0506,-3.0506,-3.1135,-3.1482,-3.1482,-3.2133,-3.2448,-3.2448,-3.2448,-3.2448,-3.247,-3.258,-3.2673,-3.2757,-3.2866,-3.2981,-3.3115,-3.3745,-3.4504,-3.5174,-3.5258,-3.5268,-3.5268,-3.5268,-3.5245,-3.5245,-3.5245,-3.5245,-3.5268,-3.5268,-3.5268,-3.5291,-3.5446,-3.5469,-3.5492,-3.5571,-3.5577,-3.5577,-3.5577,-3.5577,-3.5554,-3.5554,-3.5503,-3.5469,-3.5469,-3.5377,-3.5314,-3.5487,-3.5389,-3.5268,-3.5268,-3.5245,-3.5198,-3.5041,-3.4923,-3.4811,-3.4691,-3.4504,-3.4382,-3.4382,-3.3727,-3.3285,-3.3285,-3.2685,-3.1997,-3.1335,-3.1226,-3.0926,-3.0392,-3.0326,-3.0393,-3.0634,-3.0551,-3.0714,-3.1171,-3.1235,-3.1389,-3.1579,-3.1709,-3.1784,-1.9123,-1.8955,-1.8803,-1.9391,-2.0035,0.0,-2.0568,-2.0989,-2.1552,0.0,-2.2302,0.0,0.0,0.0,0.0,0.0,0.0,0.0,0.0,0.0,0.0,0.0,0.0,0.0,0.0,-2.9764,-2.9918,-2.9924,-3.0081,-3.0253,-3.0401,-3.0464,-3.0506,-3.0506,-3.0638,-3.0704,-3.0704,-3.0853,-3.094,-3.094,-3.094,-3.094,-3.094,-3.0962,-3.1293,-3.1857,-3.1878,-3.2232,-3.2785,-3.2934,-3.3545,-3.4454,-3.4964,-3.5152,-3.5128,-3.5018,-3.497,-3.497,-3.497,-3.497,-3.4994,-3.5088,-3.5152,-3.5158,-3.5291,-3.5337,-3.536,-3.5492,-3.5429,-3.5383,-3.5475,-3.5429,-3.536,-3.536,-3.5337,-3.5337,-3.5337,-3.5152,-3.4994,-3.5041,-3.5088,-3.5088,-3.4994,-3.4899,-3.4763,-3.4643,-3.4594,-3.457,-3.4546,-3.4013,-3.3612,-3.3612,-3.299,-3.2603,-3.2603,-3.1948,-3.1434,-3.1303,-3.0729,-3.0336,-3.0177,-3.0215,-3.0225,-3.0302,-3.0435,-3.0633,-3.0952,-3.1114,-3.1327,-3.1519,-3.1555,-3.1557,-1.9059,-1.8937,-1.8897,-1.8854,0.0,0.0,0.0,-2.0347,-2.095,-2.1244,-2.1584,-2.2054,-2.2733,0.0,0.0,0.0,0.0,0.0,0.0,0.0,0.0,0.0,0.0,0.0,0.0,0.0,-2.9513,-2.9913,-3.0119,-3.0253,-3.0396,-3.0464,-3.0506,-3.0506,-3.0506,-3.0506,-3.0506,-3.0506,-3.0506,-3.0506,-3.0506,-3.0506,-3.0506,-3.0506,-3.0704,-3.1052,-3.1026,-3.1203,-3.1588,-3.1885,-3.2293,-3.2818,-3.3615,-3.3904,-3.3881,-3.3835,-3.3789,-3.3789,-3.3789,-3.3789,-3.3812,-3.3881,-3.3904,-3.401,-3.4507,-3.4944,-3.5314,-3.5377,-3.5394,-3.5348,-3.54,-3.5304,-3.5218,-3.5274,-3.5198,-3.5088,-3.5088,-3.4899,-3.4667,-3.4618,-3.4594,-3.4618,-3.4691,-3.4594,-3.4448,-3.4325,-3.425,-3.4046,-3.364,-3.3283,-3.291,-3.2554,-3.1906,-3.1501,-3.1501,-3.0836,-3.0393,-3.0393,-3.0119,-2.9935,-2.9946,-3.0027,-3.0075,-3.0154,-3.0314,-3.051,-3.0692,-3.0794,-3.0995,-3.1249,-3.1249,-3.1291,0.0,0.0,0.0,0.0,0.0,-1.9416,0.0,0.0,0.0,0.0,0.0,0.0,0.0,0.0,0.0,0.0,0.0,0.0,0.0,0.0,0.0,0.0,0.0,0.0,0.0,0.0,-2.9075,-2.9729,-3.0038,-3.0248,-3.0354,-3.0443,-3.0506,-3.0506,-3.0506,-3.0506,-3.0506,-3.0506,-3.0506,-3.0506,-3.0506,-3.0506,-3.0506,-3.0485,-3.0485,-3.0485,-3.0401,-3.0375,-3.0387,-3.0893,-3.1073,-3.1177,-3.2232,-3.2629,-3.2629,-3.2629,-3.2629,-3.2629,-3.2629,-3.2652,-3.2657,-3.2657,-3.268,-3.2851,-3.3711,-3.4451,-3.5061,-3.5195,-3.5278,-3.5295,-3.5285,-3.5131,-3.5052,-3.5158,-3.4994,-3.4828,-3.4787,-3.4594,-3.4374,-3.425,-3.4101,-3.4075,-3.4349,-3.4275,-3.4151,-3.4,-3.3786,-3.3395,-3.2709,-3.2405,-3.1981,-3.1406,-3.0735,-3.0343,-3.0343,-2.9831,-2.9496,-2.9496,-2.9608,-2.9704,-2.9744,-2.9837,-2.9946,-3.0038,-3.0184,-3.0328,-3.0443,-3.0459,-3.063,-3.0958,-3.0975,-3.1041,0.0,0.0,0.0,0.0,-1.9077,0.0,0.0,0.0,-1.9767,-1.9717,0.0,0.0,0.0,0.0,0.0,0.0,0.0,0.0,0.0,0.0,0.0,0.0,0.0,0.0,0.0,0.0,0.0,-2.8924,-2.9722,-3.021,-3.021,-3.0401,-3.0506,-3.0506,-3.0506,-3.0506,-3.0506,-3.0506,-3.0506,-3.0506,-3.0506,-3.0506,-3.0506,-3.0443,-3.0417,-3.0401,-3.0274,-3.021,-3.0227,-3.0309,-3.032,-3.0472,-3.1872,-3.2436,-3.2436,-3.2436,-3.2436,-3.2436,-3.2436,-3.2465,-3.2523,-3.2523,-3.259,-3.2851,-3.358,-3.3902,-3.4124,-3.4905,-3.5041,-3.497,-3.5088,-3.4947,-3.4763,-3.4763,-3.4643,-3.4521,-3.4399,-3.425,-3.4101,-3.3975,-3.3745,-3.3642,-3.3924,-3.3848,-3.372,-3.3581,-3.3055,-3.2574,-3.2368,-3.1249,-3.0458,-3.0378,-2.9799,-2.9455,-2.9455,-2.9482,-2.9496,-2.9496,-2.9518,-2.9518,-2.9525,-2.977,-2.9886,-2.9837,-3.0032,-3.0156,-3.0231,-3.0302,-3.0497,-3.0825,-3.0895,-3.0932,0.0,0.0,0.0,0.0,0.0,0.0,-1.8681,0.0,-1.911,0.0,0.0,0.0,0.0,0.0,0.0,0.0,-2.1345,0.0,0.0,0.0,0.0,0.0,0.0,0.0,0.0,0.0,0.0,0.0,0.0,-2.955,-2.955,-3.017,-3.0506,-3.0506,-3.0506,-3.0506,-3.0506,-3.0506,-3.0506,-3.0506,-3.0506,-3.0485,-3.0443,-3.0401,-3.0375,-3.029,-3.0146,-3.0081,-3.0081,-3.0033,-2.9989,-2.9989,-3.0695,-3.1034,-3.1106,-3.1106,-3.1106,-3.1106,-3.1106,-3.1134,-3.1178,-3.1178,-3.1561,-3.2067,-3.2359,-3.3082,-3.3879,-3.424,-3.4528,-3.4754,-3.4835,-3.4699,-3.4537,-3.4554,-3.4423,-3.425,-3.4201,-3.3949,-3.3694,-3.3581,-3.3398,-3.324,-3.3166,-3.3251,-3.3193,-3.2756,-3.2362,-3.1797,-3.0945,-3.0333,-2.9831,-2.9414,-2.9163,-2.9014,-2.9014,-2.906,-2.9084,-2.9084,-2.9199,-2.9344,-2.9496,-2.9608,-2.9637,-2.9621,-2.9748,-2.9836,-2.9853,-2.9886,-2.9984,-3.0105,-3.0335,-3.051,-2.1406,0.0,0.0,0.0,0.0,0.0,0.0,0.0,0.0,0.0,0.0,0.0,0.0,0.0,-1.9746,-2.043,0.0,-2.0702,0.0,0.0,0.0,0.0,0.0,0.0,0.0,0.0,0.0,0.0,-2.8282,0.0,-2.9091,-2.9807,-3.029,-3.0489,-3.0506,-3.0506,-3.0506,-3.0506,-3.0506,-3.0506,-3.0506,-3.0464,-3.0396,-3.0375,-3.0274,-3.0141,-2.9973,-2.9924,-2.9924,-2.983,-2.9742,-2.9653,-2.9764,-2.988,-3.0033,-3.0098,-3.0119,-3.0119,-3.0119,-3.0124,-3.0146,-3.0189,-3.0614,-3.1177,-3.1375,-3.2226,-3.3185,-3.3581,-3.3973,-3.4323,-3.4593,-3.4464,-3.4325,-3.4382,-3.4201,-3.3975,-3.3899,-3.3642,-3.3372,-3.3145,-3.3,-3.2776,-3.2315,-3.2489,-3.2509,-3.1956,-3.142,-3.0722,-2.9704,-2.9425,-2.9115,-2.8627,-2.8612,-2.8652,-2.87,-2.8723,-2.8771,-2.8794,-2.8944,-2.9107,-2.9291,-2.9337,-2.9344,-2.9344,-2.9437,-2.9466,-2.9454,-2.9499,-2.9512,-2.9536,-2.987,-3.0113,0.0,0.0,0.0,-2.091,0.0,0.0,0.0,0.0,-1.8691,0.0,0.0,0.0,0.0,-1.8836,-1.9051,-1.9716,-1.9837,0.0,0.0,0.0,0.0,0.0,0.0,0.0,0.0,0.0,0.0,-2.6733,-2.7548,0.0,-2.9059,-2.9312,-2.9761,-3.0472,-3.0506,-3.0506,-3.0506,-3.0506,-3.0506,-3.0506,-3.0506,-3.0464,-3.0396,-3.0269,-3.0124,-2.9995,-2.9792,-2.972,-2.9697,-2.9563,-2.9518,-2.9496,-2.9518,-2.9518,-2.9541,-2.9808,-2.9902,-2.9902,-2.9902,-2.9946,-3.0017,-3.0146,-3.0205,-3.0353,-3.1095,-3.1341,-3.1669,-3.3023,-3.3432,-3.3596,-3.4317,-3.4325,-3.4126,-3.4126,-3.3899,-3.3658,-3.3372,-3.3335,-3.316,-3.2711,-3.252,-3.2155,-3.1389,-3.1524,-3.163,-3.1278,-3.0108,-2.9215,-2.9057,-2.847,-2.806,-2.8044,-2.8137,-2.8259,-2.8411,-2.8541,-2.866,-2.8794,-2.8794,-2.8818,-2.8818,-2.8889,-2.8904,-2.8904,-2.9052,-2.9137,-2.9121,-2.9259,-2.9328,-2.9312,-2.9655,-2.9875,0.0,0.0,-2.2269,-2.163,0.0,0.0,0.0,0.0,0.0,0.0,0.0,0.0,0.0,-1.8166,-1.8432,-1.9104,-1.9177,-1.9379,0.0,0.0,0.0,0.0,0.0,0.0,0.0,0.0,0.0,-2.594,-2.6814,-2.7437,0.0,-2.8784,-2.9496,-2.9761,-3.0241,-3.0506,-3.0506,-3.0506,-3.0506,-3.0506,-3.0464,-3.0396,-3.0253,-3.0124,-2.9968,-2.9792,-2.9742,-2.9653,-2.9563,-2.9518,-2.945,-2.9389,-2.9473,-2.945,-2.9389,-2.9586,-2.963,-2.9653,-2.9742,-2.977,-2.9814,-2.9946,-3.0071,-3.0163,-3.037,-3.0473,-3.0711,-3.1716,-3.2609,-3.3298,-3.347,-3.3744,-3.3949,-3.3848,-3.3617,-3.3398,-3.3335,-3.2985,-3.2645,-3.2492,-3.1864,-3.1238,-3.0875,-3.009,-2.9528,-2.9607,-2.9228,-2.8748,-2.8258,-2.8016,-2.7905,-2.798,-2.8029,-2.8079,-2.8128,-2.8177,-2.8275,-2.8381,-2.8493,-2.858,-2.866,-2.8763,-2.8834,-2.8834,-2.8873,-2.8897,-2.8897,-2.8944,-2.8967,-2.8967,-2.9091,-2.9321,-2.3285,-2.2949,0.0,0.0,-2.1705,0.0,-2.1029,0.0,0.0,0.0,0.0,0.0,0.0,-1.8014,-1.802,-1.8448,-1.8458,-1.8668,0.0,-2.0129,0.0,0.0,0.0,0.0,0.0,0.0,-2.4711,-2.5179,-2.6064,-2.6719,0.0,0.0,-2.8887,-2.938,-2.986,-3.0224,-3.0506,-3.0506,-3.0506,-3.0506,-3.0422,-3.0333,-3.0205,-3.006,-2.9902,-2.9697,-2.9653,-2.9563,-2.9428,-2.9382,-2.9275,-2.9175,-2.9259,-2.9229,-2.916,-2.9405,-2.9496,-2.9518,-2.9608,-2.963,-2.9653,-2.9742,-2.9824,-2.9869,-2.9836,-2.9851,-3.0061,-3.0833,-3.1799,-3.2668,-3.2845,-3.3292,-3.3668,-3.3581,-3.3346,-3.3123,-3.3,-3.2486,-3.1989,-3.1812,-3.1016,-3.0228,-2.9811,-2.8889,-2.8314,-2.8536,-2.8368,-2.8068,-2.7634,-2.759,-2.7615,-2.7705,-2.773,-2.774,-2.784,-2.7955,-2.8029,-2.8113,-2.8201,-2.8299,-2.8381,-2.8468,-2.8508,-2.8508,-2.8508,-2.8508,-2.8508,-2.8565,-2.8589,-2.8589,-2.8652,-2.8818]},{"header":{"parameterUnit":"m.s-1","parameterCategory":1,"la1":30.6,"la2":29.2853,"lo1":-89.7004,"lo2":-87.6739,"dy":0.0162,"dx":0.0183,"nx":112,"ny":82,"refTime":"2023-06-05T00:00:00:Z","depth":0,"parameterNumber":3,"parameterNumberName":"V-component_of_WINDS"},"data":[0.0,0.0,0.0,0.0,0.0,0.0,0.0,0.0,0.0,0.0,0.0,0.0,0.0,0.0,0.0,0.0,0.0,0.0,0.0,0.0,0.0,0.0,0.0,0.0,0.0,0.0,0.0,0.0,0.0,0.0,0.0,0.0,0.0,0.0,0.0,0.0,0.0,0.0,0.0,0.0,0.0,0.0,0.0,0.0,0.0,0.0,0.0,0.0,0.0,0.0,0.0,0.0,0.0,0.0,0.0,0.0,0.0,0.0,0.0,0.0,0.0,0.0,0.0,0.0,0.0,0.0,0.0,0.0,0.0,0.0,0.0,0.0,0.0,0.0,0.0,0.0,0.0,0.0,0.0,0.0,0.0,0.0,0.0,0.0,0.0,0.0,0.0,0.0,0.0,0.0,-0.8972,-0.9625,-1.0573,-1.1154,-1.1198,-1.115,-1.1163,-1.1163,0.0,0.0,0.0,0.0,0.0,0.0,0.0,0.0,0.0,0.0,0.0,0.0,0.0,0.0,0.0,0.0,0.0,0.0,0.0,0.0,0.0,0.0,0.0,0.0,0.0,0.0,0.0,0.0,0.0,0.0,0.0,0.0,0.0,0.0,0.0,0.0,0.0,0.0,0.0,0.0,0.0,0.0,0.0,0.0,0.0,0.0,0.0,0.0,0.0,0.0,0.0,0.0,0.0,0.0,0.0,0.0,0.0,0.0,0.0,0.0,0.0,0.0,0.0,0.0,0.0,0.0,0.0,0.0,0.0,0.0,0.0,0.0,0.0,0.0,0.0,0.0,0.0,0.0,0.0,0.0,0.0,0.0,0.0,0.0,0.0,0.0,0.0,0.0,0.0,0.0,0.0,0.0,0.0,0.0,0.0,0.0,0.0,0.0,0.0,0.0,0.0,0.0,0.0,0.0,-0.9063,-1.0077,-1.0361,-1.0554,-1.0771,-1.0575,-1.0435,-1.0435,0.0,0.0,0.0,0.0,0.0,0.0,0.0,0.0,0.0,0.0,0.0,0.0,0.0,0.0,0.0,0.0,0.0,0.0,0.0,0.0,0.0,0.0,0.0,0.0,0.0,0.0,0.0,0.0,0.0,0.0,0.0,0.0,0.0,0.0,0.0,0.0,0.0,0.0,0.0,0.0,0.0,0.0,0.0,0.0,0.0,0.0,0.0,0.0,0.0,0.0,0.0,0.0,0.0,0.0,0.0,0.0,0.0,0.0,0.0,0.0,0.0,0.0,0.0,0.0,0.0,0.0,0.0,0.0,0.0,0.0,0.0,0.0,0.0,0.0,0.0,0.0,0.0,0.0,0.0,0.0,0.0,0.0,0.0,0.0,0.0,0.0,0.0,0.0,0.0,0.0,0.0,0.0,0.0,0.0,0.0,0.0,0.0,0.0,0.0,0.0,0.0,0.0,0.0,-0.8563,-0.9102,-0.984,-1.0038,-1.0207,-1.0467,-1.0283,-1.007,-0.9979,-0.9557,0.0,0.0,0.0,0.0,0.0,0.0,0.0,0.0,0.0,0.0,0.0,0.0,0.0,0.0,0.0,0.0,0.0,0.0,0.0,0.0,0.0,0.0,0.0,0.0,0.0,0.0,0.0,0.0,0.0,0.0,0.0,0.0,0.0,0.0,0.0,0.0,0.0,0.0,0.0,0.0,0.0,0.0,0.0,0.0,0.0,0.0,0.0,0.0,0.0,0.0,0.0,0.0,0.0,0.0,0.0,0.0,0.0,0.0,0.0,0.0,0.0,0.0,0.0,0.0,0.0,0.0,0.0,0.0,0.0,0.0,0.0,0.0,0.0,0.0,0.0,0.0,0.0,0.0,0.0,0.0,0.0,0.0,0.0,0.0,0.0,0.0,0.0,0.0,0.0,0.0,0.0,0.0,0.0,0.0,0.0,0.0,0.0,0.0,0.0,0.0,0.0,0.0,-0.8683,-0.9082,-0.9476,-0.9694,-0.9907,-1.0038,-0.9824,-0.9622,-0.949,-0.8856,0.0,0.0,0.0,0.0,0.0,0.0,0.0,0.0,0.0,0.0,0.0,0.0,0.0,0.0,0.0,0.0,0.0,0.0,0.0,0.0,0.0,0.0,0.0,0.0,0.0,0.0,0.0,0.0,0.0,0.0,0.0,0.0,0.0,0.0,0.0,0.0,0.0,0.0,0.0,0.0,0.0,0.0,0.0,0.0,0.0,0.0,0.0,0.0,0.0,0.0,0.0,0.0,0.0,0.0,0.0,0.0,0.0,0.0,0.0,0.0,0.0,0.0,0.0,0.0,0.0,0.0,0.0,0.0,0.0,0.0,0.0,0.0,0.0,0.0,0.0,0.0,0.0,0.0,0.0,0.0,0.0,0.0,0.0,0.0,0.0,0.0,0.0,0.0,0.0,0.0,0.0,0.0,0.0,0.0,0.0,0.0,0.0,0.0,0.0,0.0,0.0,0.0,-0.8683,-0.8999,-0.9305,-0.9349,-0.9345,-0.9388,-0.9032,-0.8805,-0.8764,-0.8205,0.0,0.0,0.0,0.0,0.0,0.0,0.0,0.0,0.0,0.0,0.0,0.0,0.0,0.0,0.0,0.0,0.0,0.0,0.0,0.0,0.0,0.0,0.0,0.0,0.0,0.0,0.0,0.0,0.0,0.0,0.0,0.0,0.0,0.0,0.0,0.0,0.0,0.0,0.0,0.0,0.0,0.0,0.0,0.0,0.0,0.0,0.0,0.0,0.0,0.0,0.0,0.0,0.0,0.0,0.0,0.0,0.0,0.0,0.0,0.0,0.0,0.0,0.0,0.0,0.0,0.0,0.0,0.0,0.0,0.0,0.0,0.0,0.0,0.0,0.0,0.0,0.0,0.0,0.0,0.0,0.0,0.0,0.0,0.0,0.0,0.0,0.0,0.0,0.0,0.0,0.0,0.0,0.0,0.0,0.0,0.0,0.0,0.0,0.0,0.0,0.0,0.0,-0.8084,-0.838,0.0,-0.8596,-0.8684,-0.8859,-0.8476,-0.8222,-0.8102,0.0,0.0,0.0,0.0,0.0,0.0,0.0,0.0,0.0,0.0,0.0,0.0,0.0,0.0,0.0,0.0,0.0,0.0,0.0,0.0,0.0,0.0,0.0,0.0,0.0,0.0,0.0,0.0,0.0,0.0,0.0,0.0,0.0,0.0,0.0,0.0,0.0,0.0,0.0,0.0,0.0,0.0,0.0,0.0,0.0,0.0,0.0,0.0,0.0,0.0,0.0,0.0,0.0,0.0,0.0,0.0,0.0,0.0,0.0,0.0,0.0,0.0,0.0,0.0,0.0,0.0,0.0,0.0,0.0,0.0,0.0,0.0,0.0,0.0,0.0,0.0,0.0,0.0,0.0,0.0,0.0,0.0,0.0,0.0,0.0,0.0,0.0,0.0,0.0,0.0,0.0,0.0,0.0,0.0,0.0,0.0,0.0,0.0,0.0,0.0,0.0,0.0,-0.7409,-0.7694,-0.794,0.0,-0.8021,-0.8065,-0.8237,-0.7885,-0.7575,-0.7405,0.0,0.0,0.0,0.0,0.0,0.0,0.0,0.0,0.0,0.0,0.0,0.0,0.0,0.0,0.0,0.0,0.0,0.0,0.0,0.0,0.0,0.0,0.0,0.0,0.0,0.0,0.0,0.0,0.0,0.0,0.0,0.0,0.0,0.0,0.0,0.0,0.0,0.0,0.0,0.0,0.0,0.0,0.0,0.0,0.0,0.0,0.0,0.0,0.0,0.0,0.0,0.0,0.0,0.0,0.0,0.0,0.0,0.0,0.0,0.0,0.0,0.0,0.0,0.0,0.0,0.0,0.0,0.0,0.0,0.0,0.0,0.0,0.0,0.0,0.0,0.0,0.0,0.0,0.0,0.0,0.0,0.0,0.0,0.0,0.0,0.0,0.0,0.0,0.0,0.0,0.0,0.0,0.0,0.0,0.0,0.0,0.0,0.0,0.0,0.0,0.0,0.0,-0.7368,-0.7698,-0.7896,-0.7896,-0.7625,-0.7489,-0.7489,-0.713,-0.6851,0.0,0.0,0.0,0.0,0.0,0.0,0.0,0.0,0.0,0.0,0.0,0.0,0.0,0.0,0.0,0.0,0.0,0.0,0.0,0.0,0.0,0.0,0.0,0.0,0.0,0.0,0.0,0.0,0.0,0.0,0.0,0.0,0.0,0.0,0.0,0.0,0.0,0.0,0.0,0.0,0.0,0.0,0.0,0.0,0.0,0.0,0.0,0.0,0.0,0.0,0.0,0.0,0.0,0.0,0.0,0.0,0.0,0.0,0.0,0.0,0.0,0.0,0.0,0.0,0.0,0.0,0.0,0.0,0.0,0.0,0.0,0.0,0.0,0.0,0.0,0.0,0.0,0.0,0.0,0.0,0.0,0.0,0.0,0.0,0.0,0.0,0.0,0.0,0.0,0.0,0.0,0.0,0.0,0.0,0.0,0.0,0.0,0.0,0.0,0.0,0.0,0.0,0.0,-0.6408,-0.6655,-0.683,-0.683,-0.6782,-0.6653,-0.6523,-0.6309,-0.609,-0.5794,0.0,0.0,0.0,0.0,0.0,0.0,0.0,0.0,0.0,0.0,0.0,0.0,0.0,0.0,0.0,0.0,0.0,0.0,0.0,0.0,0.0,0.0,0.0,0.0,0.0,0.0,0.0,0.0,0.0,0.0,0.0,0.0,0.0,0.0,0.0,0.0,0.0,0.0,0.0,0.0,0.0,0.0,0.0,0.0,0.0,0.0,0.0,0.0,0.0,0.0,0.0,0.0,0.0,0.0,0.0,0.0,0.0,0.0,0.0,0.0,0.0,0.0,0.0,0.0,0.0,0.0,0.0,0.0,0.0,0.0,0.0,0.0,0.0,0.0,0.0,0.0,0.0,0.0,0.0,0.0,0.0,0.0,0.0,0.0,0.0,0.0,0.0,0.0,0.0,0.0,0.0,0.0,0.0,0.0,0.0,0.0,0.0,0.0,0.0,0.0,0.0,0.0,-0.5907,-0.6094,-0.6254,-0.6118,-0.6033,-0.5902,-0.568,-0.5528,-0.5244,-0.4873,0.0,0.0,0.0,0.0,0.0,0.0,0.0,0.0,0.0,0.0,0.0,0.0,0.0,0.0,0.0,0.0,0.0,0.0,0.0,0.0,0.0,0.0,0.0,0.0,0.0,0.0,0.0,0.0,0.0,0.0,0.0,0.0,0.0,0.0,0.0,0.0,0.0,0.0,0.0,0.0,0.0,0.0,0.0,0.0,0.0,0.0,0.0,0.0,0.0,0.0,0.0,0.0,0.0,0.0,0.0,0.0,0.0,0.0,0.0,0.0,0.0,0.0,0.0,0.0,0.0,0.0,0.0,0.0,0.0,0.0,0.0,0.0,0.0,0.0,0.0,0.0,0.0,0.0,0.0,0.0,0.0,0.0,0.0,0.0,0.0,0.0,0.0,0.0,0.0,0.0,0.0,0.0,0.0,0.0,0.0,0.0,0.0,0.0,0.0,0.0,0.0,0.0,-0.5613,-0.5835,-0.5902,-0.5633,-0.5458,-0.5235,-0.4921,-0.4701,-0.4399,-0.3952,0.0,0.0,0.0,0.0,0.0,0.0,0.0,0.0,0.0,0.0,0.0,0.0,0.0,0.0,0.0,0.0,0.0,0.0,0.0,0.0,0.0,0.0,0.0,0.0,0.0,0.0,0.0,0.0,0.0,0.0,0.0,0.0,0.0,0.0,0.0,0.0,0.0,0.0,0.0,0.0,0.0,0.0,0.0,0.0,0.0,0.0,0.0,0.0,0.0,0.0,0.0,0.0,0.0,0.0,0.0,0.0,0.0,0.0,0.0,0.0,0.2447,0.0,0.0,0.0,0.0,0.0,0.0,0.0,0.0,0.0,0.0,0.0,0.0,0.0,0.0,0.0,0.0,0.0,0.0,0.0,0.0,0.0,0.0,0.0,0.0,0.0,0.0,0.0,0.0,0.0,0.0,0.0,0.0,0.0,0.0,0.0,0.0,0.0,0.0,0.0,0.0,0.0,-0.491,-0.5099,-0.5146,-0.4926,-0.4882,-0.4659,-0.4162,-0.3942,-0.3652,-0.3241,-0.3067,0.0,0.0,0.0,0.0,0.0,0.0,0.0,0.0,0.0,0.0,0.0,0.0,0.0,0.0,0.0,0.0,0.0,0.0,0.0,0.0,0.0,0.0,0.0,0.0,0.0,0.0,0.0,0.0,0.0,0.0,0.0,0.0,0.0,0.0,0.0,0.0,0.0,0.0,0.0,0.0,0.0,0.0,0.0,0.0,0.0,0.0,0.0,0.0,0.0,0.0,0.0,0.0,0.0,0.0,0.0,0.0,0.0,0.0,0.0,0.0,0.2532,0.0,0.0,0.0,0.0,0.0,0.0,0.0,0.0,0.0,0.0,0.0,0.0,0.0,0.0,0.0,0.0,0.0,0.0,0.0,0.0,0.0,0.0,0.0,0.0,0.0,0.0,0.0,0.0,0.0,0.0,0.0,0.0,0.0,0.0,0.0,0.0,0.0,0.0,0.0,0.0,-0.4304,-0.4389,-0.434,-0.4032,-0.3989,-0.3764,-0.327,-0.305,-0.2774,-0.2401,-0.2143,0.0,0.0,0.0,0.0,0.0,0.0,0.0,0.0,0.0,0.0,0.0,0.0,0.0,0.0,0.0,0.0,0.0,0.0,0.0,0.0,0.0,0.0,0.0,0.0,0.0,0.0,0.0,0.0,0.0,0.0,0.0,0.0,0.0,0.0,0.0,0.0,0.0,0.0,0.0,0.0,0.0,0.0,0.0,0.0,0.0,0.0,0.0,0.0,0.0,0.0,0.0,0.0,0.0,0.5173,0.5186,0.5152,0.5022,0.4688,0.4237,0.3654,0.3073,0.2543,0.0,0.0,0.0,0.0,0.0,0.0,0.0,0.0,0.0,0.0,0.0,0.0,0.0,0.0,0.0,0.0,0.0,0.0,0.0,0.0,0.0,0.0,0.0,0.0,0.0,-0.2611,-0.2915,0.0,0.0,0.0,0.0,0.0,0.0,0.0,0.0,0.0,0.0,0.0,0.0,-0.3723,-0.3758,-0.3582,-0.3138,-0.3048,-0.2869,-0.2424,-0.2154,-0.1853,-0.1526,-0.1305,-0.1115,0.0,0.0,0.0,0.0,0.0,0.0,0.0,0.0,0.0,0.0,0.0,0.0,0.0,0.0,0.0,0.0,0.0,0.0,0.0,0.0,0.0,0.0,0.0,0.0,0.0,0.0,0.0,0.0,0.0,0.0,0.0,0.0,0.7038,0.6852,0.0,0.0,0.0,0.0,0.0,0.0,0.0,0.0,0.0,0.0,0.0,0.0,0.0,0.0,0.5606,0.5583,0.5517,0.5364,0.538,0.5352,0.5368,0.5142,0.5043,0.4943,0.4463,0.0,0.3096,0.2976,0.0,0.0,0.0,0.0,0.0,0.0,0.0,0.0,0.0,0.0,0.0,0.0,0.0,0.0,0.0,0.0,0.0,0.0,0.0,0.0,0.0,0.0,-0.1659,-0.1847,-0.2106,-0.2369,0.0,-0.2905,-0.3126,-0.3126,0.0,0.0,0.0,0.0,0.0,0.0,0.0,0.0,-0.3203,-0.3273,-0.3093,-0.2648,-0.2424,-0.2199,-0.193,-0.148,-0.111,-0.0866,-0.0638,-0.0416,-0.0162,-0.0155,0.0,0.0,0.0,0.0,0.0,0.0,0.0,0.0,0.0,0.0,0.0,0.0,0.0,0.0,0.0,0.0,0.0,0.0,0.0,0.0,0.0,0.0,0.0,0.0,0.0,0.0,0.0,0.0,0.0,0.7488,0.7409,0.7254,0.7071,0.7009,0.0,0.0,0.0,0.0,0.0,0.0,0.0,0.0,0.0,0.6337,0.6322,0.6179,0.5871,0.5749,0.5619,0.5472,0.5472,0.5507,0.557,0.5414,0.5254,0.5164,0.489,0.4512,0.3988,0.3494,0.3051,0.2748,0.0,0.0,0.0,0.0,0.0,0.1824,0.1641,0.0,0.0,0.0,0.0,0.0,0.0,0.0,0.0,0.0,0.0,0.0,0.0,0.0,0.0,-0.1456,-0.1709,-0.1927,-0.2157,-0.2348,-0.2552,0.0,-0.308,-0.3062,-0.2943,0.0,0.0,0.0,0.0,-0.2762,-0.2601,-0.2497,-0.2287,-0.193,-0.1705,-0.1436,-0.1031,-0.0673,-0.0311,0.0043,0.0256,0.05,0.0733,0.0748,0.0726,0.0,0.0,0.0,0.0,0.0,0.0,0.0,0.0,0.0,0.0,0.0,0.0,0.0,0.0,0.0,0.0,0.0,0.0,0.0,0.0,0.0,0.0,0.0,0.0,0.0,0.0,0.0,0.0,0.7809,0.7798,0.7599,0.741,0.7307,0.0,0.0,0.0,0.0,0.0,0.0,0.6795,0.6631,0.66,0.6756,0.6585,0.6454,0.6275,0.6108,0.5958,0.5866,0.5775,0.5824,0.591,0.5697,0.5509,0.5367,0.5253,0.5061,0.4769,0.4017,0.3544,0.3233,0.3172,0.3025,0.2785,0.2635,0.2489,0.2343,0.2193,0.2082,0.2045,0.2045,0.0,0.1672,0.1636,0.0,0.0,0.0,0.0,0.0116,-0.0154,0.0,-0.0763,-0.1063,-0.1231,-0.1401,-0.1676,-0.1725,-0.1957,0.0,-0.2838,-0.2758,-0.2637,0.0,0.0,0.0,0.0,-0.2146,-0.2013,-0.1794,-0.148,-0.1166,-0.0942,-0.0628,-0.0179,0.0134,0.049,0.1052,0.1196,0.1378,0.1643,0.1636,0.1592,0.159,0.0,0.0,0.0,0.0,0.0,0.0,0.0,0.0,0.0,0.0,0.0,0.0,0.0,0.0,0.0,0.0,0.0,0.0,0.0,0.0,0.0,0.0,0.0,0.0,0.0,0.0,0.0,0.0,0.0,0.7835,0.7615,0.0,0.0,0.0,0.0,0.7747,0.7521,0.7375,0.7342,0.6936,0.6759,0.6869,0.6873,0.688,0.693,0.6934,0.6912,0.6813,0.6573,0.6432,0.6435,0.6078,0.5885,0.5834,0.5536,0.5292,0.514,0.4601,0.417,0.3845,0.3637,0.3389,0.309,0.3051,0.3051,0.3051,0.3051,0.2893,0.2737,0.2737,0.2501,0.2111,0.1957,0.1605,0.0,0.0,0.0956,0.0568,0.0122,-0.0041,-0.0126,-0.0546,-0.0631,-0.0715,-0.0926,-0.0968,-0.1178,0.0,-0.2052,-0.2052,-0.2052,0.0,-0.2072,-0.2118,-0.1911,-0.1663,-0.1476,-0.1256,-0.0942,-0.0493,-0.0224,0.0134,0.0583,0.0897,0.1345,0.2061,0.2024,0.2144,0.2604,0.2493,0.2444,0.2459,0.2455,0.0,0.0,0.0,0.0,0.0,0.0,0.0,0.0,0.0,0.0,0.0,0.0,0.0,0.0,0.0,0.0,0.0,0.0,0.0,0.0,0.0,0.0,0.0,0.0,0.0,0.0,0.0,0.0,0.8228,0.8005,0.0,0.8082,0.7917,0.7854,0.7918,0.7618,0.7454,0.7513,0.7147,0.7054,0.7207,0.7309,0.727,0.714,0.714,0.7073,0.6891,0.6794,0.6747,0.6744,0.6602,0.649,0.6405,0.6091,0.5911,0.5747,0.5267,0.4801,0.4398,0.4357,0.4253,0.4102,0.3858,0.3736,0.3695,0.3405,0.3241,0.3198,0.3198,0.3076,0.2912,0.2546,0.23,0.2136,0.1889,0.1486,0.1122,0.0955,0.0669,0.0338,-0.0129,-0.0215,-0.0302,-0.07,-0.079,-0.0833,-0.1096,-0.1371,-0.1513,-0.1304,-0.1319,-0.1335,-0.1216,-0.11,-0.0978,-0.0762,-0.0538,-0.0269,0.009,0.0448,0.0807,0.1121,0.157,0.2063,0.2601,0.2837,0.3071,0.3323,0.3387,0.3373,0.333,0.3277,0.3259,0.0,0.0,0.0,0.0,0.0,0.0,0.0,0.0,0.0,0.0,0.0,0.0,0.0,0.0,0.0,0.0,0.0,0.0,0.0,0.0,0.0,0.0,0.0,0.0,0.0,0.0,0.8817,0.8553,0.8374,0.8308,0.8351,0.8205,0.8105,0.8105,0.7804,0.7662,0.7767,0.7437,0.7343,0.7444,0.7546,0.7527,0.7424,0.7424,0.7355,0.7267,0.7171,0.7123,0.7123,0.7025,0.6907,0.6811,0.6541,0.6363,0.6278,0.5877,0.5545,0.5227,0.4897,0.4734,0.4662,0.4411,0.4287,0.4246,0.3865,0.3737,0.3695,0.357,0.3486,0.3444,0.3068,0.2817,0.265,0.2397,0.1987,0.1615,0.1445,0.1154,0.082,0.0351,0.022,0.0132,-0.0179,-0.0224,-0.0224,-0.0224,-0.0701,-0.1031,-0.0861,-0.087,-0.0834,-0.0616,-0.0534,-0.0403,-0.0179,0.0179,0.0448,0.0718,0.1166,0.1569,0.1883,0.2287,0.278,0.336,0.3601,0.3867,0.4118,0.4192,0.4217,0.4192,0.413,0.4117,0.4117,0.0,0.0,0.0,0.0,0.0,0.0,0.0,0.0,0.0,0.0,0.0,0.0,0.0,0.0,0.0,0.0,0.0,0.0,0.0,0.0,0.0,0.0,0.0,0.9098,0.919,0.9149,0.8739,0.8698,0.8608,0.8321,0.8325,0.8308,0.8308,0.8193,0.8113,0.8113,0.7805,0.7607,0.7607,0.7611,0.7678,0.7818,0.7818,0.7892,0.7988,0.7746,0.7596,0.759,0.7299,0.7133,0.7118,0.6855,0.6737,0.6673,0.6493,0.6387,0.6287,0.5339,0.4846,0.4752,0.4752,0.4713,0.4671,0.4499,0.4415,0.4331,0.3872,0.3747,0.3705,0.3493,0.3117,0.274,0.274,0.2439,0.2,0.1565,0.1413,0.13,0.0852,0.0718,0.0718,0.0718,0.0718,0.0718,0.0718,-0.0045,-0.0673,-0.0673,-0.0673,-0.0583,-0.0403,-0.0134,0.0,0.0403,0.0807,0.1211,0.1391,0.193,0.2422,0.2868,0.3092,0.3539,0.4253,0.426,0.4468,0.4998,0.4974,0.4978,0.5007,0.4971,0.4914,0.4911,0.0,0.0,0.0,0.0,0.0,0.0,0.0,0.0,0.0,0.0,0.0,0.0,0.0,0.0,0.0,0.0,0.0,0.0,0.0,0.0,0.0,1.0022,0.9889,0.9301,0.9379,0.9365,0.8981,0.8889,0.8758,0.8548,0.8622,0.8674,0.8674,0.8566,0.8459,0.8273,0.8106,0.7952,0.7753,0.7862,0.7887,0.7928,0.7928,0.7948,0.7988,0.7942,0.7892,0.7889,0.7796,0.772,0.7611,0.7394,0.7151,0.6913,0.6687,0.652,0.6381,0.6083,0.5876,0.5673,0.5493,0.5231,0.4925,0.4837,0.4835,0.4793,0.4535,0.4404,0.436,0.3877,0.3659,0.3483,0.3172,0.2875,0.2622,0.2269,0.21,0.1839,0.1345,0.1211,0.1121,0.0762,0.0718,0.0718,0.0718,0.0493,0.0314,0.0314,0.0314,0.0314,0.0403,0.0448,0.0,0.1076,0.1256,0.1525,0.2154,0.2511,0.2913,0.3361,0.3764,0.4166,0.4569,0.5029,0.5313,0.5376,0.5594,0.5627,0.5443,0.5408,0.5381,0.0,0.0,0.0,0.0,0.0,0.0,0.0,0.0,0.0,0.0,0.0,0.0,0.0,0.0,0.0,0.0,0.0,0.0,0.0,0.0,0.0,0.0,1.0288,1.0137,0.975,0.9727,0.9526,0.9027,0.908,0.9035,0.8725,0.8812,0.8934,0.8934,0.8863,0.8772,0.8583,0.8408,0.8203,0.8052,0.804,0.7988,0.7988,0.8088,0.8187,0.8187,0.8283,0.8333,0.8333,0.8333,0.8283,0.0,0.8039,0.7862,0.765,0.7489,0.7361,0.0,0.0,0.0,0.0,0.0,0.5871,0.5598,0.537,0.5278,0.5271,0.5003,0.4811,0.4669,0.4316,0.4082,0.3857,0.3587,0.3361,0.3093,0.2781,0.2601,0.2377,0.1839,0.1749,0.166,0.1391,0.1345,0.1345,0.1345,0.0,0.0,0.1345,0.0987,0.0762,0.0942,0.0987,0.117,0.0,0.1953,0.2226,0.2681,0.3223,0.3617,0.3857,0.4344,0.0,0.0,0.0,0.5799,0.6073,0.6341,0.0,0.0,0.0,0.6133,0.0,0.0,0.0,0.0,0.4624,0.4215,0.0,0.0,0.0,0.0,0.0,0.0,0.0,0.0,0.0,0.0,0.0,0.0,0.0,0.0,0.0,0.0,1.0573,1.0509,1.0345,1.0105,0.9705,0.9067,0.9292,0.9334,0.8894,0.9019,0.9129,0.9129,0.9096,0.9051,0.9003,0.0,0.0,0.0,0.0,0.8088,0.8088,0.8333,0.8432,0.8432,0.8676,0.8825,0.8825,0.8825,0.8825,0.8817,0.868,0.8609,0.8579,0.8481,0.8406,0.8264,0.7021,0.6641,0.6719,0.6605,0.6505,0.0,0.0,0.0,0.0,0.5357,0.509,0.4883,0.4748,0.4357,0.3993,0.3903,0.3767,0.3542,0.3092,0.2957,0.2868,0.2377,0.2288,0.2243,0.2199,0.2199,0.2199,0.2199,0.2199,0.2199,0.2199,0.148,0.1031,0.1436,0.148,0.0,0.2216,0.2728,0.3053,0.3106,0.0,0.0,0.441,0.4795,0.5275,0.5719,0.5811,0.6198,0.6932,0.708,0.7152,0.7114,0.6969,0.6922,0.6903,0.6714,0.6641,0.6591,0.5566,0.4904,0.0,0.0,0.0,0.0,0.0,0.0,0.0,0.0,0.0,0.0,0.0,0.0,0.0,0.0,0.0,1.0908,1.1015,1.0957,1.0386,1.0409,1.0194,0.9482,0.9463,0.9386,0.9077,0.9202,0.9351,0.9351,0.9425,0.9379,0.9186,0.9069,0.0,0.8726,0.8676,0.8627,0.8627,0.8676,0.8726,0.8726,0.0,0.0,0.8825,0.8825,0.8825,0.8821,0.8791,0.8709,0.859,0.8557,0.8511,0.8337,0.7659,0.7237,0.7082,0.6879,0.6697,0.6505,0.6361,0.6222,0.5984,0.5677,0.5518,0.5356,0.4922,0.468,0.0,0.4036,0.3859,0.3767,0.3542,0.3452,0.3361,0.2868,0.2778,0.2644,0.2288,0.2199,0.2199,0.2199,0.2199,0.2199,0.2199,0.2019,0.193,0.2019,0.2064,0.226,0.2767,0.2958,0.3255,0.3922,0.4245,0.4566,0.4911,0.5328,0.5677,0.5991,0.652,0.7028,0.7439,0.7497,0.7383,0.7118,0.7081,0.6999,0.6903,0.6865,0.6826,0.6822,0.6071,0.5701,0.0,0.0,0.0,0.0,0.0,0.0,0.0,0.0,0.0,0.0,0.0,1.2206,1.2254,0.0,1.1769,1.1335,1.1279,1.1147,1.0702,1.0622,1.0357,0.9777,0.9773,0.9694,0.945,0.9485,0.949,0.949,0.9575,0.9529,0.9381,0.9282,0.9133,0.8981,0.8874,0.8825,0.8825,0.8928,0.8981,0.8981,0.913,0.9175,0.9225,0.9324,0.9422,0.9422,0.9517,0.9567,0.949,0.9348,0.9102,0.8783,0.849,0.8106,0.7668,0.7359,0.7188,0.6991,0.6748,0.6554,0.64,0.6096,0.5897,0.5698,0.5359,0.5131,0.4913,0.4641,0.4428,0.4259,0.4034,0.3855,0.3678,0.3317,0.3272,0.3183,0.296,0.2915,0.2915,0.2915,0.2915,0.2915,0.2915,0.2915,0.2826,0.2601,0.2579,0.2799,0.3325,0.355,0.3873,0.4394,0.4699,0.5041,0.5448,0.5972,0.6346,0.6567,0.7187,0.7636,0.7899,0.7947,0.7904,0.7855,0.7772,0.7717,0.7649,0.7649,0.7604,0.7484,0.6942,0.6521,0.0,0.0,0.0,0.0,0.0,0.0,0.0,1.3416,1.3248,1.3446,1.299,1.2615,1.2728,1.2492,1.2134,1.1746,1.1522,1.1331,1.1107,1.0885,1.0614,1.0208,1.0177,1.0097,0.9931,0.9783,0.9677,0.9677,0.9628,0.9579,0.9579,0.9381,0.9286,0.9286,0.9076,0.8973,0.8973,0.9179,0.9286,0.9286,0.9529,0.9677,0.9677,0.9969,1.0068,1.0068,1.0314,1.0413,1.0364,1.0117,0.9723,0.9331,0.9236,0.8856,0.8268,0.7898,0.7696,0.7547,0.7045,0.6842,0.6728,0.6429,0.6187,0.5953,0.5812,0.5516,0.5293,0.5247,0.5036,0.4732,0.4551,0.4314,0.4034,0.381,0.3721,0.3721,0.3631,0.3587,0.3587,0.3587,0.3587,0.3631,0.363,0.3688,0.3562,0.3111,0.3111,0.3357,0.3917,0.4223,0.4514,0.4828,0.5165,0.5558,0.5971,0.6499,0.6925,0.7231,0.7676,0.8028,0.8245,0.8375,0.8495,0.8581,0.8526,0.8479,0.844,0.84,0.8304,0.8154,0.7769,0.733,1.4237,1.4276,1.419,1.3859,1.3922,1.3991,0.0,1.3604,1.3453,1.3491,1.3346,1.3158,1.2992,1.2936,1.2704,1.2058,1.1934,1.1792,1.14,1.1288,1.121,1.1132,1.0725,1.0438,1.0364,1.0105,0.9969,0.9969,0.9727,0.9579,0.9579,0.9579,0.9579,0.9579,0.9529,0.9525,0.9525,0.9529,0.9579,0.9579,0.9821,0.9969,0.9969,1.0216,1.0364,1.0364,1.0413,1.0413,1.0364,1.0117,0.9969,0.9871,0.9381,0.9019,0.8704,0.8425,0.7988,0.7547,0.7241,0.6992,0.6742,0.6473,0.635,0.6217,0.5955,0.5772,0.5588,0.5405,0.5281,0.5153,0.5107,0.4992,0.4788,0.4344,0.421,0.4121,0.3676,0.3587,0.3587,0.3587,0.3587,0.3676,0.3849,0.3955,0.3959,0.3641,0.3603,0.3844,0.4518,0.4645,0.4875,0.5458,0.5594,0.5857,0.6296,0.6621,0.7105,0.7764,0.7852,0.8076,0.852,0.8719,0.8758,0.8586,0.8814,0.8835,0.8647,0.8471,0.837,0.8348,0.8142,0.7795,1.4661,1.4499,1.433,1.4192,1.4206,1.42,1.403,1.3921,1.3876,1.3937,1.3591,1.3345,1.3502,1.3218,1.287,1.2476,1.2299,1.2125,1.1775,1.1733,1.1638,1.1482,1.1264,1.1007,1.065,1.0413,1.0216,1.0216,1.0117,1.0068,1.0068,1.0068,1.0068,1.0068,1.0068,1.0068,1.0068,1.0068,1.0068,1.0068,1.0167,1.0216,1.0216,1.0507,1.0703,1.085,1.085,1.0806,1.0605,1.0507,1.0265,0.9969,0.9776,0.9426,0.8981,0.8531,0.8137,0.7793,0.7543,0.7241,0.6992,0.6742,0.6506,0.6317,0.6215,0.6135,0.6045,0.5952,0.5723,0.5491,0.5491,0.5366,0.5179,0.489,0.4831,0.477,0.4489,0.4431,0.4431,0.4431,0.4475,0.4559,0.4647,0.4774,0.4814,0.4778,0.4594,0.4666,0.5132,0.519,0.5394,0.5805,0.6146,0.6409,0.6637,0.6969,0.7415,0.7856,0.8028,0.8248,0.8568,0.8784,0.8917,0.9009,0.9216,0.9294,0.9224,0.9137,0.9032,0.8908,0.8593,0.8351,1.4813,1.4636,1.4455,1.4422,1.4424,1.4407,1.4225,1.4173,1.4168,1.4276,1.3923,1.3662,1.3945,1.353,1.3037,1.2845,1.2571,1.2326,1.2137,1.2054,1.1947,1.1848,1.1688,1.1438,1.1051,1.0703,1.0507,1.0507,1.0462,1.0413,1.0413,1.0413,1.0413,1.0413,1.0413,1.0413,1.0413,1.0413,1.0413,1.0413,1.0462,1.0507,1.0511,1.0801,1.1002,1.1194,1.1194,1.1096,1.09,1.085,1.0511,1.0117,1.0019,0.9677,0.9137,0.868,0.8333,0.8038,0.7693,0.7494,0.7291,0.6992,0.6789,0.6637,0.6637,0.6578,0.6513,0.6464,0.6225,0.5939,0.5892,0.5728,0.5546,0.5369,0.5398,0.5422,0.5249,0.5277,0.5325,0.5325,0.539,0.5493,0.5537,0.5677,0.5782,0.5912,0.5801,0.5674,0.563,0.5792,0.6002,0.6205,0.6649,0.687,0.6818,0.7238,0.7591,0.7896,0.8072,0.8336,0.8652,0.8915,0.913,0.9388,0.9607,0.9707,0.9729,0.9714,0.961,0.9366,0.9083,0.8922,1.4437,1.4538,1.4642,1.4453,1.4511,1.4553,1.4418,1.4324,1.4321,1.4291,1.4276,1.4258,1.4279,1.3778,1.3343,1.3137,1.2717,1.2383,1.2388,1.214,1.2086,1.2366,1.1932,1.1585,0.0,1.11,1.0801,1.0801,1.0556,1.0413,1.0413,1.0413,1.0413,1.0413,1.0413,1.0413,1.0413,1.0413,1.0413,1.0413,1.0654,1.0801,1.0801,1.1047,1.1194,1.1194,1.1194,1.1194,1.1145,1.09,1.0659,1.0364,1.0117,0.9677,0.9183,0.8878,0.863,0.8333,0.7793,0.7596,0.7547,0.7288,0.7188,0.7188,0.7188,0.7185,0.7132,0.6839,0.6747,0.6597,0.636,0.6173,0.5989,0.5745,0.5887,0.6031,0.5834,0.5978,0.617,0.617,0.6175,0.6222,0.6405,0.6559,0.6743,0.7033,0.7097,0.6833,0.6087,0.6442,0.6747,0.6774,0.7026,0.7098,0.6818,0.7238,0.7591,0.7896,0.8072,0.842,0.8867,0.913,0.9388,0.9602,0.9864,0.999,0.9985,0.9999,0.9855,0.9587,0.9659,0.941,1.4788,1.466,1.4608,1.4431,1.4339,1.4209,1.4036,1.3989,1.4052,1.4369,1.4191,1.4097,1.451,1.4043,1.3525,1.3307,1.3034,1.2839,1.2865,1.2651,1.2551,1.263,1.237,1.2073,1.1883,0.0,0.0,1.1047,1.0998,1.0949,1.0949,1.0949,1.0949,1.0949,1.0949,1.0949,1.0949,1.0949,1.0949,1.0949,1.0998,1.1047,1.1047,1.1145,1.1194,1.1194,1.1194,1.1194,1.1194,1.1096,1.0801,1.0413,1.0314,0.9924,0.943,0.8973,0.8726,0.8577,0.8038,0.7743,0.7596,0.7494,0.7341,0.7188,0.7188,0.7188,0.7188,0.7089,0.7056,0.7023,0.6924,0.6842,0.6787,0.6651,0.6678,0.6706,0.6576,0.6605,0.6655,0.6655,0.6721,0.6825,0.687,0.6982,0.7072,0.7171,0.7208,0.7089,0.6839,0.6869,0.6946,0.7045,0.7087,0.7138,0.7255,0.7591,0.7856,0.8069,0.8336,0.8604,0.8867,0.9174,0.9388,0.9602,0.999,1.0207,1.0207,1.0398,1.0406,1.031,1.0176,0.9995,1.4756,1.4569,1.4389,1.4317,1.4137,1.3964,1.3826,1.3851,1.394,1.4247,1.4105,1.4057,1.4482,1.4081,1.362,1.3506,1.3293,1.3147,1.3233,1.3067,1.2922,1.2915,1.271,1.2419,1.2175,1.1731,0.0,1.134,1.134,1.1292,1.1194,1.1292,1.134,1.134,1.1438,1.1487,1.1487,1.1487,1.1487,1.1487,1.1487,1.1487,1.1487,1.1487,1.1438,1.134,1.134,1.1292,1.1194,1.1194,1.0949,1.0511,1.0462,1.0117,0.9677,0.913,0.8878,0.8726,0.8187,0.7892,0.7743,0.7743,0.764,0.7487,0.7487,0.7487,0.7487,0.7391,0.7341,0.7341,0.7238,0.7188,0.7167,0.7128,0.7302,0.7378,0.7292,0.7465,0.7558,0.7558,0.7631,0.769,0.769,0.772,0.7783,0.7783,0.7783,0.7686,0.7391,0.7226,0.7183,0.7325,0.7231,0.7222,0.7476,0.7724,0.7984,0.8201,0.8516,0.8828,0.9043,0.9257,0.9519,0.9733,1.012,1.0294,1.0294,1.0646,1.0776,1.0684,1.059,1.0478,1.4361,1.4209,1.4057,1.4057,1.3928,1.3754,1.3797,1.3881,1.396,1.402,1.4024,1.413,1.4242,1.3913,1.3611,1.3672,1.3343,1.3201,1.3468,1.3275,1.3101,1.3117,1.2948,1.2716,1.2467,1.2224,0.0,1.1683,0.0,1.1487,1.1243,1.1487,1.1634,1.1634,1.1878,1.198,1.198,1.198,1.198,1.198,1.198,1.198,1.198,1.198,1.1878,1.1639,1.159,1.1443,1.1198,1.1194,1.1047,1.0757,1.0507,1.0216,0.992,0.9381,0.9031,0.8726,0.8187,0.7988,0.7988,0.7988,0.7988,0.7988,0.7988,0.7988,0.7939,0.7696,0.7596,0.7543,0.7288,0.7238,0.7238,0.7238,0.7637,0.8038,0.8038,0.8432,0.8825,0.8825,0.8825,0.8825,0.8825,0.8825,0.8825,0.8825,0.8825,0.8531,0.7743,0.7514,0.7513,0.7614,0.7501,0.7438,0.7517,0.7768,0.7984,0.8201,0.8644,0.8999,0.9301,0.9476,0.9733,0.9994,1.0207,1.0337,1.0337,1.0786,1.0916,1.0727,1.0916,1.0759,1.3819,1.3674,1.3637,1.3484,1.3375,1.3382,1.3535,1.3601,1.3689,1.3931,1.3851,1.3764,1.3919,1.385,1.3749,1.3452,1.3348,1.3347,1.3472,1.3291,1.317,1.3349,1.318,1.3001,1.2953,1.271,1.2467,0.0,1.2029,1.1878,1.1785,1.1878,1.1883,1.1883,1.198,1.198,1.198,1.198,1.198,1.198,1.198,1.198,1.198,1.198,1.198,1.1883,1.1688,1.1536,1.1487,1.1292,1.1047,1.0757,1.0507,1.0216,0.992,0.9381,0.9133,0.9031,0.8485,0.8187,0.7988,0.7988,0.7988,0.7988,0.7988,0.7988,0.7988,0.7942,0.7892,0.7892,0.7789,0.7935,0.8084,0.8084,0.8333,0.8577,0.8577,0.8726,0.8825,0.8825,0.8825,0.8825,0.8825,0.8825,0.8825,0.8825,0.8825,0.8726,0.8531,0.8242,0.8103,0.811,0.7905,0.7856,0.7984,0.8069,0.8248,0.8476,0.8736,0.8999,0.9301,0.9476,0.982,1.0207,1.0419,1.0603,1.0829,1.1089,1.1181,1.1132,1.1181,1.1149,1.3475,1.3337,1.3228,1.3253,1.3219,1.3236,1.3346,1.3455,1.355,1.3733,1.3651,1.3595,1.3673,1.3682,1.3613,1.356,1.3444,1.3438,1.3617,1.3524,1.3473,1.3496,1.3475,1.3394,1.3292,1.3055,1.2856,0.0,1.237,1.2127,1.2029,1.2127,1.2175,1.2175,1.2273,1.237,1.237,1.237,1.237,1.237,1.237,1.237,1.237,1.237,1.2273,1.2175,0.0,1.1834,1.1585,1.1438,1.1198,1.0949,1.0654,1.0413,1.0117,0.9723,0.9381,0.9137,0.8832,0.8584,0.8333,0.8088,0.7988,0.7988,0.7988,0.7988,0.7988,0.7988,0.8088,0.8187,0.8187,0.8382,0.8581,0.8581,0.8779,0.8977,0.8977,0.9076,0.9175,0.9324,0.9418,0.9468,0.9324,0.9324,0.9274,0.9175,0.9126,0.9148,0.9071,0.864,0.8264,0.8197,0.8009,0.7984,0.8201,0.8201,0.8336,0.8696,0.8955,0.9174,0.9432,0.9733,1.0033,1.0294,1.0598,1.0868,1.1008,1.1181,1.1305,1.1305,1.1305,1.1305,1.3184,1.3021,1.2926,1.3147,1.317,1.3156,1.3193,1.3346,1.3492,1.3492,1.3492,1.3506,1.355,1.3402,1.3428,1.3776,1.3532,1.3412,1.3721,1.3831,1.3789,1.3583,1.3714,1.3746,1.3588,1.3298,1.3147,1.3147,1.2759,1.2419,1.2127,1.2322,1.2467,1.2467,1.2667,1.2813,1.2813,1.2813,1.2813,1.2813,1.2813,1.2813,1.2813,1.2813,1.2662,1.2467,0.0,0.0,1.1683,1.1634,1.1438,1.1243,1.09,1.0659,1.0364,1.0117,0.9677,0.9236,0.9236,0.9031,0.8775,0.8287,0.8088,0.8088,0.8088,0.8088,0.8088,0.8088,0.8283,0.8432,0.8432,0.8627,0.8874,0.8874,0.908,0.9282,0.9286,0.9529,0.9776,1.0019,1.0216,1.0314,1.0068,1.0068,0.9969,0.9723,0.9723,0.9649,0.9488,0.8851,0.8374,0.8212,0.8087,0.8072,0.8288,0.8288,0.8468,0.8911,0.9213,0.9432,0.9646,1.0077,1.0337,1.0386,1.0786,1.1008,1.1051,1.1224,1.1305,1.1305,1.1305,1.1305,1.2772,1.2677,1.265,1.2705,1.2824,1.301,1.3156,1.3346,1.3492,1.3492,1.3492,1.3433,1.3308,1.3299,1.3352,1.3523,1.3433,1.3389,1.3678,1.3616,1.3634,1.3828,1.3676,1.3637,1.3811,1.3593,1.3443,0.0,0.0,1.3104,1.2667,1.271,1.2716,1.2716,1.2764,1.2813,1.2813,1.2813,1.2813,1.2813,1.2813,1.2813,1.2813,1.2813,1.2764,1.2716,0.0,0.0,1.2224,1.178,1.159,1.1487,1.0998,1.0659,1.0364,1.0117,0.9826,0.948,0.9286,0.9183,0.9084,0.8779,0.8676,0.8676,0.8676,0.8676,0.8676,0.8676,0.8676,0.8726,0.8726,0.8931,0.9133,0.9133,0.9331,0.9579,0.9826,1.0068,1.0265,1.0314,1.0364,1.0413,1.0364,1.0314,1.0314,1.0265,1.0265,1.0139,0.9789,0.9299,0.8888,0.8704,0.8577,0.8564,0.878,0.878,0.8911,0.9218,0.9432,0.9646,0.9907,1.0164,1.0472,1.0873,1.0965,1.1094,1.1267,1.1267,1.1305,1.1305,1.1305,1.1305,1.2716,1.2567,1.2486,1.2648,1.2797,1.2936,1.301,1.3273,1.3492,1.3492,1.3492,1.3455,1.3382,1.3285,1.329,1.3369,1.3404,1.3426,1.3476,1.3673,1.3831,1.3896,1.3887,1.3914,1.4088,1.3877,1.369,1.369,0.0,1.3394,1.3201,1.3152,1.3152,1.3152,1.3152,1.3152,1.3152,1.3152,1.3152,1.3152,1.3152,1.3152,1.3152,1.3152,1.3104,1.2953,1.2807,0.0,1.237,1.2127,1.1834,1.159,1.134,1.0949,1.0605,1.0458,1.0167,0.9772,0.9677,0.9529,0.9381,0.9278,0.9023,0.8825,0.8825,0.8825,0.8825,0.8825,0.8878,0.9031,0.9031,0.9229,0.943,0.9579,0.9821,1.0068,1.0167,1.0413,1.0609,1.0609,1.0703,1.0757,1.0605,1.0609,1.056,1.0408,1.0413,1.0272,0.9839,0.9605,0.9355,0.9072,0.901,0.8999,0.9087,0.9087,0.9218,0.9432,0.9694,0.9907,1.0164,1.0472,1.0786,1.1008,1.1224,1.1397,1.1527,1.1607,1.1656,1.1656,1.1656,1.1656,1.2661,1.2516,1.2358,1.2667,1.2814,1.2879,1.2852,1.3136,1.3367,1.3301,1.3287,1.3309,1.3375,1.3245,1.3141,1.3292,1.3413,1.3492,1.3397,1.375,1.4005,1.3937,1.4116,1.4251,1.4332,1.4178,1.4076,1.4076,0.0,0.0,1.3491,1.3491,1.3491,1.3491,1.3491,1.3491,1.3491,1.3491,1.3491,1.3491,1.3491,1.3491,1.3491,1.3491,1.3394,1.3195,1.3098,0.0,0.0,1.2419,1.2175,1.178,1.1634,1.1292,1.09,1.0801,1.0511,1.0068,1.0068,0.9969,0.9776,0.9776,0.9422,0.8973,0.8973,0.8973,0.8977,0.9023,0.9229,0.9381,0.943,0.9628,0.9821,1.0019,1.0314,1.0511,1.0511,1.0708,1.0904,1.0904,1.1051,1.1145,1.09,1.0904,1.0806,1.0609,1.0525,1.0373,1.0017,0.9936,0.9776,0.9472,0.9345,0.9301,0.9345,0.9432,0.9519,0.9733,0.9994,1.0255,1.0429,1.0868,1.1089,1.1138,1.157,1.1742,1.1742,1.1914,1.2,1.2,1.2,1.2,1.2338,1.2325,1.2342,1.256,1.2767,1.2859,1.2756,1.2904,1.2965,1.2638,1.258,1.2667,1.3001,1.2876,1.2885,1.3257,1.3413,1.3532,1.356,1.3664,1.3838,1.4036,1.4136,1.428,1.453,1.4599,1.4646,1.4646,0.0,0.0,1.3539,1.3491,1.3491,1.3491,1.3491,1.3491,1.3491,1.3491,1.3491,1.3491,1.3491,1.3491,1.3491,1.3491,1.3491,1.3443,0.0,0.0,0.0,1.2565,1.237,1.2273,1.178,1.1438,1.1145,1.0904,1.0609,1.0364,1.0364,1.0364,1.0314,1.0314,0.9969,0.9529,0.9529,0.9529,0.9579,0.9821,0.992,0.9969,1.0216,1.0314,1.0314,1.0364,1.056,1.0752,1.0752,1.0949,1.1145,1.1145,1.1194,1.1194,1.1145,1.1145,1.1145,1.1145,1.0994,1.0792,1.0557,1.0368,1.0166,0.9979,0.9563,0.9388,0.9559,0.9777,1.0038,1.0207,1.0467,1.0738,1.0921,1.1165,1.1381,1.1613,1.1871,1.1957,1.1957,1.2,1.2,1.2,1.2,1.2,1.2673,1.2673,1.2673,1.2753,1.2796,1.2771,1.2713,1.2716,1.2645,1.2514,1.2485,1.2529,1.266,1.2808,1.2877,1.2941,1.3177,1.3409,1.3519,1.358,1.3736,1.4059,1.4127,1.4244,1.4566,1.4618,1.471,1.4921,0.0,0.0,1.4454,1.416,1.3968,1.3968,1.3968,1.3968,1.3968,1.3968,1.3968,1.3968,1.3968,1.3968,1.3968,1.3968,1.3871,1.3738,0.0,0.0,0.0,1.2953,1.2759,1.2613,1.2224,1.1932,1.1639,1.1389,1.1096,1.0855,1.0708,1.056,1.0413,1.0413,1.0265,1.0068,1.0068,1.0068,1.0117,1.0216,1.0216,1.0265,1.0364,1.0511,1.0659,1.0659,1.0855,1.1047,1.1047,1.1096,1.1194,1.1194,1.1194,1.1194,1.1194,1.1194,1.1243,1.1443,1.1216,1.1052,1.1015,1.0849,1.0632,1.0449,1.012,0.9951,0.999,1.0255,1.0467,1.0554,1.0852,1.1117,1.1165,1.151,1.1774,1.1871,1.2118,1.2246,1.2246,1.2369,1.2412,1.2412,1.2412,1.2412,1.276,1.283,1.2879,1.286,1.2813,1.274,1.2622,1.2541,1.2484,1.2387,1.2373,1.2402,1.2432,1.2711,1.2899,1.2741,1.3103,1.3387,1.3455,1.3594,1.3794,1.3989,1.4143,1.4324,1.4553,1.4654,1.4818,0.0,0.0,0.0,0.0,1.4742,1.4544,1.4544,1.4544,1.4544,1.4544,1.4544,1.4544,1.4544,1.4544,1.4544,1.4544,1.4442,1.4304,1.4118,0.0,0.0,0.0,1.3346,1.3104,1.2861,1.2613,1.237,1.2078,1.1834,1.1585,1.1389,1.1243,1.1047,1.085,1.085,1.085,1.085,1.085,1.0659,1.0413,1.0511,1.056,1.0659,1.0659,1.0806,1.09,1.09,1.1047,1.1194,1.1194,1.1194,1.1194,1.1194,1.1243,1.134,1.134,1.1389,1.1487,1.1688,1.1446,1.1256,1.1282,1.106,1.0867,1.0704,1.0603,1.0472,1.0424,1.0646,1.0819,1.0852,1.1203,1.1419,1.1505,1.1903,1.2123,1.2123,1.2369,1.2491,1.2491,1.2619,1.2705,1.2705,1.2705,1.2705,1.2403,1.2662,1.2859,1.2735,1.2833,1.2875,1.2394,1.2407,1.2438,1.2173,1.2104,1.2141,1.2275,1.2579,1.2772,1.2705,1.3213,1.3544,1.3317,1.3663,1.3892,1.3899,1.4253,1.4479,1.4486,1.4824,1.4999,0.0,0.0,0.0,0.0,1.5083,1.5083,1.5083,1.5083,1.5083,1.5083,1.5083,1.5083,1.5083,1.5083,1.5083,1.5083,1.4838,1.4688,0.0,0.0,0.0,0.0,1.3588,1.3346,1.3098,1.2856,1.2613,1.237,1.2078,1.198,1.198,1.198,1.198,1.1975,1.1975,1.1975,1.1975,1.1975,1.1243,1.0462,1.0703,1.0998,1.1194,1.1194,1.1194,1.1194,1.1194,1.1194,1.1194,1.1194,1.1194,1.1194,1.1194,1.1389,1.1585,1.1585,1.1834,1.198,1.198,1.1596,1.1308,1.1308,1.0963,1.0689,1.0684,1.0873,1.0916,1.0727,1.0873,1.1084,1.1284,1.1559,1.1785,1.1995,1.224,1.2406,1.2406,1.2577,1.2705,1.2705,1.2705,1.2705,1.2705,1.2705,1.2705,1.2809,1.2883,1.2977,1.2907,1.2781,1.2623,1.2477,1.2315,1.2187,1.2112,1.2096,1.2127,1.2171,1.2332,1.2539,1.2731,1.289,1.3091,1.3443,1.3712,1.3848,1.3906,1.4247,1.4603,0.0,0.0,0.0,0.0,0.0,0.0,0.0,1.5594,1.541,1.5131,1.5083,1.5083,1.5083,1.5083,1.5083,1.5083,1.5083,1.5083,1.5083,1.5035,0.0,0.0,0.0,0.0,0.0,1.416,1.3871,1.3636,1.3346,1.3249,1.3104,1.271,1.2565,1.2467,1.2127,1.198,1.198,1.198,1.198,1.198,1.198,1.178,1.1487,1.1585,1.1536,1.1487,1.1487,1.1345,1.1194,1.1194,1.1194,1.1194,1.1194,1.134,1.1487,1.1487,1.1688,1.1878,1.1878,1.1927,1.1978,1.2018,1.1781,1.1578,1.1557,1.1317,1.117,1.1348,1.1435,1.1392,1.1111,1.1343,1.157,1.1774,1.2032,1.2203,1.2283,1.2491,1.2619,1.2619,1.2839,1.2966,1.2966,1.3094,1.3179,1.3179,1.3179,1.3179,1.2836,1.2899,1.3001,1.2938,1.2812,1.2684,1.2616,1.2523,1.2436,1.2367,1.2375,1.2344,1.2212,1.2364,1.257,1.2777,1.2866,1.3085,1.3489,1.3743,1.3978,1.4166,1.4424,0.0,0.0,0.0,0.0,0.0,0.0,0.0,0.0,0.0,1.5974,1.5696,1.5458,1.5363,1.5363,1.5363,1.5363,1.5363,1.5363,1.5363,1.5363,1.5267,0.0,0.0,0.0,0.0,0.0,1.4688,1.44,1.4022,1.3871,1.3678,1.3443,1.3152,1.3055,1.3007,1.2662,1.2565,1.2565,1.2565,1.2565,1.2565,1.2467,1.2224,1.198,1.198,1.1883,1.1731,1.1731,1.1634,1.1487,1.1389,1.134,1.134,1.134,1.1487,1.1634,1.1736,1.198,1.2175,1.2175,1.2224,1.2249,1.2162,1.2065,1.1917,1.1815,1.1669,1.1613,1.1785,1.1828,1.178,1.1714,1.1774,1.1909,1.2118,1.2326,1.2448,1.2491,1.2747,1.2833,1.2833,1.3094,1.3222,1.3222,1.3355,1.3398,1.3398,1.3398,1.3392,0.0,1.2785,1.2986,1.2834,1.2916,1.2957,1.2847,1.2928,0.0,1.2836,1.2805,1.2713,1.2398,1.257,1.2808,1.2844,1.3092,1.3351,1.3484,1.3858,1.4247,1.4664,1.4692,0.0,1.5168,0.0,0.0,0.0,0.0,0.0,0.0,0.0,1.6588,1.6588,1.6109,1.5879,1.5879,1.5879,1.5879,1.5879,1.5879,1.5879,1.5825,1.5635,0.0,0.0,0.0,0.0,0.0,1.5131,1.4831,1.4346,1.4346,1.4064,1.3588,1.3539,1.3539,1.3539,1.3491,1.3491,1.3491,1.3491,1.3491,1.3443,1.3195,1.2662,1.2078,1.2073,1.2029,1.2029,1.2029,1.2029,1.1932,1.1688,1.1634,1.1634,1.1634,1.1634,1.1736,1.1975,1.2273,1.2419,1.2419,1.2667,1.2726,1.2425,1.2425,1.2315,1.206,1.2006,1.2,1.2043,1.2043,1.2118,1.2406,1.216,1.2118,1.2406,1.2406,1.2491,1.2705,1.2966,1.31,1.3137,1.3313,1.344,1.344,1.344,1.344,1.344,1.344,1.347,1.3172,0.0,1.3001,1.2943,1.2989,1.2995,0.0,1.2989,1.2981,1.2958,1.295,1.2897,1.2713,1.2654,1.2759,1.3107,1.3175,1.3297,1.3672,1.3934,1.4334,1.4928,1.4824,1.4817,1.5168,0.0,0.0,0.0,0.0,0.0,0.0,0.0,1.6588,1.6588,1.6494,1.6393,1.6393,1.6393,1.6393,1.6393,1.6393,1.6393,1.6393,1.6163,0.0,0.0,0.0,0.0,1.5404,1.5404,1.522,1.4885,1.4885,1.4694,1.44,1.4202,1.3973,1.3786,1.3588,1.3491,1.3491,1.3491,1.3491,1.3491,1.3443,1.3147,1.2807,1.2662,1.2467,1.2322,1.2322,1.2175,1.1975,1.1932,1.1927,1.1927,1.1927,1.2078,1.2224,1.2273,1.2516,1.271,1.271,1.291,1.2907,1.2472,1.2591,1.253,1.2055,1.1991,1.208,1.2283,1.2326,1.2406,1.2619,1.2412,1.2412,1.2619,1.2619,1.2747,1.3009,1.3052,1.3185,1.3307,1.3525,1.3737,1.3955,1.3955,1.3955,1.3955,1.3955,1.3955,1.3388,1.3331,1.3246,1.3346,1.3376,1.3376,1.3437,1.3467,1.3407,1.3246,1.3216,1.3155,1.292,1.2912,1.3044,1.3388,1.3432,1.3654,1.4305,1.4499,1.4764,1.5294,1.5235,1.5223,0.0,0.0,0.0,0.0,0.0,0.0,0.0,0.0,1.7286,1.7286,1.7286,1.7052,1.6588,1.6588,1.6588,1.6588,1.6588,1.6588,1.6588,1.6454,0.0,0.0,0.0,0.0,1.5832,1.5832,1.5601,1.5267,1.5267,1.5124,1.4885,1.4736,1.4598,1.4412,1.4262,1.4166,1.4016,1.3919,1.3871,1.3823,1.3738,1.3588,1.3394,1.3055,1.2759,1.2565,1.2565,1.2467,1.2322,1.2224,1.2175,1.2145,1.2042,1.2123,1.2262,1.2363,1.2603,1.2833,1.2937,1.3052,1.2983,1.2654,1.2683,1.2605,1.2212,1.2246,1.2412,1.2711,1.2711,1.279,1.3003,1.2918,1.2881,1.2875,1.2966,1.3094,1.3228,1.3307,1.3483,1.3743,1.3828,1.3955,1.4088,1.4088,1.4088,1.4088,1.4088,1.4088,1.3511,1.362,1.3752,1.3799,1.383,1.386,1.398,1.401,1.3911,1.3631,1.3571,1.348,1.3133,1.3285,1.3494,1.366,1.3797,1.4216,1.5011,1.5111,1.5245,1.57,1.5775,0.0,0.0,0.0,0.0,0.0,0.0,0.0,0.0,0.0,0.0,1.8087,1.8087,1.7707,1.6824,1.6777,1.677,1.6723,1.6723,1.6723,1.6723,1.6683,0.0,0.0,0.0,0.0,1.6265,1.6265,1.5981,1.5594,1.5594,1.5404,1.5178,1.5178,1.5131,1.5083,1.5083,1.4939,1.4742,1.4442,1.4346,1.4298,1.4022,1.3931,1.3786,1.3346,1.3055,1.2861,1.2813,1.2813,1.2759,1.2516,1.2441,1.2362,1.212,1.2052,1.212,1.2361,1.2596,1.2844,1.3003,1.3089,1.3049,1.2808,1.2814,1.275,1.2527,1.2662,1.2875,1.3137,1.3137,1.3222,1.3392,1.344,1.3355,1.3185,1.3313,1.3398,1.344,1.3652,1.387,1.4088,1.4088,1.4088,1.4088,1.4088,1.4088,1.4088,1.4088,1.4088,1.4045,1.4446,1.4636,1.41,1.398,1.398,1.401,1.401,1.398,1.392,1.3911,1.3821,1.348,1.3743,1.3998,1.4008,1.4279,1.4678,1.5288,1.5196,1.5324,1.5962,0.0,0.0,0.0,0.0,0.0,0.0,0.0,0.0,0.0,0.0,0.0,1.8087,1.8087,1.804,1.7846,1.7621,1.7434,1.7192,1.7192,1.7192,1.7192,1.7019,1.6932,0.0,0.0,1.6588,1.6541,1.6541,1.6353,1.6076,1.6076,1.5832,1.5452,1.5452,1.5309,1.5083,1.5083,1.5083,1.4987,1.4736,1.464,1.4592,1.4304,1.407,1.3883,1.3786,1.3443,1.3001,1.2861,1.2813,1.2813,1.2764,1.2566,1.241,1.2325,1.2341,1.2332,1.2378,1.2562,1.2705,1.2745,1.2951,1.3024,1.2773,1.3089,1.3268,1.3046,1.3179,1.3307,1.3355,1.3355,1.3355,1.3398,1.3568,1.3652,1.361,1.3476,1.3476,1.3652,1.3913,1.4046,1.4088,1.4088,1.4088,1.4088,1.4088,1.4088,1.4088,1.4088,1.4088,1.4103,1.4696,1.5128,1.4834,1.4666,1.4547,1.4547,1.4547,1.4488,1.43,1.427,1.4243,1.4114,1.4316,1.4614,1.4831,1.4884,1.5142,1.5793,1.569,1.5795,0.0,0.0,0.0,0.0,0.0,0.0,0.0,0.0,0.0,0.0,0.0,0.0,0.0,1.8681,1.855,1.8326,1.8195,1.8001,1.7707,1.7707,1.7707,1.7707,1.7621,1.7535,1.7355,0.0,1.7066,1.6831,1.6831,1.6643,1.6407,1.6407,1.6258,1.6062,1.5927,1.5689,1.5452,1.5356,1.5309,1.5267,1.4981,1.4939,1.4885,1.4592,1.4448,1.4262,1.3979,1.3636,1.3292,1.3201,1.301,1.2815,1.2815,1.2581,1.2363,1.2237,1.2304,1.24,1.24,1.258,1.2806,1.2888,1.3162,1.3292,1.3171,1.3293,1.3409,1.3283,1.3355,1.344,1.3568,1.3568,1.3646,1.3935,1.4026,1.4026,1.3913,1.3828,1.3864,1.4062,1.4195,1.4321,1.4412,1.4412,1.4412,1.4412,1.4412,1.437,1.4237,1.4237,1.4094,1.4155,1.4771,1.538,1.5478,1.5313,1.5088,1.5059,1.5039,1.4999,1.4807,1.4766,1.4765,1.4867,1.5006,1.5201,1.5536,1.5493,1.5668,1.622,1.627,1.6353,0.0,0.0,0.0,0.0,0.0,0.0,0.0,0.0,0.0,0.0,0.0,0.0,0.0,1.9239,1.9112,1.8759,1.8759,1.852,1.8087,1.8087,1.8087,1.8087,1.8087,1.7994,1.7815,1.7721,1.7495,1.7167,1.712,1.6925,1.6683,1.6683,1.6636,1.6588,1.6359,1.617,1.5967,1.573,1.5642,1.5594,1.5315,1.5172,1.5124,1.4885,1.474,1.4595,1.4124,1.3796,1.357,1.3431,1.3121,1.2869,1.2813,1.256,1.2321,1.2137,1.2275,1.2405,1.2405,1.263,1.2915,1.3061,1.3328,1.3492,1.3492,1.3489,1.3483,1.3568,1.361,1.373,1.3899,1.3948,1.4068,1.4433,1.4475,1.4405,1.425,1.425,1.4328,1.4482,1.4482,1.4524,1.4692,1.4692,1.4692,1.4692,1.4692,1.4608,1.4482,1.4482,1.4207,1.4445,1.4891,1.5307,1.5756,1.5604,1.5332,1.5205,1.5186,1.5262,1.5453,1.5508,1.5538,1.5601,1.5677,1.5752,1.5772,1.6043,1.6255,1.6299,0.0,0.0,0.0,0.0,0.0,0.0,0.0,0.0,0.0,0.0,0.0,0.0,0.0,0.0,0.0,0.0,1.9541,1.9541,1.9541,1.9028,1.8087,1.8087,1.8087,1.8087,1.8087,1.8087,1.804,1.7815,1.7675,1.7628,1.738,1.7153,1.6979,1.6979,1.6831,1.6588,1.6588,1.6541,1.6494,1.6218,1.617,1.6076,1.5642,1.5493,1.5404,1.5124,1.4851,1.4549,1.4316,1.409,1.3771,1.3257,1.311,1.3041,1.2768,1.2569,1.2387,1.237,1.2394,1.2392,1.2392,1.2784,1.3089,1.3107,1.3266,1.3423,1.3423,1.358,1.3779,1.3997,1.4195,1.4398,1.4608,1.4629,1.4622,1.4671,1.4678,1.465,1.465,1.465,1.465,1.4692,1.4692,1.4692,1.4692,1.4692,1.4692,1.4692,1.4692,1.4692,1.4692,1.4692,1.44,1.5013,1.5633,1.623,1.6407,1.6353,1.6153,1.573,1.5851,1.6049,1.6035,1.6187,1.636,1.6435,1.648,1.6484,1.6473,1.6643,1.6813,1.7018,0.0,0.0,0.0,0.0,0.0,0.0,0.0,0.0,0.0,0.0,0.0,0.0,0.0,0.0,0.0,0.0,1.9412,1.9232,1.9472,1.9404,1.9028,1.9028,1.8974,1.8773,1.8773,1.8596,1.8334,1.8241,1.8102,1.7947,1.7667,1.7488,1.7402,1.7246,1.7059,1.6831,1.6831,1.673,1.6588,1.6494,1.6454,1.64,1.6076,1.5812,1.5611,1.5184,1.4844,1.4533,1.4311,1.4145,1.3952,1.3497,1.3128,1.2897,1.2798,1.2578,1.2386,1.2386,1.2611,1.2839,1.2839,1.3094,1.3313,1.3313,1.3434,1.3652,1.3828,1.4026,1.4237,1.4447,1.4531,1.4608,1.4692,1.4831,1.4999,1.5137,1.5269,1.5401,1.5582,1.5026,1.4783,1.4957,1.4957,1.4999,1.5124,1.5131,1.5131,1.5131,1.5131,1.5082,1.4957,1.4957,1.4557,1.5298,1.5977,1.6598,1.6747,1.6818,1.6736,1.6453,1.6573,1.6749,1.6889,1.7048,1.7184,1.723,1.7169,1.7081,0.0,1.717,1.7395,0.0,0.0,0.0,0.0,0.0,0.0,0.0,0.0,0.0,0.0,0.0,0.0,0.0,0.0,0.0,0.0,0.0,1.9519,1.9462,1.9723,1.9872,1.9945,1.9945,1.9708,1.9333,1.9333,1.9112,1.8705,1.8612,1.8473,1.8187,1.7955,1.7768,1.7675,1.7481,1.7293,1.7113,1.7113,1.6965,1.6817,1.673,1.6666,1.6535,1.6261,1.5961,1.5675,1.529,1.4992,1.4721,1.4461,1.4269,1.4071,1.3666,1.3326,1.3097,1.3019,1.285,1.2711,1.2711,1.2966,1.3179,1.3179,1.3349,1.3525,1.361,1.3773,1.3984,1.425,1.4405,1.4566,1.4783,1.4859,1.4992,1.5124,1.5298,1.5458,1.5602,1.5733,1.5914,1.6087,1.5499,1.52,1.5423,1.5423,1.5465,1.5639,1.5639,1.5639,1.5639,1.5548,1.5416,1.5291,1.5107,1.4653,1.529,1.5743,1.6222,1.669,1.6818,1.6935,1.7411,1.7233,1.7245,1.8035,1.8115,1.8008,1.8008,1.7735,1.7426,1.7245,1.7731,0.0,0.0,0.0,0.0,0.0,0.0,0.0,0.0,0.0,0.0,0.0,0.0,0.0,0.0,0.0,0.0,0.0,0.0,0.0,2.0368,2.0386,2.0492,2.0699,2.0699,2.03,1.9587,1.9587,1.9442,1.9188,1.892,1.8697,1.8481,1.8234,1.7955,1.7675,1.7675,1.7527,1.7333,1.7333,1.7326,1.7279,1.7066,1.6765,1.6454,1.6211,1.5857,1.5606,1.5606,1.5397,1.5152,1.4879,1.4467,1.4039,1.3779,1.3774,1.3735,1.3461,1.3398,1.3398,1.3398,1.3398,1.3398,1.3398,1.3561,1.3779,1.4046,1.4286,1.4482,1.465,1.4692,1.4783,1.5082,1.5284,1.5575,1.6035,1.6102,1.6121,1.6098,1.6113,1.6095,1.6095,1.6128,1.6095,1.6087,1.6087,1.6087,1.6087,1.6087,1.6087,1.6087,1.5824,1.5692,1.5684,1.5168,1.4645,1.576,1.6521,1.7274,1.739,1.7716,1.8092,1.84,1.8139,1.8039,1.8692,1.8683,1.8516,1.8381,1.8076,1.7837,1.7769,1.8188,0.0,0.0,0.0,0.0,0.0,0.0,0.0,0.0,0.0,0.0,0.0,0.0,0.0,0.0,0.0,0.0,0.0,0.0,0.0,1.9979,2.0244,2.0572,2.0907,2.0907,2.051,1.9799,1.9799,1.9708,1.9487,1.9196,1.9058,1.8966,1.8558,1.8234,1.7994,1.7994,1.7947,1.7846,1.7846,1.7696,1.75,1.7233,1.6935,1.6565,1.6163,1.5816,1.556,1.5379,1.5119,1.4831,1.474,1.4635,1.4489,1.4398,1.4424,1.4253,1.3538,1.3398,1.3398,1.3398,1.3659,1.387,1.387,1.4159,1.4447,1.4489,1.4573,1.4699,1.4957,1.511,1.5318,1.5756,1.5873,1.5963,1.6102,1.6095,1.6162,1.6312,1.6443,1.6615,1.6771,1.6943,1.6738,1.6128,1.6087,1.6087,1.6087,1.6087,1.6087,1.6087,1.6004,1.5997,1.5989,1.5453,1.4996,1.5938,1.6688,1.7415,1.7655,1.8109,1.8648,1.9193,1.9082,1.8945,1.9258,1.9108,1.8875,1.8741,1.8448,0.0,1.8212,0.0,0.0,0.0,0.0,0.0,0.0,0.0,0.0,0.0,0.0,0.0,0.0,0.0,0.0,0.0,0.0,0.0,0.0,0.0,0.0,1.9832,2.0065,2.0451,2.09,2.09,2.0721,2.0329,2.0246,2.0065,1.9853,1.9525,1.9288,1.918,1.8738,1.8362,1.8011,1.7872,1.7781,1.7644,1.7644,1.756,1.734,1.7168,1.6906,1.6628,1.6323,1.6022,1.5758,1.5624,1.5401,1.5242,1.5242,1.52,1.511,1.511,1.5026,1.4817,1.4104,1.3942,1.3942,1.3942,1.4159,1.4328,1.4328,1.4531,1.4734,1.4824,1.495,1.5068,1.5284,1.5533,1.5824,1.6162,1.6203,1.6286,1.6492,1.6492,1.6574,1.6771,1.691,1.7033,1.7221,1.7343,1.718,1.6664,1.6623,1.6623,1.6623,1.6623,1.6574,1.6492,1.6409,1.6224,1.6011,1.5458,1.4999,1.5911,1.6491,1.7088,1.7604,1.8171,1.8812,1.9714,1.9939,1.99,1.9704,1.9374,1.9142,1.9142,1.8808,1.8549,0.0,0.0,0.0,0.0,0.0,0.0,0.0,0.0,0.0,0.0,0.0,0.0,0.0,0.0,0.0,0.0,0.0,0.0,0.0,0.0,0.0,1.9966,1.9966,2.0227,0.0,2.0802,2.0861,2.0935,2.0791,2.0538,2.024,1.9758,1.9413,1.9112,1.8803,1.8406,1.7911,1.7598,1.7306,1.7094,1.7087,1.7072,1.6997,1.6997,1.6827,1.6587,1.6553,1.6347,1.6087,1.6087,1.6087,1.6087,1.6087,1.5914,1.5733,1.5733,1.5609,1.536,1.4943,1.4776,1.4776,1.4776,1.4776,1.4776,1.4776,1.4817,1.4908,1.5166,1.5325,1.5526,1.5733,1.5955,1.6203,1.6435,1.6476,1.664,1.7098,1.7139,1.718,1.7392,1.7416,1.7416,1.7441,1.7456,1.7489,1.7473,1.7432,1.7392,1.7392,1.7392,1.731,1.7139,1.6862,1.6451,1.5943,1.5358,1.4835,1.6076,1.676,1.7417,1.7877,1.8618,1.9376,1.9999,2.0342,2.0432,2.0085,1.9726,1.9506,1.9506,1.9208,1.8975,0.0,0.0,0.0,0.0,0.0,0.0,0.0,0.0,0.0,0.0,0.0,0.0,0.0,0.0,0.0,0.0,0.0,0.0,0.0,0.0,2.0031,2.0454,2.0454,2.0576,0.0,2.08,2.0728,2.0625,2.0855,2.0516,1.9829,1.958,1.9101,1.8556,1.8483,1.8406,1.8267,1.8028,1.7909,1.7822,1.7692,1.7482,1.7219,1.699,1.6714,1.6428,1.6277,1.6148,1.6087,1.6087,1.6087,1.6087,1.6087,1.6046,1.5997,1.5997,1.5997,1.5914,1.5831,1.5533,1.5269,1.5269,1.5352,1.5484,1.5484,1.5658,1.5831,1.588,1.5922,1.6038,1.6229,1.6312,1.6484,1.6894,1.6968,1.7057,1.731,1.7351,1.7351,1.7392,1.7554,1.7627,1.7619,1.7983,1.8193,1.8201,1.7676,1.7392,1.7392,1.7392,1.7392,1.7351,1.6974,1.6636,1.6365,1.554,1.5028,1.6095,1.6667,1.7255,1.8253,1.9034,1.9684,2.0186,2.0563,2.0743,2.0539,2.015,1.9824,1.9769,1.9506,0.0,0.0,0.0,0.0,0.0,0.0,0.0,0.0,0.0,0.0,0.0,0.0,0.0,0.0,0.0,0.0,0.0,0.0,0.0,0.0,2.0098,2.0134,2.0273,2.0273,2.0401,2.0683,2.0683,2.0693,2.0647,2.0607,2.0288,1.9757,1.954,1.916,1.8707,1.8446,1.8294,1.815,1.7858,1.7743,1.7751,1.7658,1.7503,1.7316,1.7175,1.7005,1.6853,1.6738,1.6697,1.6697,1.6697,1.6697,1.6697,1.6697,1.6697,1.6697,1.6697,1.6697,1.6697,1.6697,1.6196,1.5741,1.5741,1.5831,1.588,1.5873,1.5989,1.6113,1.6087,1.6252,1.6492,1.6812,1.6894,1.6976,1.7221,1.7221,1.7302,1.7505,1.7546,1.7627,1.7878,1.7951,1.8072,1.8152,1.8393,1.8554,1.8523,1.821,1.8008,1.8008,1.7919,1.7745,1.7447,1.7136,1.6704,1.6089,1.5603,1.5115,1.5926,1.6437,1.7082,1.8453,1.9201,1.9718,2.0201,2.0602,2.0853,2.088,2.0539,2.015,1.9998,1.9835,0.0,0.0,0.0,0.0,0.0,0.0,0.0,0.0,0.0,0.0,0.0,0.0,0.0,0.0,0.0,0.0,0.0,0.0,2.0527,2.0342,2.0342,2.0264,2.002,2.002,2.0201,2.0552,2.0503,2.0561,2.0624,2.0278,1.9988,1.9747,1.9526,1.9279,1.8981,1.8556,1.8221,1.7938,1.7638,1.7473,1.7432,1.7392,1.7392,1.7392,1.7392,1.7392,1.7392,1.7392,1.7392,1.7392,1.7392,1.7392,1.7392,1.7392,1.7392,1.7392,1.7392,1.7392,1.7392,1.7392,1.6861,1.6335,1.6335,1.6309,1.6317,1.6343,1.6319,1.6312,1.6335,1.6615,1.6943,1.7351,1.7392,1.7392,1.7432,1.7473,1.7595,1.7781,1.7861,1.8031,1.8402,1.8442,1.8523,1.87,1.8714,1.8754,1.8732,1.8772,1.8812,1.8812,1.8563,1.817,1.7583,1.7337,1.6716,1.5786,1.5581,1.5211,1.5461,1.6425,1.7491,1.8271,1.8828,1.9321,1.986,2.0317,2.068,2.0864,2.0754,2.0561,2.0378,0.0,0.0,0.0,0.0,0.0,0.0,0.0,0.0,0.0,0.0,0.0,0.0,0.0,0.0,0.0,0.0,0.0,0.0,2.0693,2.0605,2.0566,2.0566,2.0527,2.0527,2.0527,2.044,2.0351,2.0106,2.0016,2.0033,1.9764,1.9668,1.9619,1.9371,1.9062,1.877,1.8677,1.853,1.8311,1.8017,1.7789,1.7619,1.7473,1.7392,1.7392,1.7392,1.7392,1.7392,1.7392,1.7392,1.7392,1.7392,1.7392,1.7392,1.7392,1.7392,1.7392,1.7392,1.7392,1.7392,1.7392,1.731,1.7229,1.7229,1.7237,1.7237,1.7229,1.7229,1.7229,1.7229,1.727,1.731,1.7392,1.7392,1.7473,1.7619,1.7789,1.804,1.8273,1.8442,1.8571,1.866,1.8652,1.866,1.87,1.8843,1.8962,1.8962,1.9112,1.9222,1.9222,1.8843,1.8457,1.8011,1.7476,1.6868,1.6218,1.5715,1.5262,1.5537,1.6537,1.7479,1.7853,1.8526,1.9176,1.9499,2.0105,2.0641,2.0707,2.0868,2.0882,0.0,0.0,0.0,0.0,0.0,0.0,0.0,0.0,0.0,0.0,0.0,0.0,0.0,0.0,0.0,0.0,0.0,0.0,2.1061,2.0974,2.0925,2.0925,2.0925,2.0886,2.078,2.078,2.0654,2.0459,2.0216,2.0108,2.0108,1.9872,1.969,1.9586,1.9255,1.9004,1.8851,1.874,1.866,1.8571,1.8451,1.8322,1.8241,1.817,1.8129,1.8129,1.8129,1.8129,1.8129,1.8129,1.8129,1.8129,1.8129,1.8129,1.8129,1.8129,1.8129,1.8129,1.8129,1.8129,1.8129,1.8129,1.8129,1.8129,1.8129,1.7749,1.7416,1.7416,1.7383,1.7473,1.7716,1.7757,1.7838,1.8089,1.8129,1.817,1.8241,1.8322,1.8451,1.8571,1.866,1.874,1.8851,1.8851,1.898,1.9188,1.9298,1.9408,1.9497,1.9597,1.9476,1.9127,1.8747,1.8324,1.7912,1.7324,1.6753,1.6163,1.583,1.5505,1.562,1.6415,1.7122,1.7517,1.8182,1.8864,1.9233,1.9837,2.0344,2.0424,2.0761,2.0974,0.0,0.0,0.0,0.0,0.0,0.0,0.0,0.0,0.0,0.0,0.0,0.0,0.0,0.0,0.0,0.0,0.0,0.0,2.1282,2.1244,2.1205,2.1205,2.1205,2.1138,2.0984,2.0945,2.0819,2.0654,2.0459,2.0381,2.0381,2.0108,1.9912,1.9754,1.932,1.9161,1.9121,1.8931,1.8812,1.8772,1.8772,1.874,1.87,1.87,1.87,1.87,1.87,1.87,1.87,1.87,1.87,1.87,1.87,1.87,1.87,1.87,1.87,1.87,1.87,1.87,1.87,1.87,1.87,1.8709,1.87,1.8193,1.7732,1.7732,1.7749,1.7838,1.8121,1.8161,1.8282,1.866,1.87,1.87,1.87,1.8772,1.8851,1.8851,1.8931,1.9091,1.924,1.9231,1.9369,1.9664,1.9694,1.9724,1.9891,1.9817,1.9522,1.9088,1.8522,1.8078,1.7723,1.7206,1.6687,1.6132,1.5964,1.5753,1.5537,1.5839,1.6234,1.7343,1.7739,1.8137,1.9096,1.9427,1.9632,1.989,2.0301,0.0,0.0,0.0,0.0,0.0,0.0,0.0,0.0,0.0,0.0,0.0,0.0,0.0,0.0,0.0,0.0,0.0,0.0,0.0,2.1464,2.132,2.1205,2.1205,2.1205,2.1205,2.1167,2.0984,2.0906,2.0867,2.0693,2.0566,2.0566,2.0381,2.0264,2.0225,1.9754,1.9566,1.9557,1.935,1.9152,1.8962,1.8962,1.8851,1.87,1.87,1.87,1.87,1.87,1.87,1.87,1.87,1.87,1.87,1.87,1.87,1.87,1.87,1.87,1.87,1.87,1.87,1.87,1.87,1.8718,1.8696,1.87,1.8652,1.862,1.862,1.862,1.866,1.866,1.866,1.866,1.87,1.87,1.87,1.87,1.9042,1.9262,1.9262,1.9627,1.9824,1.9863,1.9863,1.9863,1.9863,1.9863,1.9902,1.9912,1.9534,1.9316,1.9297,1.834,1.7748,1.7532,1.7297,1.6875,1.6272,1.6132,1.5885,1.5005,1.546,1.5908,1.6483,1.7163,1.7798,1.824,1.8799,1.927,1.9367,1.9732,0.0,0.0,0.0,0.0,0.0,0.0,0.0,0.0,0.0,0.0,0.0,0.0,0.0,0.0,0.0,0.0,0.0,0.0,0.0,2.125,2.1176,2.1148,2.1148,2.1425,2.1502,2.1397,2.1205,2.1089,2.1089,2.0896,2.078,2.078,2.0576,2.0489,2.0489,2.0186,1.9951,1.9784,1.9706,1.9627,1.9587,1.9587,1.9508,1.9478,1.9478,1.9478,1.9478,1.9478,1.9478,1.9478,1.9478,1.9478,1.9478,1.9478,1.9478,1.9439,1.932,1.9289,1.925,1.9121,1.9073,1.9073,1.9073,1.9082,1.9091,1.9082,1.8873,1.8723,1.8692,1.87,1.8772,1.9033,1.9073,1.9152,1.9439,1.9478,1.9478,1.9478,1.9587,1.9706,1.9706,1.9824,1.9902,1.9902,1.9902,1.999,2.0136,2.0157,2.0072,1.9926,1.9744,1.937,1.8741,1.8354,1.8024,1.7684,1.7212,1.6827,1.6508,1.6307,1.6096,1.4384,1.4959,1.5518,1.589,1.6541,1.7208,1.7648,1.8218,1.8701,1.8844,1.9211,0.0,0.0,0.0,0.0,0.0,0.0,0.0,0.0,0.0,0.0,0.0,0.0,0.0,0.0,0.0,0.0,0.0,0.0,0.0,2.0886,2.0886,2.0886,2.0886,2.1331,2.1494,2.1391,2.1316,2.132,2.132,2.1099,2.0984,2.0984,2.078,2.0693,2.0693,2.0498,2.0264,2.0029,1.9942,1.9902,1.9902,1.9902,1.9902,1.9902,1.9902,1.9902,1.9902,1.9902,1.9902,1.9902,1.9902,1.9902,1.9902,1.9902,1.9902,1.9863,1.9754,1.9715,1.9676,1.9548,1.9499,1.9499,1.9518,1.9508,1.9499,1.949,1.9253,1.8993,1.9011,1.9051,1.9201,1.9469,1.9499,1.9578,1.9863,1.9981,2.002,2.002,2.0137,2.0255,2.0255,2.0294,2.0342,2.0342,2.0342,2.0362,2.0362,2.0371,2.0213,1.9898,1.9762,1.9337,1.8592,1.8385,1.8098,1.7772,1.7246,1.6855,1.6603,1.6473,1.6307,0.0,0.0,0.0,1.5538,1.5877,1.6334,1.7308,1.7669,1.7873,1.8293,1.8739,0.0,0.0,0.0,0.0,0.0,0.0,0.0,0.0,0.0,0.0,0.0,0.0,0.0,0.0,0.0,0.0,0.0,0.0,2.0578,2.041,2.0364,2.0374,2.0385,2.0855,2.1093,2.1093,2.136,2.1471,2.1471,2.1242,2.1165,2.1165,2.0944,2.0876,2.0886,2.0673,2.0479,2.0303,2.002,1.9902,1.9902,1.9942,1.9942,1.9942,1.9942,1.9942,1.9942,1.9942,1.9942,1.9942,1.9942,1.9942,1.9942,1.9902,1.9902,1.9902,1.9902,1.9902,1.9902,1.9902,1.9902,1.9912,1.9901,1.9882,1.9893,1.9904,1.9775,1.9645,1.9597,1.9754,1.9902,1.9902,1.9902,1.9902,1.9942,2.0147,2.0342,2.0342,2.0683,2.0905,2.0905,2.1079,2.1205,2.1205,2.1195,2.0966,2.0534,2.0484,2.0283,1.9795,1.9409,1.9099,1.8884,1.8316,1.7896,1.7706,1.7373,1.6994,1.6603,1.6603,1.6438,1.3521,0.0,0.0,0.0,0.0,0.0,0.0,1.6577,1.7069,1.7563,0.0,0.0,0.0,0.0,0.0,0.0,0.0,0.0,0.0,0.0,0.0,0.0,0.0,0.0,0.0,0.0,0.0,0.0,2.0561,2.0163,2.0129,2.0014,2.0089,2.0374,2.0519,2.0581,2.0581,2.0669,2.0694,2.0705,2.0486,2.0413,2.0413,2.0203,2.0309,2.0609,2.0572,2.0675,2.0935,2.0576,2.0411,2.0411,2.0586,2.0625,2.0625,2.078,2.0848,2.0848,2.0848,2.0848,2.0819,2.0664,2.0625,2.0586,2.045,2.0411,2.0372,2.0225,2.0186,2.0147,1.9942,1.9902,1.9902,1.9912,1.9912,1.9902,1.9893,2.0128,2.0216,1.9863,1.9863,2.002,2.0372,2.0411,2.0489,2.0809,2.0886,2.0935,2.0935,2.1041,2.1118,2.1118,2.1167,2.1205,2.1205,2.0875,2.0634,2.0504,2.0193,1.9789,1.9397,1.9274,1.9018,1.8632,1.8353,1.81,1.794,1.7442,1.7132,1.7028,1.6724,1.6455,1.289,1.3389,1.3873,1.4283,0.0,0.0,1.5569,1.5877,1.6278,0.0,0.0,0.0,0.0,0.0,0.0,0.0,0.0,0.0,0.0,0.0,0.0,0.0,0.0,0.0,0.0,0.0,0.0,0.0,2.0179,1.9784,1.9614,1.9547,1.9627,1.9851,2.0048,2.0151,2.0151,2.0338,2.0385,2.0385,2.0288,2.0216,2.0216,2.0001,2.007,2.0323,2.0259,2.0363,2.0624,2.0577,2.0679,2.0848,2.0974,2.1022,2.1022,2.1177,2.1205,2.1205,2.1205,2.1205,2.1167,2.1061,2.1022,2.0974,2.078,2.0731,2.0693,2.0498,2.042,2.0372,2.0216,2.0177,2.0177,2.0177,2.0264,2.0303,2.0303,2.0615,2.0731,2.0294,2.0342,2.0537,2.0809,2.0848,2.0964,2.1282,2.1397,2.1464,2.154,2.1655,2.1693,2.1693,2.1518,2.1405,2.1405,2.0993,2.0627,2.0432,2.0165,1.9786,1.9255,1.9247,1.9063,1.863,1.8543,1.8351,1.8008,1.7613,1.7339,1.7201,1.6872,1.6629,1.2185,1.2804,1.3521,1.363,1.4172,0.0,1.5201,1.5335,1.5538,0.0,0.0,0.0,0.0,0.0,0.0,0.0,0.0,0.0,0.0,0.0,0.0,0.0,0.0,0.0,0.0,2.0248,2.0042,1.9933,1.9704,1.9473,1.9142,1.9108,1.9108,1.9108,1.9502,1.972,1.972,2.0079,2.0276,2.0276,2.0276,2.0276,2.024,2.0063,2.0022,2.0073,1.9894,1.9817,1.9897,2.0326,2.0732,2.1135,2.1185,2.1244,2.1244,2.1244,2.1282,2.1282,2.1282,2.1282,2.1244,2.1244,2.1244,2.1205,2.0984,2.0945,2.0906,2.0693,2.0644,2.0644,2.0644,2.0644,2.0683,2.0683,2.0809,2.0945,2.0945,2.1099,2.1167,2.0799,2.1002,2.1244,2.1244,2.1282,2.1359,2.1578,2.1769,2.1911,2.2101,2.2247,2.2328,2.2328,2.1903,2.1615,2.1615,2.1175,2.0729,2.0349,2.023,1.994,1.9362,1.932,1.9177,1.8865,1.8813,1.8546,1.8042,1.7852,1.7579,1.7235,1.7038,1.6855,1.233,1.2339,1.2357,1.2743,1.3292,0.0,1.4004,1.4426,1.4951,0.0,1.5652,0.0,0.0,0.0,0.0,0.0,0.0,0.0,0.0,0.0,0.0,0.0,0.0,0.0,0.0,2.0313,2.0085,2.0042,1.9769,1.9506,1.9274,1.9175,1.9108,1.9108,1.9191,1.9233,1.9233,1.9326,1.9334,1.9334,1.9334,1.9334,1.9334,1.93,1.9507,1.9858,1.9823,1.9994,2.0288,2.038,2.0506,2.0702,2.1217,2.1436,2.1474,2.1617,2.1693,2.1693,2.1693,2.1693,2.1655,2.1502,2.1436,2.1387,2.1205,2.1128,2.1089,2.0906,2.0974,2.1051,2.0896,2.0974,2.1089,2.1089,2.1128,2.1128,2.1128,2.1436,2.1655,2.1578,2.1502,2.1502,2.1655,2.1807,2.1987,2.2176,2.2252,2.2289,2.2327,2.2036,2.1828,2.1828,2.1424,2.1122,2.1122,2.0698,2.0413,2.0328,1.9956,1.9701,1.9551,1.9528,1.9441,1.9212,1.8926,1.868,1.8414,1.81,1.7769,1.7426,1.7401,1.7358,1.2142,1.2151,1.2213,1.2244,0.0,0.0,0.0,1.3563,1.4031,1.4329,1.4593,1.491,1.5406,0.0,0.0,0.0,0.0,0.0,0.0,0.0,0.0,0.0,0.0,0.0,0.0,0.0,1.9813,1.9987,1.9747,1.9506,1.9318,1.9175,1.9108,1.9108,1.9108,1.9108,1.9108,1.9108,1.9108,1.9108,1.9108,1.9108,1.9108,1.9108,1.9233,1.945,1.9529,1.9687,1.9882,2.0216,2.0375,2.0457,2.0802,2.0929,2.0966,2.104,2.1114,2.1114,2.1114,2.1114,2.1077,2.0966,2.0929,2.0944,2.0991,2.11,2.1167,2.1099,2.1109,2.1187,2.1061,2.1108,2.1213,2.1195,2.1359,2.1502,2.1502,2.1807,2.2138,2.2214,2.2252,2.2214,2.2101,2.2252,2.2478,2.2665,2.2777,2.2802,2.2637,2.2397,2.2146,2.1906,2.147,2.1197,2.1197,2.075,2.05,2.05,2.0172,1.9955,1.9868,1.9781,1.9671,1.9442,1.9266,1.9065,1.8808,1.864,1.8303,1.7906,1.7906,1.7794,0.0,0.0,0.0,0.0,0.0,1.2489,0.0,0.0,0.0,0.0,0.0,0.0,0.0,0.0,0.0,0.0,0.0,0.0,0.0,0.0,0.0,0.0,0.0,0.0,0.0,0.0,1.9519,1.9771,1.9694,1.955,1.9384,1.9208,1.9108,1.9108,1.9108,1.9108,1.9108,1.9108,1.9108,1.9108,1.9108,1.9108,1.9108,1.9142,1.9142,1.9142,1.9274,1.9351,1.9405,1.9919,2.0179,2.0198,2.0435,2.0538,2.0538,2.0538,2.0538,2.0538,2.0538,2.0502,2.0456,2.0456,2.042,2.0478,2.0759,2.1008,2.1171,2.1252,2.1302,2.1312,2.1254,2.1318,2.1375,2.1387,2.1655,2.1921,2.1949,2.2252,2.259,2.2777,2.3001,2.3038,2.2628,2.274,2.2927,2.315,2.322,2.3167,2.2956,2.2743,2.2498,2.2093,2.1621,2.1296,2.1296,2.0937,2.0701,2.0701,2.054,2.0367,2.0204,2.0031,1.9868,1.9694,1.9648,1.9461,1.9208,1.9218,1.8908,1.8327,1.8337,1.8148,0.0,0.0,0.0,0.0,1.1892,0.0,0.0,0.0,1.2262,1.238,0.0,0.0,0.0,0.0,0.0,0.0,0.0,0.0,0.0,0.0,0.0,0.0,0.0,0.0,0.0,0.0,0.0,1.9464,1.9533,1.9572,1.9572,1.9274,1.9108,1.9108,1.9108,1.9108,1.9108,1.9108,1.9108,1.9108,1.9108,1.9108,1.9108,1.9208,1.9285,1.9274,1.9473,1.9572,1.9583,1.9636,1.969,1.9742,2.0599,2.0914,2.0914,2.0914,2.0914,2.0914,2.0914,2.0832,2.0669,2.0669,2.0563,2.0478,2.0932,2.1081,2.1168,2.139,2.1578,2.1693,2.1502,2.1731,2.1987,2.1987,2.2176,2.2365,2.2553,2.2777,2.3001,2.3187,2.3519,2.3666,2.3261,2.3372,2.3556,2.3787,2.3415,2.3181,2.3301,2.2548,2.1977,2.192,2.1354,2.0962,2.0962,2.0788,2.0701,2.0701,2.0669,2.0669,2.0625,2.027,2.0064,2.0031,1.9737,1.9584,1.9539,1.9538,1.9196,1.8476,1.8472,1.8448,0.0,0.0,0.0,0.0,0.0,0.0,1.1419,0.0,1.1653,0.0,0.0,0.0,0.0,0.0,0.0,0.0,1.3533,0.0,0.0,0.0,0.0,0.0,0.0,0.0,0.0,0.0,0.0,0.0,0.0,1.919,1.919,1.9128,1.9108,1.9108,1.9108,1.9108,1.9108,1.9108,1.9108,1.9108,1.9108,1.9142,1.9208,1.9274,1.9351,1.9483,1.9671,1.9769,1.9769,1.9878,1.9944,2.0085,2.0365,2.0347,2.0201,2.0201,2.0201,2.0201,2.0201,2.0122,2.0054,2.0054,2.0107,2.0184,2.0417,2.0772,2.1118,2.124,2.1628,2.1928,2.1873,2.2052,2.2268,2.2279,2.2515,2.2777,2.2852,2.3224,2.3593,2.3787,2.4043,2.4261,2.4263,2.4213,2.4061,2.3798,2.3675,2.3421,2.2898,2.2445,2.2073,2.1815,2.153,2.1371,2.1371,2.1308,2.1276,2.1276,2.1117,2.0882,2.0701,2.054,2.0464,2.0453,2.0302,2.0172,2.0042,2.0064,1.9846,1.9411,1.9233,1.9065,1.3473,0.0,0.0,0.0,0.0,0.0,0.0,0.0,0.0,0.0,0.0,0.0,0.0,0.0,1.1923,1.2489,0.0,1.2905,0.0,0.0,0.0,0.0,0.0,0.0,0.0,0.0,0.0,0.0,1.8631,0.0,1.8892,1.8898,1.8973,1.9098,1.9108,1.9108,1.9108,1.9108,1.9108,1.9108,1.9108,1.9175,1.9318,1.9351,1.9473,1.9714,1.9933,2.0042,2.0042,2.0216,2.0346,2.0475,2.0313,2.0107,1.9878,1.978,1.9747,1.9747,1.9747,1.9704,1.9671,1.9605,1.9739,1.991,2.0036,2.0481,2.0938,2.1188,2.1591,2.2024,2.2145,2.2381,2.2558,2.2542,2.2852,2.3187,2.3298,2.3666,2.408,2.4358,2.4586,2.4755,2.4908,2.4649,2.4331,2.4026,2.3893,2.352,2.2793,2.2579,2.2341,2.2016,2.1906,2.1886,2.1824,2.1792,2.173,2.1698,2.1466,2.1244,2.099,2.0926,2.0882,2.0882,2.0852,2.0777,2.0624,2.056,2.0473,2.03,1.9911,1.9649,0.0,0.0,0.0,1.2939,0.0,0.0,0.0,0.0,1.0791,0.0,0.0,0.0,0.0,1.1123,1.1334,1.1935,1.2037,0.0,0.0,0.0,0.0,0.0,0.0,0.0,0.0,0.0,0.0,1.8032,1.8147,0.0,1.8871,1.8584,1.8642,1.9088,1.9108,1.9108,1.9108,1.9108,1.9108,1.9108,1.9108,1.9175,1.9318,1.9517,1.9704,1.99,2.0237,2.0378,2.041,2.0604,2.0669,2.0701,2.0669,2.0669,2.0637,2.0248,2.0074,2.0074,2.0074,2.0009,1.9868,1.9671,1.9615,1.9711,2.0145,2.0305,2.0517,2.1445,2.1711,2.1817,2.2285,2.2665,2.2964,2.2964,2.3298,2.3677,2.408,2.4164,2.437,2.4874,2.5123,2.5179,2.4856,2.4463,2.4325,2.4713,2.3895,2.3291,2.3426,2.3003,2.2672,2.2659,2.2482,2.2328,2.2197,2.1999,2.1843,2.1698,2.1698,2.1667,2.1667,2.1474,2.1388,2.1388,2.1253,2.1169,2.1158,2.0967,2.0871,2.086,2.0334,2.0009,0.0,0.0,1.4118,1.3483,0.0,0.0,0.0,0.0,0.0,0.0,0.0,0.0,0.0,1.0488,1.0615,1.1169,1.1352,1.1586,0.0,0.0,0.0,0.0,0.0,0.0,0.0,0.0,0.0,1.7497,1.7664,1.7818,0.0,1.8249,1.8476,1.8642,1.8942,1.9108,1.9108,1.9108,1.9108,1.9108,1.9175,1.9318,1.9506,1.9704,1.9976,2.0237,2.0346,2.0475,2.0604,2.0669,2.0765,2.0818,2.0733,2.0765,2.0818,2.0572,2.0508,2.0475,2.0346,2.027,2.0205,2.0009,1.9856,1.9823,2.0006,2.0169,2.0375,2.0695,2.1329,2.1987,2.2258,2.2761,2.3224,2.3372,2.3703,2.4043,2.4164,2.4575,2.4993,2.5158,2.5232,2.5296,2.5339,2.4694,2.4179,2.4082,2.3774,2.3436,2.3139,2.2941,2.28,2.2708,2.2647,2.2586,2.2525,2.2463,2.234,2.2173,2.2061,2.198,2.1843,2.1675,2.158,2.158,2.1561,2.1529,2.1529,2.1466,2.1434,2.1434,2.1233,2.0914,1.5669,1.5117,0.0,0.0,1.3399,0.0,1.248,0.0,0.0,0.0,0.0,0.0,0.0,1.0322,1.0273,1.0624,1.0764,1.1024,0.0,1.2456,0.0,0.0,0.0,0.0,0.0,0.0,1.6629,1.6983,1.717,1.731,0.0,0.0,1.805,1.8403,1.8704,1.8932,1.9108,1.9108,1.9108,1.9108,1.9241,1.9417,1.9615,1.9802,2.0074,2.041,2.0475,2.0604,2.0797,2.0862,2.0978,2.1051,2.0967,2.1042,2.1138,2.083,2.0701,2.0669,2.054,2.0508,2.0475,2.0346,2.0259,2.0194,2.0172,2.0325,2.0468,2.065,2.1348,2.2087,2.2416,2.3042,2.3629,2.3787,2.4116,2.4454,2.4586,2.4815,2.5105,2.5361,2.5228,2.514,2.5181,2.4728,2.4289,2.3998,2.3803,2.3552,2.3188,2.315,2.312,2.3042,2.3012,2.2969,2.2848,2.2739,2.2647,2.2512,2.2432,2.2309,2.2173,2.2092,2.2073,2.2073,2.2073,2.2073,2.2073,2.1968,2.1937,2.1937,2.1886,2.1667]}]]